GFSMA_sfc_thetae_000.txt.gz
Theta_e
329 329 323 324 322 324 323 322 324 326 326 327 327 326 326 324 322 321 320 320 325 327 331 335 336 336 333 332 330 329 326 326 325 326 325 324 326 326 326 325 325 325 325
328 329 323 322 325 326 327 325 325 325 326 326 327 329 328 328 325 324 325 321 319 322 325 331 334 335 334 332 329 329 328 326 325 325 324 324 325 325 325 325 324 324 324
324 323 321 319 319 323 324 326 325 326 328 327 326 326 326 327 327 324 325 322 318 318 320 326 331 333 335 333 331 329 329 328 326 325 325 324 325 324 324 324 324 324 324
317 317 317 317 318 318 317 315 314 316 320 321 322 323 323 325 326 327 325 322 319 317 316 320 325 330 332 333 332 329 327 329 327 327 326 325 325 324 324 324 324 324 324
312 311 312 313 313 311 312 311 311 315 314 314 316 323 322 320 326 324 323 319 318 317 316 316 320 323 328 331 333 331 329 328 329 328 327 326 325 325 324 324 324 324 324
309 309 309 310 309 307 305 306 306 307 309 312 309 314 322 326 326 324 324 321 320 319 317 318 319 323 324 329 331 333 330 328 328 328 328 327 326 325 325 324 324 325 324
308 309 308 307 308 306 306 305 304 304 304 307 305 309 314 321 323 321 322 325 322 317 317 317 318 320 325 327 329 331 332 329 327 328 328 327 326 325 325 324 324 324 324
308 307 306 305 306 305 305 305 305 302 302 304 301 300 305 314 319 319 321 322 323 321 316 315 318 319 321 329 329 328 330 332 330 329 328 326 325 324 325 325 325 324 324
308 309 307 307 306 306 304 305 304 303 300 301 302 301 296 300 303 313 319 319 320 319 319 316 316 318 319 323 326 326 321 324 328 329 327 325 325 325 324 324 324 324 324
308 308 308 308 308 307 305 304 303 304 302 300 301 301 304 300 295 296 306 309 317 317 320 319 316 317 319 321 321 320 316 316 322 326 327 326 326 325 324 324 323 323 324
306 306 307 307 308 307 306 306 305 304 303 301 300 300 300 299 299 298 294 300 307 310 314 319 318 314 318 322 323 322 313 313 315 322 325 326 326 325 325 324 323 323 323
302 303 303 304 304 304 304 304 305 304 304 302 301 300 298 296 296 296 297 298 297 301 305 311 314 312 313 319 320 314 311 311 312 317 321 323 324 325 325 324 324 323 322
298 299 300 299 299 300 300 300 301 301 302 301 301 300 300 299 299 297 295 294 294 299 302 306 313 313 312 312 315 312 311 308 310 313 317 319 321 322 323 324 323 322 322
295 297 296 297 297 297 298 298 297 298 299 301 301 301 300 299 298 298 295 294 292 294 297 301 307 311 312 311 311 308 317 305 307 309 311 314 317 318 318 320 320 319 320
295 295 296 295 296 296 296 297 296 297 298 300 301 301 301 302 300 298 298 297 293 289 291 296 301 305 309 311 309 311 311 308 305 305 306 309 311 315 315 316 316 316 318
295 294 294 294 294 294 295 295 295 296 296 298 298 298 299 300 299 299 297 297 297 294 291 296 296 305 305 305 307 308 308 307 302 302 302 305 307 309 311 313 313 313 314
293 293 293 293 292 292 293 293 293 294 293 294 296 297 298 299 299 298 298 296 295 295 293 296 298 300 302 302 303 305 307 307 306 299 299 302 304 305 307 308 308 308 309
293 292 292 291 291 291 291 291 291 292 291 292 293 294 294 296 297 298 298 295 295 296 294 293 297 298 299 302 303 301 303 305 306 301 299 301 303 304 303 302 302 302 302
292 291 290 289 289 289 289 290 290 290 291 291 292 292 293 293 294 296 296 295 295 294 296 295 294 297 298 301 299 299 298 299 303 302 299 299 301 302 301 300 299 299 298
289 289 289 289 289 288 288 289 289 289 289 288 289 290 290 291 292 292 293 294 294 294 295 294 293 294 296 298 298 295 293 295 294 297 300 300 299 299 299 298 297 297 297
288 288 287 288 288 288 287 288 287 286 285 285 287 287 288 289 289 290 291 292 293 293 293 293 294 295 295 296 293 295 294 291 290 290 291 294 298 298 297 296 296 296 295
287 287 287 287 287 286 286 285 284 283 283 283 284 286 287 288 288 287 287 288 289 290 289 292 292 293 294 296 297 294 290 287 287 288 287 285 290 294 294 295 294 293 293
286 286 286 286 286 286 285 283 283 283 283 284 284 285 286 287 287 287 287 286 286 287 286 289 290 293 293 297 297 294 291 292 289 287 289 283 285 285 289 291 292 292 292
285 285 285 286 285 284 283 283 282 283 284 284 284 285 285 286 287 287 287 287 288 290 289 289 290 293 296 298 298 297 293 290 287 286 285 281 283 281 284 285 290 291 290
284 285 285 284 283 283 283 282 282 283 283 283 284 285 285 285 286 286 286 285 286 288 290 289 290 290 290 291 292 299 289 287 283 283 282 281 281 281 283 285 285 289 289
284 284 283 283 282 283 282 282 282 283 282 283 284 286 284 285 285 285 285 285 284 286 288 288 288 290 290 292 289 294 292 289 284 282 284 279 279 279 276 281 285 286 287

GFSMA_sfc_thetae_003.txt.gz
Theta_e
328 329 326 326 325 326 325 325 322 320 323 324 324 323 325 327 328 327 325 322 324 326 327 330 335 335 335 335 333 331 328 327 326 326 328 328 327 328 328 327 327 326 326
327 326 326 324 322 325 327 327 326 325 325 325 323 325 327 327 328 328 326 325 321 322 324 324 330 334 335 336 333 331 330 329 327 326 328 327 327 327 326 326 326 326 326
320 319 318 318 318 321 322 320 317 322 325 326 326 326 326 327 329 328 327 326 325 319 321 324 324 331 334 334 334 331 330 329 328 327 327 327 326 326 325 325 325 325 325
316 317 316 315 315 315 315 315 315 316 318 321 319 322 325 325 325 326 327 325 326 326 320 321 323 324 330 332 334 332 330 329 328 328 327 327 326 325 325 325 324 324 324
312 312 312 312 311 310 309 307 307 310 309 313 314 314 317 324 325 324 324 326 327 326 325 320 320 321 324 330 332 334 331 329 330 328 327 326 325 325 325 324 324 324 324
310 310 310 311 310 308 307 307 306 306 305 306 306 306 312 321 324 325 325 326 326 325 323 324 321 317 319 326 330 332 334 331 329 328 328 328 326 325 324 324 324 324 324
309 310 308 308 309 307 307 308 307 306 304 305 303 305 306 311 317 325 327 324 325 324 324 324 324 322 318 321 326 331 333 334 332 331 330 328 326 324 324 324 324 324 324
310 309 308 307 307 306 308 307 306 304 304 306 301 300 299 303 309 313 319 323 326 326 323 323 323 322 319 319 322 327 331 334 334 331 330 328 327 325 324 324 324 325 325
310 310 309 308 308 307 305 307 306 304 301 305 307 301 295 295 302 304 311 313 319 323 323 321 321 321 320 317 318 324 322 324 331 331 329 328 327 326 325 324 325 324 325
309 309 309 308 307 307 306 307 305 307 306 301 304 303 306 302 295 295 302 304 312 312 314 319 319 320 320 321 318 315 316 317 321 327 328 327 328 327 325 325 325 324 325
308 307 307 307 306 306 307 308 308 308 306 305 303 302 304 303 303 299 295 298 303 310 313 311 312 320 320 320 319 317 312 312 316 322 326 326 327 326 326 325 325 325 325
305 305 303 304 304 304 303 305 307 306 305 305 305 304 302 300 298 299 298 299 298 303 306 308 309 314 318 318 317 313 310 310 313 318 322 324 325 326 326 325 325 325 324
300 300 301 302 300 300 300 300 301 302 301 300 302 302 302 302 302 301 299 298 297 300 301 304 309 311 313 316 318 312 313 307 309 314 317 320 321 323 324 324 324 324 324
298 299 298 298 298 298 298 299 299 299 300 300 301 301 300 302 302 302 300 298 295 297 299 300 305 311 311 313 313 309 314 306 306 309 313 315 317 318 319 320 321 321 321
297 297 297 296 296 297 296 296 298 298 299 300 301 302 301 301 302 303 303 301 297 292 293 298 299 306 311 310 310 312 312 310 306 304 306 309 313 315 316 317 317 317 317
296 296 295 295 295 295 295 296 296 296 297 298 298 299 299 300 300 302 301 301 300 296 293 297 298 302 308 309 310 309 310 307 305 302 302 304 308 312 313 314 314 314 315
295 294 294 294 294 294 294 294 294 295 295 295 296 296 297 298 297 298 299 299 298 297 293 297 299 301 302 307 306 307 307 306 308 301 299 301 303 305 308 309 310 311 311
294 294 294 293 292 292 292 292 292 292 292 292 294 294 295 295 296 297 297 297 297 298 295 293 297 298 300 303 304 305 304 306 305 303 300 299 300 301 303 304 305 306 307
293 293 293 292 291 291 291 291 291 291 291 292 292 293 293 294 293 295 295 295 297 296 296 294 294 297 298 300 301 303 303 304 303 302 299 297 299 300 301 302 303 303 303
292 292 291 291 291 290 290 290 289 290 290 290 291 291 290 290 291 292 293 294 295 295 295 294 294 294 296 298 299 299 296 298 298 298 299 297 297 299 301 301 302 303 302
291 290 290 290 290 290 289 289 289 288 288 287 287 287 288 288 288 288 289 289 290 292 293 293 292 293 293 294 294 298 297 296 292 293 293 291 295 299 302 301 304 302 300
289 289 289 289 288 288 287 287 287 286 285 284 283 285 286 286 287 287 287 287 287 288 287 289 291 291 293 294 296 296 296 290 289 290 290 288 291 291 297 302 300 299 298
289 288 288 288 287 288 287 287 285 284 284 283 283 284 285 286 286 287 287 286 286 286 285 287 285 289 292 295 296 295 295 292 292 289 289 284 286 286 286 291 296 296 296
287 287 287 287 286 286 285 285 284 284 283 283 284 284 285 285 286 286 287 287 288 288 289 288 288 289 291 295 294 295 296 294 287 288 289 283 283 284 285 287 293 295 294
286 286 286 285 284 284 284 284 283 284 283 284 284 285 285 285 286 286 285 284 285 287 289 289 289 289 289 289 290 291 291 289 283 284 285 283 281 281 284 284 285 290 292
285 286 284 284 283 283 284 285 285 284 284 284 285 285 284 284 284 284 284 284 283 285 286 287 289 288 289 290 288 290 289 290 286 282 285 281 281 281 279 283 284 285 285

GFSMA_sfc_thetae_006.txt.gz
Theta_e
324 323 322 321 321 321 320 320 319 318 317 319 320 320 319 320 323 325 325 326 324 326 331 334 336 337 338 337 336 335 333 330 329 329 331 331 331 330 330 329 328 328 327
322 322 320 319 318 319 319 321 320 321 321 321 321 322 322 320 322 324 325 325 322 323 325 328 332 336 337 338 335 334 333 331 330 328 329 330 329 329 329 328 327 327 327
316 315 314 314 314 315 315 315 315 315 317 321 321 322 323 323 323 324 325 325 324 322 322 323 327 329 334 338 337 334 333 331 330 329 329 329 328 327 328 327 327 326 326
315 313 312 311 310 311 310 307 307 308 311 313 316 316 316 319 322 323 323 325 324 324 322 322 323 325 327 332 335 335 333 331 330 330 329 328 326 327 327 326 326 323 323
312 309 310 310 309 307 306 304 303 303 302 303 304 308 307 310 314 320 322 322 323 323 323 322 321 321 323 327 333 335 335 333 331 330 329 328 327 326 326 325 322 322 324
309 308 308 308 307 306 305 304 303 303 303 302 302 301 302 304 311 317 320 323 323 323 323 321 321 317 319 323 326 332 333 336 332 330 330 329 328 326 325 322 321 323 324
309 308 307 306 307 305 304 304 303 302 301 303 300 299 299 301 302 305 314 320 322 322 322 322 321 321 316 320 323 328 330 333 336 333 331 329 328 326 324 323 324 324 324
309 308 307 305 305 304 304 304 303 300 301 301 299 297 294 296 301 301 303 311 314 318 320 322 321 321 321 319 316 323 328 332 335 335 331 328 326 326 324 324 324 324 324
310 309 308 306 305 305 303 303 302 301 298 300 300 297 293 291 295 298 299 300 302 308 315 318 321 321 320 320 318 318 318 321 330 334 332 329 327 326 325 324 324 324 325
308 308 307 307 305 304 303 303 304 302 300 297 299 302 299 297 293 292 296 298 299 299 305 313 316 318 319 319 318 315 311 313 319 328 331 330 328 327 326 325 324 324 325
306 306 306 306 304 304 303 301 301 301 301 299 298 298 297 298 298 295 292 295 297 298 299 309 310 310 312 317 317 316 311 309 313 321 326 329 329 327 326 325 324 325 325
303 304 303 301 301 300 299 298 298 298 298 297 297 297 296 294 294 294 292 293 294 296 297 298 304 306 310 313 315 312 310 308 309 314 321 325 327 327 327 326 325 325 325
299 299 299 298 298 297 297 297 296 295 295 295 294 294 295 295 296 295 293 291 291 294 296 297 297 301 307 309 310 309 311 306 307 310 314 319 322 323 325 325 325 325 325
298 298 297 297 297 297 296 296 295 294 294 294 293 294 295 295 295 295 293 292 290 291 294 293 296 298 304 306 309 309 313 307 304 306 308 312 316 318 319 321 322 322 323
297 298 297 296 296 296 295 294 293 293 294 293 293 294 294 295 296 295 295 294 291 287 289 293 292 296 297 305 306 307 308 308 306 304 304 306 310 313 316 317 318 319 320
296 296 295 295 294 294 293 293 291 292 292 292 293 292 293 293 294 294 294 294 295 293 289 293 294 293 295 298 305 304 305 306 304 303 302 303 305 309 312 314 315 315 317
295 295 294 293 293 292 292 291 290 291 290 290 291 291 291 292 291 292 293 293 292 292 289 292 295 295 293 293 296 302 303 303 305 302 300 300 301 302 304 310 311 312 313
295 294 293 293 292 291 291 290 289 289 289 288 289 289 289 291 290 291 291 291 291 292 291 289 292 293 292 292 293 294 301 303 300 302 300 299 299 300 300 301 305 307 309
293 293 292 291 291 290 289 289 289 288 288 288 288 288 288 288 288 289 289 289 290 292 291 290 290 293 293 291 290 291 293 298 300 301 298 297 298 299 299 299 300 304 305
292 291 291 290 290 289 289 289 288 287 287 287 288 288 287 287 286 286 287 287 288 287 288 289 289 290 291 292 290 288 288 292 293 299 298 297 297 298 298 299 298 301 305
291 290 289 288 288 288 288 287 286 285 285 285 285 285 285 286 288 287 286 285 285 285 286 286 287 288 288 288 287 288 287 288 290 291 293 294 293 297 299 298 299 300 302
289 288 287 287 286 287 288 288 287 284 283 283 283 283 284 285 285 286 286 286 285 283 283 283 284 285 286 288 288 287 286 284 288 287 289 291 288 291 292 298 299 298 299
287 286 286 286 285 285 288 287 286 283 282 282 281 282 282 284 285 284 285 286 286 286 284 283 281 283 284 286 288 286 285 285 289 287 288 286 286 287 287 291 294 296 298
285 284 284 284 284 284 286 285 285 282 282 282 282 282 282 282 283 284 283 283 284 286 286 286 284 284 285 286 287 289 287 286 287 286 285 285 283 283 285 287 293 295 297
284 284 283 283 282 282 285 285 284 282 282 282 283 283 283 282 284 285 284 283 282 283 287 289 288 288 288 287 287 287 284 285 285 284 285 282 281 281 283 284 286 292 293
282 283 282 283 284 282 284 285 285 284 283 283 284 284 285 285 285 285 283 282 281 282 283 284 284 286 288 287 288 287 285 283 284 282 284 279 280 281 279 283 284 285 286

GFSMA_sfc_thetae_012.txt.gz
Theta_e
317 317 316 313 314 314 314 313 317 318 315 313 314 314 314 315 317 318 319 322 324 327 329 332 333 334 335 336 337 337 337 338 337 336 335 334 334 334 334 333 332 331 330
315 316 314 314 312 313 312 310 309 309 309 311 314 316 316 316 319 319 318 319 322 324 326 328 331 333 333 335 335 335 336 336 336 336 335 334 333 333 332 332 331 330 330
310 311 310 309 310 310 310 307 306 304 303 305 303 306 312 313 312 314 317 320 321 322 324 326 328 330 330 331 333 335 335 334 335 335 334 333 332 332 331 331 331 330 330
310 307 306 305 304 306 305 299 299 297 297 297 297 298 303 302 302 303 306 312 319 323 323 324 327 327 328 330 330 332 334 335 334 334 333 333 332 331 331 330 330 329 329
308 304 306 304 303 303 300 299 298 298 296 297 298 298 297 296 298 301 301 305 312 316 319 322 323 324 326 327 329 330 331 333 335 335 333 332 332 331 330 329 329 329 328
307 302 304 303 302 301 300 299 297 298 298 297 300 298 296 297 297 297 298 304 306 311 308 318 320 321 321 325 327 329 330 330 333 331 333 333 331 330 329 329 328 328 328
305 302 301 303 302 300 299 299 298 297 296 297 295 295 295 295 296 297 297 298 301 302 307 304 311 319 321 321 324 327 329 330 330 331 333 331 330 328 328 328 328 327 327
304 302 301 301 300 300 299 299 299 297 296 296 294 292 290 293 294 296 298 297 297 299 301 303 305 310 316 317 318 321 325 327 328 328 329 329 329 328 328 328 327 327 327
304 303 301 301 299 299 298 297 297 296 294 296 295 293 289 287 293 295 295 297 297 296 297 300 302 306 312 314 316 317 311 311 320 324 326 326 327 329 328 328 326 326 326
303 303 302 301 300 299 298 298 298 296 295 293 295 298 295 293 289 288 293 296 297 297 296 297 298 301 306 313 316 311 308 307 309 317 322 324 325 326 327 328 327 326 326
302 303 302 301 300 299 296 294 293 291 294 292 292 291 291 291 291 288 286 289 293 295 296 296 296 297 299 301 306 310 309 307 307 314 317 320 323 323 324 326 327 326 325
297 298 299 297 296 296 295 294 293 292 292 293 292 291 291 288 288 287 286 287 287 291 293 295 294 294 294 296 302 305 308 307 307 309 314 317 319 321 322 323 327 327 326
295 294 294 294 294 294 295 295 295 294 294 293 291 291 291 291 291 290 288 287 287 290 292 294 294 294 296 295 297 302 305 305 304 306 308 311 315 317 318 320 321 324 326
295 295 294 294 295 296 296 296 295 294 294 292 291 290 290 291 291 291 289 287 285 287 289 290 293 294 294 295 296 301 301 303 303 304 306 308 310 312 313 314 314 317 323
295 294 295 295 296 296 296 295 293 292 293 292 291 290 290 291 291 291 291 290 287 283 285 289 290 294 294 295 296 296 299 303 303 303 303 304 306 308 308 309 310 310 313
295 295 296 297 296 295 294 293 292 291 290 290 290 288 289 290 290 290 290 290 289 286 283 288 289 291 293 295 297 297 295 300 301 301 300 300 302 304 304 305 306 307 307
295 295 295 295 294 293 293 292 290 290 288 288 288 288 287 288 287 288 288 288 287 287 284 286 289 291 291 291 293 295 296 295 296 298 296 298 298 299 298 299 301 301 303
293 294 293 293 292 292 291 289 288 288 286 285 286 286 286 287 286 286 285 285 286 286 285 283 286 287 288 290 291 292 294 296 295 297 298 298 298 297 296 298 296 296 298
292 291 291 290 290 290 289 288 287 286 285 285 285 285 285 285 283 283 283 283 284 286 285 284 283 286 287 288 289 290 291 292 293 296 296 296 296 297 296 296 295 297 297
289 289 289 289 289 288 287 286 286 284 283 283 283 283 283 283 282 282 282 282 283 282 283 282 282 283 285 286 287 286 286 288 288 291 295 296 296 295 295 296 296 297 297
290 288 287 286 285 285 285 284 283 282 281 281 282 282 282 283 286 286 284 283 282 281 281 280 280 281 282 282 283 284 284 284 286 286 288 290 290 290 292 295 296 296 296
288 286 284 283 283 284 286 287 285 281 281 281 280 281 281 283 283 284 285 285 284 281 280 280 280 279 280 281 283 283 284 284 282 282 284 284 286 286 289 289 293 294 295
283 282 281 281 281 281 285 286 286 282 281 281 280 280 280 282 283 282 283 284 284 285 283 281 280 280 280 282 282 281 281 281 282 285 286 285 284 286 285 288 292 291 292
281 280 280 281 280 281 285 285 285 282 281 281 281 281 281 281 282 282 282 281 282 282 282 282 282 283 283 284 283 283 282 282 282 284 287 283 284 281 275 280 288 291 291
279 279 280 279 279 280 283 284 283 280 280 281 282 281 282 282 283 285 282 282 282 281 284 286 286 286 286 286 286 283 281 280 278 280 283 284 285 278 277 276 280 287 288
279 279 280 279 280 278 282 283 282 280 278 279 280 281 282 282 283 284 282 281 280 281 282 282 282 284 285 285 286 285 283 280 279 276 280 282 281 280 282 271 274 276 278

GFSMA_sfc_thetae_015.txt.gz
Theta_e
315 315 315 313 312 313 312 311 312 312 311 311 312 313 314 314 315 315 316 321 322 322 327 330 330 331 332 335 335 335 336 336 336 336 336 335 335 334 334 333 333 332 331
315 315 313 312 311 312 310 308 307 306 305 307 307 308 311 313 313 313 313 314 319 321 322 324 328 331 331 332 333 334 334 335 336 336 335 334 334 333 333 333 332 331 331
312 313 312 311 310 309 308 306 303 299 299 300 299 300 305 307 303 303 304 308 312 319 321 324 322 324 329 331 331 332 333 334 334 334 334 334 334 333 332 332 332 331 331
309 308 307 307 306 307 305 298 297 296 296 296 296 297 297 298 298 300 300 302 306 313 318 318 320 322 325 327 329 330 332 332 333 334 334 333 333 332 332 331 331 331 331
309 306 305 304 302 302 301 298 297 296 295 295 296 296 295 295 296 299 298 300 302 306 308 311 314 317 319 323 328 329 329 330 332 333 333 333 333 332 331 331 331 331 331
307 303 304 304 301 300 299 297 297 297 296 296 298 297 295 295 295 295 295 300 300 302 300 307 303 308 315 320 321 325 329 329 330 331 332 333 333 332 330 330 330 330 330
306 303 302 303 301 299 299 298 297 296 296 295 293 293 294 295 294 295 296 296 298 299 300 300 301 304 308 316 317 316 316 326 325 330 330 331 331 330 330 329 329 329 329
306 304 301 302 302 299 298 298 297 295 295 295 293 291 289 291 292 295 295 296 296 297 298 299 300 301 304 307 310 317 313 313 314 316 318 324 327 328 329 330 329 329 329
306 304 302 301 301 301 299 297 297 296 294 294 295 293 287 286 289 292 293 294 294 294 295 296 297 299 300 304 310 312 310 308 308 310 313 316 321 325 326 329 329 329 328
304 305 304 301 300 300 297 296 297 295 294 292 293 297 293 292 285 283 289 290 290 292 293 294 295 297 298 300 302 305 307 307 308 305 308 311 312 322 324 326 327 328 328
301 303 303 303 301 300 298 296 293 291 292 290 291 289 289 289 289 286 283 285 289 289 291 292 294 294 295 296 295 299 304 305 307 308 306 307 312 312 320 323 324 324 327
297 299 300 299 297 295 292 292 294 293 293 293 293 292 291 288 286 285 283 285 286 288 290 291 291 292 293 294 298 302 301 301 303 308 308 307 310 314 314 321 323 324 324
292 292 294 294 293 295 295 296 295 295 295 293 293 292 292 291 291 289 286 286 285 287 288 291 291 292 294 294 295 299 300 300 301 305 308 309 311 313 315 317 319 319 321
291 292 293 295 296 296 296 295 295 294 295 294 292 292 291 290 290 290 287 285 284 285 287 286 290 291 292 292 295 299 297 299 301 301 304 308 309 310 311 312 314 313 313
293 293 294 295 296 296 297 296 294 293 293 292 291 290 288 288 289 289 290 289 285 281 282 286 286 290 292 293 295 295 295 297 299 299 299 302 305 308 308 308 309 310 310
293 294 295 296 296 296 295 294 292 292 291 290 290 288 288 288 289 289 289 289 288 285 281 285 287 287 289 292 294 294 295 298 297 297 298 299 300 302 303 304 306 307 307
294 294 294 295 295 293 293 292 291 290 289 288 288 287 287 287 287 286 287 287 286 286 282 284 286 288 287 287 289 291 293 294 295 296 296 296 297 297 299 299 299 301 301
294 293 292 292 293 292 291 289 288 287 286 285 285 285 285 287 285 285 285 284 284 285 283 281 284 285 285 287 288 289 291 293 293 294 295 296 297 297 296 295 295 296 297
292 291 290 290 289 289 288 287 286 285 285 284 284 284 284 284 282 283 283 282 283 284 284 283 282 284 285 285 286 287 288 289 291 294 293 294 295 297 296 295 296 294 294
290 289 289 289 288 286 285 285 284 283 282 282 282 282 282 281 281 281 281 281 282 281 281 281 281 281 282 285 284 283 283 286 287 290 292 292 293 295 296 296 294 294 297
292 288 286 284 284 284 284 283 283 282 281 281 281 281 281 282 285 284 282 281 281 281 280 280 280 280 280 280 280 281 281 283 285 286 287 289 289 291 294 295 296 297 296
288 285 284 283 282 283 285 286 285 281 281 281 280 281 281 283 282 284 284 284 284 281 280 280 280 279 280 281 281 281 280 279 279 282 285 286 287 287 288 290 294 294 295
283 282 281 281 281 281 284 285 285 282 280 280 280 280 280 282 283 282 282 283 283 284 283 282 280 280 279 280 281 280 281 280 280 282 282 282 282 285 288 288 291 293 293
281 280 280 280 280 281 283 284 284 281 279 280 280 280 281 280 281 282 282 281 281 282 282 282 281 282 282 282 283 282 281 281 281 281 282 280 282 284 279 282 288 291 292
279 279 280 280 279 279 282 282 282 277 278 278 280 280 280 280 282 284 281 280 280 281 284 285 286 284 285 285 285 283 281 280 278 278 277 280 279 281 281 280 282 288 290
279 280 279 279 279 277 280 282 281 278 278 278 279 281 282 281 283 283 281 281 279 280 281 282 282 284 285 284 285 284 283 279 279 277 277 278 277 277 277 274 274 275 277

GFSMA_sfc_thetae_018.txt.gz
Theta_e
316 316 315 313 313 312 311 311 311 310 310 309 310 311 312 313 313 312 311 314 315 317 320 324 327 330 331 331 333 333 333 334 336 336 336 335 334 334 334 334 333 333 332
315 314 313 312 311 312 310 308 306 304 303 305 303 303 304 311 305 304 304 305 312 317 320 319 321 323 325 330 331 332 332 333 333 335 335 334 333 333 333 333 333 332 332
313 313 312 310 311 310 308 306 304 299 298 299 298 300 302 303 301 301 302 304 306 314 315 316 314 316 319 323 327 330 331 332 333 333 334 334 334 333 332 332 332 332 332
311 310 310 309 310 308 307 301 298 296 296 296 296 297 297 298 299 300 300 302 303 307 308 311 312 312 314 316 322 327 329 330 332 332 332 333 333 333 332 331 331 332 332
310 307 306 307 306 304 304 299 297 296 295 295 295 296 295 296 297 299 298 300 301 302 303 308 308 309 311 314 318 321 324 328 329 329 331 331 332 332 332 331 331 331 331
307 306 305 304 303 301 300 297 296 296 296 296 297 297 295 296 296 295 296 300 299 301 300 302 301 303 307 309 310 315 319 319 324 325 326 324 329 331 328 331 331 331 331
306 305 303 303 303 300 300 298 296 295 295 295 294 293 294 295 295 295 296 297 298 299 300 300 300 301 301 306 309 313 316 318 314 315 318 318 320 323 326 329 330 330 330
306 306 304 302 302 301 298 297 296 295 295 295 293 291 289 292 293 294 295 296 296 298 298 298 299 299 299 301 303 306 306 308 311 311 311 313 315 317 320 326 330 329 330
304 304 305 303 301 302 301 299 297 296 295 294 294 293 288 287 289 292 293 293 295 293 295 296 296 297 299 300 301 301 302 304 308 312 310 309 311 313 315 319 326 329 330
301 303 304 303 301 301 301 299 297 296 294 292 293 296 293 292 285 284 288 292 290 291 292 293 294 295 297 297 298 299 301 303 303 304 308 310 309 311 314 315 319 325 329
298 300 301 303 301 299 300 298 296 295 294 293 290 289 289 290 290 286 284 286 289 290 291 292 293 294 295 296 295 296 301 301 302 303 305 308 309 309 311 313 315 323 325
296 296 297 297 296 293 292 293 294 294 293 294 293 292 291 289 287 287 284 286 285 289 291 292 292 293 294 294 296 300 300 300 301 303 304 309 311 308 309 312 314 318 324
291 290 292 293 294 294 294 294 294 294 295 294 294 293 294 292 292 289 287 286 284 287 288 291 292 292 293 294 294 298 299 299 299 300 301 301 306 310 309 310 311 313 317
290 292 293 294 294 294 294 295 296 295 296 295 293 292 290 291 292 291 289 286 283 284 285 286 289 291 292 293 294 298 296 297 297 298 299 301 302 304 307 311 310 310 313
293 292 293 293 293 295 296 296 294 293 293 292 292 292 292 292 291 291 290 288 286 281 281 285 285 290 291 292 293 295 294 295 297 297 298 298 300 302 304 307 308 310 311
292 292 292 293 293 294 295 294 293 293 292 292 291 290 289 289 289 289 289 288 287 285 281 285 286 287 289 291 293 293 293 296 294 295 296 297 298 299 299 302 304 307 308
292 293 293 293 293 293 292 292 291 291 290 289 288 287 286 287 286 286 287 287 286 285 282 284 286 287 287 287 289 290 291 291 293 295 295 296 296 297 297 297 298 300 303
293 292 293 292 291 290 290 288 287 287 286 285 285 284 284 286 284 285 285 284 284 285 283 281 284 284 284 287 287 288 290 292 291 292 293 293 294 294 295 296 295 296 298
291 292 291 290 290 289 288 286 286 285 284 284 283 283 283 283 282 282 282 282 282 284 283 282 281 284 284 285 286 287 287 288 290 292 292 292 293 294 295 296 295 295 295
292 292 291 289 287 285 285 284 284 283 282 282 282 282 281 281 280 280 280 280 281 280 281 280 280 281 282 283 284 283 283 285 286 288 290 290 291 293 294 295 295 295 295
291 288 286 284 284 283 283 283 282 282 281 281 282 282 281 282 284 283 282 281 281 280 280 280 280 281 281 281 280 282 281 283 284 285 286 287 289 290 291 294 296 296 294
290 285 283 282 281 283 285 285 285 282 282 282 280 280 281 282 282 283 284 284 283 281 280 280 279 279 279 280 282 281 280 279 278 284 284 284 287 287 289 290 292 294 295
282 281 281 281 281 281 284 284 284 281 281 281 280 280 280 281 282 281 282 283 283 283 282 281 280 280 280 281 281 280 280 280 279 282 283 282 285 285 287 289 290 291 293
280 279 280 280 280 280 283 283 283 280 279 279 279 280 279 280 281 281 281 281 281 282 282 282 281 281 282 283 283 282 282 281 282 282 283 279 283 282 284 286 288 290 291
279 279 280 280 279 278 281 282 282 278 277 278 280 280 280 281 282 283 281 279 280 281 284 285 285 285 285 285 285 283 280 280 278 279 281 280 281 281 282 284 286 288 289
279 280 279 278 278 277 280 281 281 278 276 279 280 281 281 281 282 283 282 281 280 281 282 282 283 283 285 285 285 284 283 279 279 278 279 279 280 280 279 281 284 285 285

GFSMA_sfc_thetae_024.txt.gz
Theta_e
333 333 332 331 329 329 327 327 326 326 324 322 320 319 318 320 321 318 319 313 315 317 318 320 321 323 324 325 327 329 331 331 333 334 334 334 334 335 335 334 334 334 334
333 330 327 326 325 326 325 325 325 324 320 318 316 315 314 317 316 314 314 316 316 314 316 315 316 317 318 319 322 324 326 329 331 332 332 333 333 333 333 333 333 333 334
330 329 325 324 323 324 327 327 325 323 320 317 314 313 313 316 314 313 313 314 312 311 314 311 312 313 315 316 318 321 324 325 328 330 331 333 332 332 332 331 331 332 334
329 327 323 323 324 324 324 323 322 320 319 316 314 312 312 313 314 313 313 313 313 312 312 310 311 310 311 311 313 315 319 320 321 326 328 330 331 331 331 332 331 331 332
325 325 323 323 324 323 322 322 320 320 317 315 313 313 313 312 312 311 312 312 313 311 312 310 309 308 307 306 309 312 315 319 319 318 321 322 324 325 328 330 331 331 331
321 322 321 321 322 321 320 320 320 320 318 315 311 310 312 313 313 312 311 311 312 312 311 311 310 307 304 302 305 307 310 312 315 315 313 314 316 319 321 324 328 330 331
319 319 318 319 320 319 320 320 319 318 317 317 313 311 311 313 313 312 312 311 311 311 311 311 310 309 307 303 304 303 305 307 308 309 311 313 310 313 315 318 322 324 327
317 316 317 316 317 317 318 318 318 316 316 316 311 309 305 308 311 311 312 311 311 310 309 310 308 307 306 307 306 301 302 303 305 307 307 309 312 312 312 313 317 321 323
314 314 315 315 315 315 314 316 316 315 312 315 315 309 304 302 307 311 310 310 310 309 309 309 306 305 305 305 303 304 301 299 301 304 305 306 307 308 311 312 313 316 319
312 312 312 313 314 313 313 313 313 314 313 310 313 314 312 310 304 302 306 308 309 308 308 307 305 305 305 305 304 303 301 300 300 300 303 305 307 308 310 312 312 313 315
310 310 311 311 311 311 311 312 312 312 311 310 309 309 308 307 308 302 301 302 306 306 305 304 304 305 305 305 305 304 300 300 301 300 303 302 304 305 307 310 313 312 312
307 308 309 309 309 309 308 308 308 307 307 306 304 303 301 298 298 299 299 301 299 300 302 302 303 303 304 304 303 300 299 300 300 300 301 300 301 303 305 306 312 313 312
305 306 307 307 307 307 306 304 302 301 299 297 296 295 293 292 292 290 290 291 292 296 297 300 301 302 301 302 302 299 301 299 299 300 298 299 300 300 300 302 304 307 310
304 306 306 305 304 304 302 301 302 297 294 293 292 291 291 291 292 291 290 289 289 291 294 296 300 301 300 301 301 297 299 297 298 298 298 299 298 297 298 299 302 303 305
303 304 304 303 303 301 301 301 299 298 297 297 297 296 295 295 294 294 293 292 289 286 289 294 295 299 299 299 299 299 299 298 297 297 297 297 296 295 296 299 300 300 302
303 301 301 299 297 297 296 298 297 297 296 296 296 295 294 295 294 294 293 293 291 289 287 291 292 294 296 295 296 297 297 297 296 296 295 296 295 295 297 298 297 297 298
299 297 297 295 294 294 295 295 295 295 294 294 294 293 293 294 293 293 293 292 291 290 287 290 292 294 294 294 295 296 297 296 297 295 294 295 294 295 296 295 295 295 295
298 296 294 294 295 295 295 295 294 293 292 292 292 292 291 290 291 292 291 291 291 291 289 287 290 291 292 294 294 294 293 294 295 294 294 294 295 295 294 293 293 293 294
297 297 297 296 295 294 293 293 292 292 292 291 291 290 290 290 290 290 290 289 289 289 289 288 287 290 291 292 291 292 292 293 293 294 293 292 293 293 293 292 292 293 293
297 297 296 295 295 293 292 291 290 290 290 290 290 290 289 289 289 288 288 288 287 287 288 287 287 287 289 290 291 289 289 292 291 292 292 291 291 292 292 293 293 293 293
296 296 294 293 292 291 289 288 288 288 288 288 288 288 288 288 286 286 286 286 287 286 286 284 283 284 285 285 285 287 286 288 290 291 291 291 292 293 294 292 292 292 292
292 292 291 291 290 289 285 284 285 286 286 286 286 287 287 287 287 286 285 285 284 283 282 282 282 282 283 285 286 285 286 286 284 291 290 290 291 291 292 294 292 292 292
291 290 290 290 289 289 284 283 283 285 286 286 287 286 286 286 286 285 284 284 284 283 283 283 282 282 283 284 285 284 285 285 285 288 288 287 291 289 291 290 291 291 291
290 289 289 288 288 287 284 283 282 285 286 286 286 286 285 284 284 283 283 283 284 284 285 285 285 286 286 286 286 286 286 286 287 288 288 284 289 288 291 291 290 291 290
288 288 287 287 286 286 284 282 282 284 284 284 283 284 284 284 284 284 284 283 284 285 286 286 286 286 286 286 286 287 285 284 284 285 289 286 287 287 289 290 293 290 290
287 287 285 286 284 284 283 282 282 283 281 282 283 284 284 284 283 283 283 283 282 282 283 285 285 286 286 286 285 287 287 283 284 283 287 285 285 285 283 290 291 292 293

GFSMA_sfc_thetae_027.txt.gz
Theta_e
331 330 330 328 327 327 326 325 325 324 325 324 322 320 319 319 320 320 318 315 314 317 319 321 322 324 324 324 325 327 329 331 332 332 334 334 334 333 333 334 334 334 334
330 328 327 325 324 324 324 324 322 322 322 321 320 319 317 315 316 319 315 316 318 315 317 317 318 318 318 320 322 323 324 327 329 331 332 333 333 333 332 332 332 333 334
328 327 325 324 323 324 328 324 324 323 322 321 319 317 315 316 315 316 314 314 315 313 317 313 314 315 316 316 316 319 322 322 325 328 330 331 332 331 331 332 332 333 333
327 327 324 323 324 325 323 322 321 320 320 319 318 317 316 315 315 316 315 314 314 313 313 314 312 313 312 312 312 315 318 319 322 323 326 328 329 329 330 330 331 331 332
325 324 323 323 325 322 323 323 322 323 319 319 317 318 317 314 315 313 314 315 316 314 313 314 314 312 310 308 309 311 314 317 319 316 318 320 321 324 324 327 330 331 331
322 322 321 322 323 321 322 322 324 321 321 320 317 316 319 317 317 316 314 313 314 315 314 313 310 307 309 306 306 308 311 311 312 314 313 312 313 316 318 321 324 327 330
320 320 319 319 321 319 321 323 322 321 320 322 318 318 318 319 318 315 317 315 314 314 315 314 313 311 306 308 306 306 307 309 309 309 310 312 313 311 313 314 318 320 323
318 316 316 315 315 315 318 319 320 317 319 321 315 314 309 313 316 316 315 315 316 314 313 313 313 313 311 307 308 306 304 305 305 307 308 307 309 311 313 313 314 316 319
315 315 314 313 314 315 314 316 316 315 313 316 318 313 307 305 310 315 314 314 315 315 314 313 312 312 310 308 307 305 305 303 303 304 305 306 307 308 309 310 313 314 315
313 312 311 312 312 312 313 313 312 315 314 310 313 312 312 311 305 305 310 310 312 311 314 313 312 311 309 307 309 305 304 301 301 302 303 304 306 307 308 310 311 313 314
310 309 310 310 311 310 312 311 311 310 309 308 308 307 306 305 307 300 300 306 307 309 309 309 310 309 308 307 306 307 302 302 301 301 302 303 304 305 306 307 307 310 313
308 308 308 308 309 309 309 308 308 306 305 304 304 302 298 296 297 293 294 298 299 305 306 307 306 306 307 307 306 303 302 302 302 301 301 303 302 303 304 305 306 308 312
304 305 306 307 307 307 305 304 303 302 301 298 297 295 294 292 292 291 290 290 289 294 297 300 303 304 303 305 305 303 301 300 300 301 301 301 301 301 302 302 303 305 307
303 305 306 305 304 302 301 301 300 299 298 295 294 294 295 295 295 293 291 290 289 291 294 295 301 302 303 303 302 299 300 299 299 300 300 299 299 300 299 299 300 301 304
303 305 302 298 297 298 298 297 297 297 298 298 297 296 295 295 295 295 294 293 289 286 288 294 294 300 302 302 302 301 301 300 299 298 298 299 298 298 298 297 298 299 301
303 301 298 297 297 296 296 297 296 296 295 295 296 296 296 296 296 295 293 293 292 289 286 291 293 296 297 296 298 298 298 299 297 297 297 297 298 297 297 296 296 298 299
299 299 299 297 296 297 297 297 297 296 294 294 294 294 293 294 294 293 294 294 293 292 288 290 292 295 296 296 296 298 298 298 298 296 295 296 296 296 295 295 296 298 297
300 299 298 298 297 297 296 295 294 293 293 292 293 293 291 291 291 292 291 291 291 291 290 288 291 291 293 295 295 296 294 295 297 295 296 295 295 295 294 294 295 294 294
298 298 297 297 296 295 294 294 293 292 292 291 291 290 290 290 289 290 290 290 290 289 290 289 288 291 292 293 293 294 294 295 294 295 294 294 294 294 295 295 294 293 293
297 297 297 295 294 293 292 292 292 290 290 290 290 290 289 289 289 289 289 289 288 288 288 288 288 289 290 291 292 290 290 293 293 293 293 292 293 293 293 293 293 293 293
295 294 293 293 293 292 290 290 289 288 287 287 288 289 289 290 288 287 286 286 286 285 286 286 286 287 287 286 287 289 288 290 291 292 292 293 294 293 294 293 293 293 292
293 293 292 291 291 290 285 284 285 286 285 286 286 287 289 289 288 287 287 286 285 283 282 283 283 283 284 285 286 286 287 286 284 292 289 290 292 291 292 294 292 292 291
292 291 291 290 290 290 284 284 284 285 284 285 286 287 286 287 287 287 286 285 285 285 283 283 282 282 283 285 285 285 285 286 285 288 289 287 292 290 293 291 291 291 291
290 290 289 289 289 288 285 283 283 284 285 285 286 285 285 285 286 285 284 284 284 285 286 286 285 285 286 288 287 287 287 287 288 289 290 284 290 289 291 292 291 291 291
289 289 288 288 286 286 286 283 283 283 283 283 283 284 284 284 285 285 284 283 283 285 287 287 287 287 286 286 287 286 284 282 283 285 289 287 288 288 289 290 292 291 291
288 288 287 286 285 284 285 283 283 283 281 282 283 283 283 284 284 284 284 282 281 282 284 284 285 286 286 287 286 286 285 282 282 282 287 285 286 287 284 290 291 292 292

GFSMA_sfc_thetae_030.txt.gz
Theta_e
329 328 326 325 324 323 321 321 319 320 320 321 321 319 317 316 316 315 314 317 317 317 318 323 326 327 328 328 328 330 331 332 332 333 335 334 333 334 334 333 333 332 332
328 326 324 323 321 321 320 319 318 319 318 319 317 317 315 314 312 311 314 311 317 320 319 320 322 324 323 322 323 324 327 329 330 331 333 332 332 332 332 332 332 332 333
326 324 323 322 321 322 321 321 320 319 318 318 316 316 315 314 312 311 312 311 313 317 319 320 319 319 319 321 320 321 324 324 326 328 330 332 331 331 330 331 332 333 333
324 323 322 321 322 322 320 319 318 317 316 315 314 314 313 312 311 311 312 310 310 309 315 319 318 317 318 317 316 317 320 321 325 326 327 329 329 329 330 329 331 332 333
323 321 319 320 322 319 319 318 316 316 314 314 315 314 314 312 311 312 310 311 310 310 308 317 316 317 317 315 315 316 319 320 321 320 320 321 323 324 324 325 329 330 331
321 319 318 318 319 317 316 316 316 316 315 315 316 315 314 315 313 310 309 311 310 310 309 309 310 310 315 314 313 314 317 320 321 318 316 315 314 315 317 320 322 325 328
318 316 315 315 314 313 313 313 312 311 312 314 313 312 312 313 313 313 312 309 309 310 309 309 307 306 307 314 312 312 315 316 316 315 314 313 314 312 312 313 315 319 321
316 314 313 312 312 310 310 310 310 309 309 310 308 308 304 306 309 312 313 311 309 310 309 310 309 307 304 303 304 312 312 313 313 312 311 311 311 312 312 312 313 314 316
315 314 311 310 310 309 307 307 307 306 305 307 307 305 301 299 303 307 308 310 311 311 310 310 309 308 307 303 306 308 309 310 309 309 310 309 309 309 309 310 310 313 314
311 309 309 308 307 308 306 306 307 306 304 302 304 307 304 302 298 298 304 306 310 310 310 310 310 310 308 306 306 305 304 305 306 305 306 307 307 308 308 309 310 311 312
309 308 306 305 305 305 305 305 304 302 302 300 299 298 297 297 299 297 295 297 303 304 305 306 305 306 306 306 305 305 304 302 302 304 302 303 304 306 307 307 307 308 309
305 304 305 304 305 304 302 302 301 301 300 298 296 296 295 293 292 291 290 291 291 296 298 299 301 304 306 303 306 305 303 301 302 303 302 302 303 304 304 304 306 306 307
302 301 303 302 301 300 300 300 300 298 298 296 295 294 294 293 292 291 289 289 289 293 295 296 297 301 303 303 303 303 303 300 301 302 301 301 302 303 302 303 303 303 305
300 301 301 299 298 299 298 298 297 297 297 296 294 294 294 294 294 293 291 289 287 288 292 293 300 301 301 302 302 301 300 299 299 300 301 302 301 301 301 301 300 300 301
302 300 298 297 297 296 297 297 296 295 295 294 294 295 295 295 293 293 293 291 288 284 284 289 292 297 300 300 300 301 299 300 299 298 299 300 300 300 300 299 299 298 298
300 298 298 297 296 295 295 295 295 295 295 293 293 293 293 294 294 294 294 293 291 288 284 288 290 292 293 295 298 298 297 300 299 297 297 298 298 299 299 299 298 297 296
299 298 298 296 296 297 296 294 293 293 293 293 292 292 291 292 291 291 290 291 291 290 286 288 290 291 291 291 293 294 296 294 293 296 295 296 296 296 297 297 296 296 296
298 298 297 297 297 295 295 293 292 292 291 290 290 289 289 290 287 288 288 287 287 288 286 284 286 287 289 290 291 291 293 294 292 295 296 295 296 295 295 295 294 294 295
297 297 296 295 295 295 293 291 290 290 289 287 287 287 287 287 286 286 287 287 287 288 286 285 284 285 286 287 288 288 289 289 292 295 294 294 295 295 295 295 294 294 294
296 295 294 293 292 291 290 290 289 287 286 286 286 286 286 286 285 285 284 283 285 283 283 282 283 284 284 286 286 285 284 287 287 292 293 291 293 294 295 295 294 294 294
294 293 292 291 290 290 287 285 285 284 284 283 284 285 286 288 290 287 285 283 282 281 281 281 280 281 282 282 282 283 282 282 284 287 286 287 287 288 290 293 293 294 293
292 291 289 289 289 289 285 285 284 282 283 282 281 283 285 287 287 288 288 287 285 281 279 279 279 278 280 281 282 281 281 280 280 285 283 282 286 285 287 288 292 292 292
290 288 288 288 287 287 285 285 284 282 281 281 282 282 283 285 285 284 284 285 285 285 283 281 279 280 279 281 281 281 280 281 281 283 284 282 281 284 286 290 292 292 292
287 286 286 287 285 286 287 284 284 281 280 281 281 281 281 281 282 283 282 281 283 283 284 285 284 282 283 284 285 285 285 284 284 284 284 281 281 284 283 285 291 293 292
286 286 286 285 283 283 285 286 283 280 280 279 280 281 281 281 283 285 282 280 281 281 286 287 287 287 287 287 286 284 280 279 278 279 283 284 282 282 283 285 285 291 291
286 286 284 284 285 282 286 285 284 281 277 279 279 281 282 282 283 282 281 280 278 279 280 282 282 282 284 284 285 284 283 280 279 278 281 281 281 280 279 283 286 284 283

GFSMA_sfc_thetae_033.txt.gz
Theta_e
320 320 319 319 317 316 316 315 315 316 315 316 317 317 316 314 313 311 311 318 319 321 320 322 324 327 329 329 330 331 332 333 333 334 335 334 334 334 335 334 333 333 332
319 319 317 317 316 316 315 314 313 313 314 315 315 315 314 312 311 310 309 310 317 319 321 321 322 325 327 328 326 326 328 330 331 332 334 333 333 333 332 333 333 332 332
318 317 316 316 316 317 315 315 314 314 314 315 314 314 314 313 311 309 308 309 310 318 319 322 323 323 324 324 324 324 326 328 328 329 331 332 332 331 331 331 331 332 333
318 316 315 314 316 316 315 314 314 313 312 312 311 312 312 311 310 310 309 308 309 311 315 319 322 323 322 321 323 322 323 324 326 327 328 329 330 330 330 328 329 331 332
317 314 313 313 314 314 314 313 313 311 311 311 312 312 310 310 310 312 309 308 307 309 307 315 319 319 321 321 320 319 319 322 324 325 325 326 327 327 326 326 328 329 329
315 312 312 311 312 310 309 309 308 308 309 309 312 313 312 311 311 310 308 309 309 308 307 306 313 313 317 320 319 318 319 321 323 322 322 322 322 321 321 322 322 324 327
313 311 310 309 308 307 306 306 306 305 305 307 306 307 306 308 308 309 310 308 308 309 308 307 308 309 310 318 318 317 318 319 320 323 319 317 316 315 315 315 316 318 321
311 310 307 306 305 305 305 304 303 301 302 303 301 302 298 302 303 306 306 308 307 308 310 311 308 307 306 309 310 317 316 317 320 320 318 316 316 315 314 314 313 314 314
307 305 304 304 303 303 302 301 301 301 299 301 301 299 296 294 298 302 303 305 305 306 307 311 311 308 305 303 308 310 312 314 318 316 315 313 313 312 311 311 311 312 313
305 304 302 302 302 302 301 301 302 299 299 295 298 299 297 297 293 292 298 299 298 300 299 302 307 310 310 307 305 306 306 308 313 314 312 312 310 309 309 309 310 310 311
303 302 302 301 301 301 299 298 298 298 300 298 296 295 295 292 291 288 287 290 294 296 297 298 300 304 307 308 306 305 306 304 306 310 310 308 307 307 307 308 307 307 308
300 300 301 300 299 298 298 297 296 298 295 295 295 293 292 290 290 289 288 289 289 292 293 295 296 301 302 304 306 304 304 302 303 306 307 305 304 304 305 305 305 306 306
297 298 298 297 296 296 296 296 296 294 294 293 293 292 292 290 292 291 290 289 287 289 289 293 296 299 301 302 302 303 303 301 301 303 304 304 303 304 303 302 303 304 304
296 297 296 296 295 295 295 294 293 294 292 292 291 294 294 294 294 291 290 288 284 286 286 287 294 295 296 298 298 300 301 300 300 300 301 302 302 302 301 300 301 301 301
298 296 295 295 294 294 293 293 292 291 291 291 291 291 291 291 293 293 293 291 287 282 282 286 286 291 293 295 297 297 298 299 299 298 298 300 301 301 300 299 299 299 299
296 296 295 294 293 293 294 292 291 291 291 290 290 289 289 290 291 292 292 291 291 288 283 286 289 289 292 293 296 296 296 296 297 298 297 298 299 300 300 300 300 299 298
294 294 295 296 296 296 296 293 292 291 291 290 289 289 288 289 287 287 288 287 288 289 285 287 289 291 288 289 291 293 295 294 294 297 296 297 297 297 298 298 298 298 298
295 295 297 296 295 294 294 293 290 289 287 285 285 284 285 287 284 285 285 284 284 284 283 281 282 284 285 287 287 288 291 293 293 295 296 296 296 296 296 295 295 295 296
294 293 294 294 293 292 290 288 287 286 285 284 284 284 283 283 283 283 284 283 283 285 282 280 280 282 283 284 286 286 286 287 290 294 293 294 295 296 296 295 295 294 294
293 292 291 291 290 288 287 286 285 283 283 283 283 283 283 283 282 283 284 283 283 281 280 279 279 280 281 283 284 282 282 284 285 289 291 290 291 293 295 295 294 294 294
290 290 289 288 287 286 285 283 282 281 281 281 281 282 282 284 287 287 285 283 281 279 278 278 278 278 278 278 279 280 279 280 281 284 284 285 285 286 287 291 293 294 294
290 288 287 286 284 285 286 285 283 280 280 280 279 280 281 283 284 285 286 285 284 281 280 279 279 277 278 279 280 278 278 277 277 282 281 279 283 283 285 286 290 292 293
285 286 285 284 283 282 286 285 285 280 279 278 278 279 279 281 282 282 283 284 284 285 283 281 278 278 278 280 280 279 278 277 278 280 280 280 277 280 283 288 291 292 292
284 284 283 283 282 284 286 286 286 280 279 279 279 279 278 279 280 281 280 280 281 282 283 283 282 281 282 282 282 283 282 283 283 282 283 279 280 281 281 283 289 292 292
283 283 283 282 281 281 285 286 284 279 279 279 280 279 279 279 281 283 281 278 279 280 284 285 286 286 286 286 287 285 281 280 278 279 279 280 280 281 279 280 282 289 290
284 283 282 282 284 280 284 285 282 275 275 278 278 279 280 280 281 282 280 279 276 277 278 279 280 282 283 283 284 283 281 279 279 279 282 279 279 278 274 278 283 284 283

GFSMA_sfc_thetae_039.txt.gz
Theta_e
317 318 318 316 314 313 312 311 311 311 311 312 312 312 312 312 312 312 311 317 321 325 326 326 327 327 326 329 331 330 330 331 332 333 335 334 334 334 333 333 332 332 332
316 315 314 314 313 313 312 311 310 310 310 311 311 312 312 312 312 311 310 309 316 320 323 324 325 326 326 327 329 331 329 329 330 331 333 334 333 332 332 332 332 332 331
316 314 313 312 312 311 310 310 309 308 307 308 307 309 310 310 310 310 310 309 309 314 318 321 322 326 326 325 327 329 328 326 327 328 330 333 332 331 331 330 331 332 332
315 313 311 310 310 308 307 306 306 304 304 304 303 304 305 307 308 308 309 308 306 307 310 315 319 321 325 325 323 324 326 326 326 326 328 330 331 331 331 330 330 331 331
312 309 308 306 306 306 305 304 303 302 302 300 303 302 301 304 305 308 307 307 307 306 306 310 313 315 318 322 323 324 324 325 325 324 325 327 327 329 330 329 329 330 329
310 308 305 306 307 305 302 301 301 300 300 300 303 302 301 301 302 302 301 304 305 305 305 306 306 307 311 315 318 322 324 324 324 323 323 324 325 326 329 327 327 328 328
306 305 304 302 302 301 300 300 300 298 298 299 297 298 299 299 298 296 298 300 302 301 299 300 300 302 305 310 313 316 321 324 324 324 325 325 325 325 325 324 324 324 324
302 301 300 301 303 302 301 299 298 298 298 297 295 294 291 294 295 296 295 297 295 297 297 297 298 298 300 305 307 312 313 317 322 324 324 324 325 324 322 321 319 318 318
301 300 300 300 299 299 298 296 296 295 294 295 295 293 288 286 289 292 292 293 292 293 294 294 295 297 300 302 306 307 308 308 311 316 321 322 323 321 319 317 316 316 315
300 301 300 299 298 297 296 295 298 294 294 292 293 295 292 291 285 285 289 290 291 292 291 292 292 295 299 300 303 304 304 305 307 310 312 317 322 320 319 317 316 315 313
301 301 299 297 296 296 295 294 293 293 293 291 290 289 288 288 287 286 284 286 289 291 290 291 290 293 296 298 299 301 302 301 303 306 309 311 315 320 318 317 314 313 312
297 297 297 295 295 294 293 293 292 291 291 291 290 289 290 288 288 288 286 284 285 287 288 289 289 292 293 294 297 300 300 299 301 303 306 309 311 314 317 314 312 311 310
295 295 295 294 293 293 293 292 291 290 290 288 288 288 289 289 291 291 289 287 286 288 288 288 288 289 294 291 293 298 299 297 297 298 301 304 305 306 311 311 311 310 309
295 295 294 293 293 293 292 292 290 289 289 288 287 288 289 290 290 292 289 288 284 285 283 283 287 288 289 289 293 297 294 296 297 296 297 299 300 301 304 305 307 306 306
296 294 293 292 292 292 292 292 289 288 288 288 288 289 290 289 289 288 288 289 285 280 281 284 283 287 288 289 291 291 292 296 295 295 295 295 298 298 299 301 301 301 302
293 293 292 291 291 291 291 291 289 289 288 287 288 286 285 285 285 284 285 285 284 282 279 283 284 285 287 290 289 287 290 296 296 295 293 293 295 298 298 297 297 298 299
292 291 292 292 292 290 290 289 288 286 284 283 282 282 283 284 283 284 282 282 282 282 279 281 284 285 284 282 284 285 287 287 291 295 294 294 293 294 296 297 296 296 296
291 292 291 291 291 289 288 286 284 283 282 281 281 281 282 283 281 280 280 280 280 280 280 279 280 280 280 282 282 282 286 288 286 291 293 295 294 294 294 295 295 296 297
292 291 292 292 289 288 286 284 283 282 281 281 281 280 280 280 279 279 279 279 280 282 280 280 279 280 280 280 281 281 282 282 286 288 289 290 291 294 295 294 295 295 295
291 291 290 290 289 286 284 283 282 281 281 281 281 280 280 279 279 279 279 280 281 281 280 280 279 279 280 280 279 278 278 280 280 284 286 288 290 290 292 293 294 295 295
290 290 291 288 286 285 284 282 281 281 280 280 280 280 280 281 283 282 280 279 278 280 279 278 278 278 278 277 277 278 277 277 278 280 280 281 283 285 285 288 289 292 294
289 291 287 286 285 284 286 286 284 280 281 280 279 279 279 281 280 282 281 282 281 278 278 277 277 277 277 277 277 277 276 275 274 279 278 277 281 281 283 284 288 290 291
287 286 285 285 282 282 286 286 286 282 280 279 278 278 279 280 280 279 280 281 281 282 281 279 278 278 278 278 278 276 276 276 276 278 278 278 276 277 282 284 288 290 291
284 284 282 282 281 282 285 285 283 278 278 278 278 278 278 277 278 278 279 279 279 280 281 281 280 280 281 281 280 280 279 279 279 279 282 278 276 277 279 279 286 287 289
286 282 282 281 280 280 283 283 280 277 277 276 278 278 277 276 278 281 279 277 278 278 282 283 283 283 283 283 284 282 280 278 276 277 277 277 278 275 275 278 280 286 287
282 282 282 281 282 278 281 281 280 274 268 275 276 277 278 278 279 281 279 277 276 278 279 279 279 280 281 281 282 280 277 277 276 273 278 277 277 277 273 275 276 277 278

GFSMA_sfc_thetae_042.txt.gz
Theta_e
319 318 318 316 313 311 311 310 310 311 310 311 311 311 311 312 312 312 311 316 318 321 324 326 328 327 330 331 331 331 330 329 329 330 332 334 333 332 332 333 332 331 332
316 315 313 312 311 311 310 309 309 307 306 307 306 308 309 309 309 310 310 310 315 316 318 321 324 325 326 327 329 331 331 331 329 329 329 332 333 332 331 331 331 331 332
315 313 311 309 309 308 307 306 305 305 304 305 303 305 306 305 307 307 309 309 308 311 314 316 318 320 322 324 325 328 330 331 329 327 327 329 331 332 331 330 330 331 331
313 310 308 306 306 306 305 304 304 303 303 301 301 302 302 303 304 306 306 306 306 307 308 312 312 314 316 318 321 324 325 328 329 327 327 328 329 330 330 330 330 330 330
310 307 305 305 305 306 305 305 303 300 299 299 302 301 300 301 302 305 302 304 305 304 302 304 305 306 308 313 318 320 322 324 327 328 328 327 327 328 328 329 329 329 330
308 306 305 305 304 302 300 301 300 300 298 299 301 301 300 300 301 298 299 302 301 300 299 299 299 300 304 308 312 316 320 321 324 325 327 327 326 327 326 328 327 327 328
303 301 300 300 300 300 299 300 299 297 298 298 296 296 297 298 297 295 297 298 297 298 297 297 298 297 299 306 308 312 316 319 319 321 324 325 325 325 326 325 325 326 325
300 300 299 299 299 299 298 297 296 295 296 296 293 292 289 292 293 295 294 295 292 294 294 295 296 296 299 302 303 308 309 311 314 316 316 319 322 323 324 324 323 323 323
300 299 299 299 298 297 295 294 294 293 292 294 294 292 287 285 288 291 292 292 292 292 292 293 294 295 298 300 301 302 303 304 307 311 313 314 315 319 323 323 322 321 319
299 300 299 298 296 296 294 293 295 293 292 290 292 294 292 291 286 286 289 290 290 291 291 292 292 294 297 298 298 300 301 301 303 307 309 311 314 315 319 322 321 318 317
299 298 297 295 294 295 294 293 293 292 292 290 290 290 289 288 287 288 285 287 289 290 290 291 291 292 295 296 295 297 300 299 300 303 305 307 310 313 315 319 319 318 316
296 296 296 295 294 294 292 292 291 290 290 290 290 292 290 288 287 288 286 287 287 288 290 290 290 291 292 294 295 296 298 299 298 299 301 303 307 310 312 314 318 319 316
294 295 294 293 292 292 292 291 290 289 289 288 287 287 288 288 289 290 288 286 284 287 287 290 290 290 291 292 292 295 297 297 297 297 298 299 301 304 306 309 313 316 314
294 294 294 293 292 292 291 290 289 289 288 288 287 287 287 288 291 290 289 287 284 285 285 285 288 289 290 291 292 295 292 295 297 296 296 297 298 299 302 305 305 309 312
295 294 293 291 291 291 291 290 289 288 288 287 287 287 287 287 289 288 287 287 284 278 279 282 283 288 289 290 291 291 290 292 296 296 295 295 296 297 299 301 301 301 305
292 292 291 290 291 291 290 290 289 288 287 287 285 283 283 283 283 283 283 285 285 283 278 282 283 285 288 289 290 289 288 291 292 295 295 293 294 295 295 298 298 298 298
291 290 291 291 291 290 290 289 288 286 284 283 282 282 282 283 283 282 282 281 281 281 278 280 282 285 285 286 286 286 287 288 288 290 293 294 294 293 293 294 296 295 295
291 290 291 290 291 290 289 287 285 284 282 282 282 281 281 282 279 279 279 279 279 280 279 278 281 282 282 283 283 283 285 286 286 287 291 291 293 294 293 292 294 295 295
290 290 290 289 289 289 286 285 284 282 282 281 281 280 280 280 278 279 279 279 279 281 282 281 281 281 281 282 282 283 282 283 285 287 287 288 290 291 294 294 294 294 294
289 289 288 289 290 287 285 284 283 282 280 281 281 281 280 279 279 279 279 278 279 279 279 279 279 280 281 282 281 280 280 281 282 284 285 286 287 289 291 292 294 294 294
288 288 288 289 287 285 284 283 282 281 280 280 281 281 281 282 284 283 281 279 278 278 278 278 277 278 278 279 278 280 279 279 280 282 282 282 283 285 287 288 289 292 294
287 289 288 286 284 285 286 286 285 282 282 281 279 280 280 281 280 282 281 281 280 278 277 277 277 277 278 279 279 279 278 277 276 281 280 280 283 283 284 286 287 289 291
285 284 283 283 282 281 285 285 285 280 279 278 277 277 278 279 279 278 279 280 280 281 280 280 278 278 278 280 280 279 278 278 278 280 280 279 281 281 284 285 287 288 290
287 286 282 280 280 282 284 284 282 278 277 277 277 277 277 277 277 278 278 278 279 279 280 280 279 280 280 281 281 281 280 279 280 281 281 277 282 281 283 283 285 287 288
286 283 281 280 280 279 282 282 280 277 276 276 277 277 277 277 278 281 280 278 278 279 282 283 283 284 283 283 283 281 279 279 276 279 280 280 280 279 280 282 283 285 287
281 281 281 281 282 278 281 281 280 274 268 275 276 277 278 278 279 280 278 277 275 278 279 279 281 281 282 282 282 281 280 277 278 276 279 279 279 279 278 280 281 283 283

GFSMA_sfc_thetae_045.txt.gz
Theta_e
333 332 331 328 325 325 324 323 321 319 318 317 316 315 315 315 314 315 317 317 317 319 322 324 325 326 327 328 330 331 332 331 330 329 330 332 333 333 333 332 332 332 332
329 327 325 323 321 320 319 317 317 316 315 314 313 313 313 312 312 313 314 315 314 315 318 320 321 323 323 324 324 326 328 331 331 330 330 330 331 332 332 331 331 331 332
326 323 321 318 317 316 317 316 314 314 312 310 309 311 311 311 311 312 313 314 315 311 310 311 312 314 316 319 322 323 324 327 330 331 331 329 329 330 331 331 330 330 331
320 318 315 312 314 313 312 310 310 307 308 308 308 309 309 309 309 311 311 312 311 309 308 306 307 308 309 313 316 320 322 323 324 327 329 329 329 329 330 330 330 330 330
315 313 310 312 311 310 310 309 308 307 306 306 305 306 308 306 308 309 307 308 306 306 305 304 304 304 306 309 312 315 318 320 322 323 326 328 329 328 328 329 329 330 330
313 312 310 310 310 309 308 307 306 305 305 305 301 303 304 305 309 308 305 305 304 304 303 303 303 303 303 307 309 311 314 317 319 320 321 323 325 326 327 327 326 329 328
310 310 309 309 308 307 306 306 304 303 302 304 301 300 301 307 307 305 304 303 302 301 301 301 301 302 303 303 305 309 311 311 313 315 317 318 319 321 324 326 326 326 327
309 308 309 307 307 306 305 304 303 301 301 303 298 298 295 298 303 303 303 301 300 300 299 299 300 301 302 302 301 304 306 307 308 309 312 313 315 317 319 322 325 324 325
308 308 307 307 306 306 303 303 302 300 298 301 301 297 293 291 295 299 299 299 299 298 299 299 299 299 301 300 299 300 301 302 303 306 308 310 311 314 316 318 322 323 323
307 307 306 306 305 305 302 301 302 301 300 297 299 301 299 296 290 289 295 296 297 297 298 298 298 299 299 299 299 297 298 300 300 302 303 306 308 311 313 316 317 322 322
306 305 305 304 304 303 303 301 300 299 299 297 296 295 294 295 294 290 288 291 294 296 297 297 298 298 298 298 299 297 297 299 299 299 300 302 304 307 311 313 316 318 321
305 305 304 304 303 302 301 300 300 299 298 298 297 296 294 292 291 290 288 290 290 293 295 296 297 297 298 298 296 296 297 297 298 298 299 299 301 303 306 309 312 314 319
303 304 304 303 302 301 300 300 299 298 298 297 297 296 296 295 295 293 290 288 287 292 293 294 295 296 295 296 296 296 296 295 296 298 298 298 298 300 302 304 309 311 314
303 305 303 302 301 301 300 300 299 299 299 298 297 297 296 296 295 292 290 287 286 287 289 289 293 293 294 294 295 296 295 295 294 296 297 297 297 297 298 301 304 305 310
302 302 302 301 301 301 300 300 299 298 298 297 296 295 295 295 294 292 292 290 286 282 284 288 288 292 292 293 293 294 294 294 293 293 295 296 296 296 296 298 300 302 303
301 300 300 300 299 299 299 299 298 297 296 295 294 291 290 291 290 290 289 289 288 285 282 286 287 289 290 289 291 291 292 293 292 292 292 293 295 295 295 296 297 298 299
300 299 299 298 297 298 298 297 295 294 291 290 290 289 288 289 288 287 287 286 285 285 281 284 286 288 288 288 289 291 292 292 292 291 290 290 292 294 294 294 295 296 296
299 299 299 297 297 296 296 293 292 290 289 287 288 288 287 286 286 286 285 284 284 284 282 280 284 285 286 288 288 289 289 290 291 290 289 289 289 290 292 293 294 294 295
296 297 296 296 295 294 291 290 289 288 287 287 287 286 286 286 285 285 284 284 284 284 283 281 281 284 284 285 285 287 288 289 289 289 289 288 288 289 289 292 293 293 293
295 295 295 294 294 291 289 288 288 287 286 286 286 286 286 285 285 284 283 283 283 281 281 280 280 281 282 284 283 282 283 286 287 288 288 287 287 288 288 289 292 294 294
294 294 293 291 289 289 288 288 287 287 286 286 286 285 285 284 283 283 282 282 282 280 279 279 278 279 279 280 280 282 281 282 285 287 286 287 288 289 289 289 290 291 294
292 292 290 289 289 289 286 286 287 287 285 283 282 282 282 281 281 281 280 280 280 279 278 278 279 278 279 280 281 280 280 280 279 286 286 285 289 287 289 290 290 288 289
291 290 290 289 288 287 285 285 283 284 283 282 281 280 280 280 280 280 280 280 281 281 281 281 279 280 279 281 281 281 281 281 280 283 284 282 287 286 289 288 287 288 289
292 291 290 287 286 286 284 284 282 283 282 281 280 280 280 280 280 279 280 281 280 281 281 281 282 283 283 283 283 282 282 282 283 284 284 278 285 285 289 289 287 287 287
289 288 287 286 285 284 282 282 282 282 281 280 280 280 280 279 279 280 280 279 279 279 282 282 282 283 283 284 285 284 282 280 279 281 284 281 283 285 287 288 290 287 287
286 287 285 285 283 284 281 281 282 282 280 280 280 280 279 279 279 279 279 278 277 278 279 280 281 282 283 284 283 284 283 280 279 280 284 281 283 283 282 288 289 290 290

GFSMA_sfc_thetae_048.txt.gz
Theta_e
339 337 335 334 332 331 330 329 329 325 324 322 321 320 319 319 318 318 318 318 316 318 321 322 324 325 325 325 325 325 327 328 329 331 331 331 331 333 333 332 332 332 332
333 331 329 330 331 327 326 324 322 321 321 320 319 318 318 318 317 317 317 317 315 315 314 315 316 317 319 320 321 323 324 325 326 328 331 331 330 330 331 332 331 331 332
332 330 330 327 322 323 322 322 320 319 317 316 315 315 316 317 315 315 315 315 316 310 308 309 310 311 313 314 316 319 321 322 324 325 326 330 330 330 330 331 331 331 331
326 323 322 318 319 318 318 317 316 314 314 313 313 313 313 313 313 312 313 314 313 312 311 307 306 307 308 310 313 315 317 319 321 323 324 325 328 329 329 330 330 330 330
319 317 317 317 317 317 316 314 314 312 310 310 309 307 307 309 307 307 310 311 311 310 310 309 305 305 304 307 310 312 314 316 318 319 321 322 323 324 326 328 329 329 329
318 318 317 316 316 315 313 312 310 309 308 307 305 303 307 307 307 309 309 309 309 308 307 306 306 306 303 304 306 309 311 313 313 315 316 318 319 320 321 324 327 328 328
316 317 316 316 315 312 311 309 307 306 304 306 303 303 304 306 309 308 308 306 306 306 306 305 304 304 305 304 302 305 308 309 310 310 311 312 314 315 317 319 322 326 327
315 315 315 314 312 309 308 307 306 303 303 304 301 301 297 300 303 307 306 305 304 304 303 303 303 303 303 304 304 301 302 304 306 306 307 309 310 311 314 316 319 321 325
314 314 313 311 309 308 305 305 304 303 300 302 303 300 295 294 297 301 302 302 302 302 302 302 302 302 302 303 302 302 299 299 302 303 304 304 306 307 310 313 315 318 321
314 312 310 309 308 307 305 304 303 303 302 298 300 300 301 298 293 291 297 298 299 299 300 301 301 301 301 301 301 301 297 298 299 301 302 302 303 305 307 309 313 316 318
311 309 308 308 307 306 305 305 304 303 301 299 298 298 298 297 297 291 290 293 296 298 299 299 299 300 300 300 301 301 297 298 297 298 300 300 301 302 304 306 308 311 315
307 307 307 307 307 306 305 304 304 303 301 301 299 298 295 292 291 291 292 292 291 294 296 297 297 296 298 298 298 297 297 297 297 296 297 299 299 300 300 302 305 308 312
304 305 306 307 306 306 305 304 303 302 301 299 299 297 297 296 295 293 291 290 289 292 292 295 297 297 296 297 297 297 296 295 296 295 296 296 297 298 299 299 301 305 308
305 306 306 306 306 305 305 304 302 301 301 300 299 297 296 296 295 294 292 290 287 288 290 291 294 295 296 295 295 295 295 295 296 294 294 294 295 296 297 298 298 301 304
305 305 305 305 305 304 304 303 301 300 300 300 298 298 296 295 294 294 293 291 288 284 285 289 289 293 293 294 294 294 293 293 294 294 294 293 293 294 296 297 297 297 300
303 303 303 303 302 302 302 301 300 299 298 298 297 295 294 293 293 292 291 291 290 287 283 288 289 291 292 291 292 293 293 293 292 293 293 292 292 293 293 295 296 296 297
299 299 299 300 300 300 300 300 299 297 295 295 295 293 292 292 291 291 291 290 288 288 284 286 288 290 290 290 290 291 292 292 293 293 293 291 290 291 291 292 295 295 296
299 298 299 299 299 299 299 297 296 295 293 292 292 292 291 290 290 290 289 288 288 288 286 283 287 287 287 289 289 288 289 290 291 291 291 289 289 290 290 291 292 294 294
298 298 298 297 297 297 296 295 293 292 291 292 291 291 290 289 289 289 288 287 287 286 286 283 283 285 286 287 286 287 287 288 289 291 291 290 290 290 289 289 290 292 294
297 297 297 296 294 293 292 291 292 291 291 291 291 291 289 288 288 287 286 286 285 285 284 282 282 282 283 284 285 284 284 287 287 288 290 289 289 290 290 289 289 290 293
297 296 295 294 294 293 292 292 292 291 291 290 290 288 288 286 283 283 283 284 283 282 281 280 280 280 281 282 282 284 283 284 286 287 286 288 289 290 291 291 290 291 292
296 296 294 294 293 292 286 286 286 290 289 288 286 286 286 284 284 282 282 281 281 280 279 279 279 279 282 282 283 283 283 282 281 288 286 285 289 289 289 292 289 288 288
294 293 293 293 292 292 286 285 284 288 287 286 286 285 284 284 284 284 282 281 282 282 281 283 281 281 281 283 283 283 282 282 282 285 285 284 288 286 289 289 289 288 288
293 291 290 292 292 290 285 284 283 287 287 286 285 284 284 283 283 281 280 281 281 282 282 282 283 283 283 284 284 284 284 284 285 285 286 282 286 285 289 290 289 288 288
291 291 290 291 290 289 283 283 283 286 286 285 285 285 283 282 281 280 280 279 280 281 282 282 282 282 283 283 284 285 282 281 281 282 286 284 285 285 287 289 291 289 288
290 291 290 290 287 288 283 282 283 286 283 283 284 284 282 280 278 279 279 279 277 279 280 280 281 282 283 284 284 286 285 282 281 281 285 284 284 285 283 289 290 292 292

GFSMA_sfc_thetae_051.txt.gz
Theta_e
337 338 338 333 331 330 329 328 328 326 325 325 323 322 321 322 322 320 320 319 318 318 318 319 321 321 321 321 321 323 324 326 327 328 329 331 331 331 331 331 332 332 332
336 335 333 331 330 327 326 325 323 322 321 323 320 320 319 320 320 320 318 319 317 316 315 313 314 316 317 317 317 319 320 322 324 325 326 327 329 331 330 330 330 331 331
333 331 329 326 324 323 323 321 320 320 318 318 318 318 317 317 316 316 316 315 315 313 311 310 309 310 311 313 314 316 317 318 320 320 323 325 326 327 329 329 330 330 331
327 326 322 320 320 318 317 318 317 316 315 314 313 313 312 311 311 313 311 311 313 312 310 308 306 307 307 308 311 313 314 315 317 318 318 321 322 323 325 327 328 330 330
321 320 319 319 319 317 317 315 314 312 310 309 308 308 309 307 310 308 309 311 312 311 310 312 307 309 304 305 308 310 312 313 314 315 315 316 318 319 320 322 323 327 329
319 318 318 318 317 315 314 313 311 310 307 306 305 305 308 307 308 308 310 310 310 309 308 307 306 306 307 303 304 306 309 310 310 310 311 311 313 314 315 317 320 322 326
318 318 317 316 316 312 312 311 308 306 305 306 303 303 304 307 309 308 309 308 307 307 307 305 305 304 304 307 305 303 304 305 307 307 307 308 309 310 311 313 316 319 321
317 316 316 314 313 310 309 308 307 304 303 304 300 299 296 299 302 305 305 306 307 305 304 304 304 303 303 302 304 304 301 301 303 304 305 305 306 306 308 309 311 314 317
316 315 314 312 310 308 306 306 306 303 300 301 303 298 293 292 296 300 301 302 304 302 302 301 302 302 302 302 303 303 299 299 300 301 302 303 304 304 305 307 308 310 314
314 312 311 309 309 308 307 306 305 304 302 298 300 300 301 299 293 291 298 298 300 300 301 301 301 301 301 301 302 300 297 297 297 298 299 301 302 303 303 304 305 307 310
312 310 309 308 308 307 307 306 305 304 302 300 298 298 298 298 297 293 290 293 297 297 299 300 300 299 299 300 300 300 297 297 295 296 297 298 300 301 301 301 302 304 306
308 308 307 308 308 307 306 305 306 304 302 301 300 299 297 294 293 293 292 292 292 294 296 297 298 298 299 299 299 300 299 298 296 295 296 297 298 298 300 300 301 302 303
305 306 307 306 305 305 305 305 305 303 302 300 300 298 298 297 296 294 292 291 289 292 293 296 297 297 296 298 297 299 298 297 296 296 296 296 296 296 297 298 299 300 301
306 307 306 305 305 305 306 304 304 303 302 302 300 299 298 297 296 295 291 290 288 288 290 290 295 296 296 296 296 297 295 296 296 296 295 294 295 295 295 295 297 298 299
304 304 304 303 303 302 302 303 302 301 301 300 299 299 297 296 295 294 292 291 289 285 285 289 290 293 294 295 295 295 295 295 295 294 294 294 293 294 294 294 294 296 297
301 300 300 300 300 300 301 300 301 300 299 299 298 297 296 295 294 293 292 291 291 288 285 289 289 292 293 291 293 294 294 295 293 294 293 294 294 293 293 292 293 294 296
300 299 299 299 299 299 299 299 299 298 296 296 296 295 294 294 292 292 292 291 290 289 285 288 290 292 291 291 291 292 293 292 293 292 293 294 293 292 291 291 291 291 293
300 299 299 298 298 298 298 297 296 296 295 293 293 293 292 291 291 291 291 289 289 289 287 285 287 288 287 290 290 289 289 289 290 290 291 292 291 291 291 291 290 291 292
299 298 298 298 297 298 297 296 295 294 294 293 292 291 291 290 289 289 289 288 288 287 287 286 285 287 287 288 287 288 287 288 289 291 290 291 291 292 292 291 291 291 291
298 298 298 297 295 294 295 294 293 292 292 292 292 292 290 289 288 287 285 285 285 284 284 284 284 283 284 285 286 284 284 287 286 288 289 289 290 291 291 291 291 290 290
298 297 297 296 294 294 293 292 293 292 291 291 291 290 289 287 285 284 283 283 283 282 281 280 280 280 281 282 282 284 283 284 286 287 287 288 289 290 291 291 291 291 291
297 297 295 294 294 293 287 287 287 290 290 289 288 288 288 287 286 285 284 284 282 280 279 280 280 279 281 282 284 283 283 282 281 288 286 286 289 288 289 291 289 289 289
296 295 294 293 293 294 287 287 285 288 288 288 288 287 286 286 286 285 284 283 283 283 282 283 281 281 281 283 282 282 282 282 282 285 285 284 288 286 289 289 290 289 289
295 293 293 293 291 292 287 285 284 287 288 288 287 287 286 285 284 281 281 280 281 281 283 283 282 282 282 283 282 282 283 283 284 286 286 282 286 285 288 289 290 290 289
293 291 292 292 292 290 285 284 284 287 287 286 286 286 286 284 281 280 279 279 279 280 283 283 282 282 283 283 283 284 282 282 281 283 286 284 285 285 287 288 290 290 290
292 291 290 291 287 290 285 284 284 286 286 283 285 285 283 281 279 279 278 278 277 279 279 279 280 282 283 284 284 284 284 281 281 281 285 283 284 284 282 288 290 291 291

GFSMA_sfc_thetae_054.txt.gz
Theta_e
331 331 332 331 329 327 324 322 321 321 319 319 319 319 317 316 317 316 316 319 320 318 318 318 318 318 318 318 318 319 320 321 323 324 326 327 329 329 330 329 329 330 331
332 331 330 328 324 323 322 319 320 317 316 317 316 317 317 316 315 314 312 313 318 318 316 315 315 314 314 314 314 315 317 318 319 321 321 324 325 326 328 329 329 329 330
329 326 322 320 319 319 316 315 315 315 313 313 310 310 310 309 307 308 308 309 310 315 313 311 310 310 310 310 311 312 313 314 316 317 319 319 321 321 323 324 326 329 329
323 322 319 316 316 315 314 313 312 309 308 307 305 305 306 305 305 305 306 305 307 309 310 309 308 309 309 307 309 310 312 313 313 314 314 315 316 318 318 319 321 323 326
320 317 317 316 316 314 314 311 308 307 304 303 302 301 303 303 304 305 304 306 307 307 306 312 312 311 306 305 308 308 309 311 311 310 310 310 311 313 315 316 317 319 322
318 317 316 314 314 312 310 309 306 305 303 302 302 301 301 302 302 302 303 307 305 306 305 303 302 302 309 306 307 306 307 307 307 308 308 308 308 308 309 310 312 315 317
317 316 315 314 312 309 307 306 303 301 300 301 298 297 297 299 298 299 299 299 301 304 305 304 302 300 299 307 304 304 304 305 306 305 305 306 306 306 306 308 309 310 314
315 314 313 311 310 307 305 304 302 300 299 300 295 295 291 293 296 298 298 298 298 298 299 299 299 299 298 298 301 305 302 303 303 303 303 302 304 304 305 305 306 308 309
314 312 311 309 307 305 303 302 301 300 296 297 298 293 290 288 292 295 296 296 296 295 298 298 297 297 298 299 299 301 299 298 299 301 301 301 301 302 303 304 304 305 307
312 311 308 306 305 305 303 302 302 299 298 295 296 299 295 293 289 288 292 295 295 295 294 294 296 297 297 296 300 300 299 297 296 297 299 300 300 301 301 302 303 303 304
312 310 307 306 304 305 304 303 303 301 298 296 295 294 293 293 292 289 286 289 292 293 293 293 293 292 294 294 294 298 300 298 296 296 297 298 299 299 300 301 301 302 303
306 306 306 305 305 304 303 303 300 300 298 297 296 295 293 291 290 289 287 287 287 290 291 291 291 291 293 294 298 301 299 297 297 296 296 296 297 298 299 299 300 301 301
304 304 304 303 302 302 302 302 301 299 298 296 295 295 295 294 294 292 290 286 285 287 287 289 290 290 293 292 295 298 299 298 298 298 295 295 295 295 296 297 298 299 299
304 304 303 302 301 301 300 300 300 299 298 296 296 295 295 295 293 292 289 285 281 284 286 285 288 289 289 289 293 298 294 296 296 296 296 294 294 294 294 295 296 296 297
301 300 299 299 298 298 298 298 296 297 296 295 294 295 294 294 294 292 290 288 284 280 282 285 284 287 288 288 290 289 289 294 296 294 294 295 295 295 295 295 295 295 295
299 298 298 297 297 297 297 296 295 296 295 295 295 293 292 292 291 290 288 287 286 284 281 284 285 286 287 290 290 288 288 293 293 294 293 293 294 294 295 294 294 293 293
298 297 297 297 296 296 296 295 295 294 293 293 291 291 291 291 290 288 288 287 286 286 282 284 286 286 285 285 286 287 288 287 287 291 292 292 292 292 293 294 293 292 292
298 297 297 297 296 296 296 294 293 293 292 290 290 291 290 291 288 287 286 285 284 284 282 280 282 283 283 284 284 284 286 287 286 289 291 292 292 292 292 292 292 292 292
297 296 296 296 296 294 293 293 292 292 290 291 291 290 289 287 286 285 283 282 282 283 282 280 279 282 282 282 282 283 283 284 287 290 290 291 291 291 291 292 292 292 291
296 296 296 296 295 292 293 292 292 291 289 289 290 289 289 287 282 281 281 279 281 279 279 279 278 279 279 281 281 280 281 282 282 286 288 288 290 290 291 291 291 291 291
296 296 295 294 294 293 293 290 290 288 289 289 289 289 287 286 287 283 280 279 279 278 278 277 277 278 278 279 279 280 280 281 282 283 283 284 285 286 286 289 290 292 292
295 295 294 293 292 293 289 288 287 286 287 286 285 285 285 287 285 285 285 284 282 277 277 277 277 277 278 278 280 281 279 278 276 282 281 281 283 284 286 287 290 289 289
294 294 292 291 291 291 288 287 285 285 284 284 284 283 284 285 284 281 282 282 281 282 281 279 277 278 279 279 280 278 277 277 277 280 281 279 282 281 284 287 289 290 290
292 292 289 290 290 290 288 286 285 283 283 284 283 283 282 282 279 279 278 277 277 279 280 280 279 279 279 279 279 279 279 279 280 281 283 278 281 281 281 282 289 290 290
291 290 290 289 288 287 287 286 284 282 283 282 283 283 283 281 280 281 278 276 276 277 281 282 281 281 282 283 283 281 278 278 276 280 283 282 280 280 281 281 283 289 290
290 290 288 288 288 287 286 285 284 281 280 281 282 282 281 279 280 279 274 273 273 276 276 276 277 279 281 281 283 282 281 279 278 276 281 281 281 281 278 282 284 284 283

GFSMA_sfc_thetae_057.txt.gz
Theta_e
326 327 325 321 319 320 317 315 315 313 313 314 313 313 313 313 313 312 310 319 321 320 319 320 318 316 315 314 314 315 316 318 319 320 321 322 323 325 326 326 328 329 328
324 323 320 318 317 316 312 312 310 311 310 309 308 308 307 307 304 304 304 305 318 319 316 315 313 313 312 312 311 312 313 314 316 318 319 319 319 320 321 322 323 325 327
320 317 315 313 312 311 310 310 307 306 305 306 304 304 304 303 303 303 303 304 313 316 315 311 310 310 310 310 310 311 312 312 312 313 313 314 315 315 317 318 319 321 323
317 314 311 310 311 310 310 307 305 303 302 301 299 299 300 301 301 302 302 302 303 309 312 313 310 309 308 308 309 309 309 310 310 310 310 310 310 311 312 314 315 316 318
315 312 311 310 311 309 307 306 303 301 299 298 299 297 297 298 299 301 300 301 303 304 304 312 312 311 308 305 308 307 308 308 307 307 308 308 308 308 308 309 310 311 313
314 312 310 309 308 306 304 303 300 300 298 297 300 297 295 296 296 296 297 299 298 299 302 302 302 303 309 305 305 305 306 306 306 306 306 306 305 306 306 307 308 309 310
312 310 309 307 305 303 302 301 299 298 296 296 293 293 294 294 295 294 296 295 296 298 299 299 299 298 298 305 306 307 306 305 305 305 304 303 303 304 304 305 306 306 307
311 310 307 304 303 301 300 299 298 296 295 296 292 291 288 291 293 295 294 295 293 296 298 298 297 297 296 296 298 302 301 301 302 302 302 301 301 302 302 303 304 305 306
309 307 305 303 301 300 298 297 297 296 293 294 295 291 288 285 288 292 293 293 292 292 293 294 296 297 297 296 297 299 301 300 300 300 300 301 301 301 301 301 302 303 304
308 307 304 302 302 301 299 298 299 296 295 293 293 296 292 290 286 285 290 292 292 292 291 291 292 293 293 292 296 300 300 300 298 298 298 299 300 300 300 300 300 301 303
309 306 304 301 301 301 299 299 299 296 295 293 292 291 291 290 290 286 285 287 290 290 291 290 289 289 291 291 291 294 301 299 298 297 297 298 299 298 299 299 299 300 301
302 302 302 300 299 298 297 297 297 296 296 295 294 293 292 291 290 288 285 284 285 287 289 288 288 289 289 290 295 300 299 298 298 298 298 297 297 297 297 298 298 299 299
301 300 300 298 297 297 297 297 296 296 296 294 293 292 293 294 293 293 291 287 284 285 285 286 287 288 290 288 289 297 298 298 298 298 296 295 296 296 296 297 297 298 298
300 297 295 295 295 295 294 294 293 293 295 293 292 292 292 293 294 294 290 288 281 281 283 283 286 287 287 286 290 295 289 293 295 296 295 294 294 294 295 295 296 296 296
297 295 294 294 294 294 294 293 292 292 293 292 292 292 292 292 293 293 289 288 285 277 280 282 282 285 286 286 288 288 286 291 294 293 294 293 293 293 293 294 294 295 295
295 294 293 293 293 293 293 292 292 292 291 290 291 289 290 290 289 288 287 288 286 284 280 282 282 283 285 287 289 286 286 290 290 291 292 293 293 292 292 292 292 293 294
294 294 294 294 294 293 293 292 291 291 290 289 289 289 289 288 288 287 288 287 284 281 278 279 281 282 281 282 284 284 286 284 285 290 291 291 292 292 293 292 292 293 293
294 294 294 294 294 293 292 291 290 290 289 287 288 288 289 290 287 286 283 280 279 279 278 277 278 279 279 281 281 281 284 286 284 288 290 291 291 291 291 291 292 292 292
293 293 294 294 294 292 290 290 290 290 288 288 288 287 287 286 282 280 280 278 278 281 278 277 277 278 279 279 279 280 281 281 285 288 289 289 289 290 290 291 291 291 291
294 294 294 294 293 290 291 291 290 288 287 288 288 287 287 284 281 279 279 277 279 277 277 276 277 276 277 279 279 278 279 280 281 285 286 287 288 288 289 289 290 291 291
294 294 293 292 292 291 292 289 289 288 286 286 286 286 285 285 288 282 279 277 277 276 276 276 275 276 276 277 277 278 279 279 279 280 280 281 282 283 284 287 288 290 290
293 293 291 291 290 291 289 288 286 285 287 285 283 283 282 285 284 285 284 283 280 276 275 274 275 275 276 277 280 278 276 275 273 279 277 278 281 280 282 284 288 289 290
291 290 290 289 289 289 289 288 286 283 284 284 282 281 282 284 282 280 280 280 279 280 279 277 275 276 277 278 277 276 276 275 276 278 278 277 280 279 282 285 288 289 289
289 288 288 288 287 289 289 288 286 283 281 282 281 280 280 279 279 279 278 276 277 277 278 278 278 277 277 278 278 279 278 278 279 279 281 277 278 280 281 281 286 288 289
288 287 287 286 286 285 288 287 285 280 281 281 282 281 281 278 281 280 277 275 276 276 279 281 281 281 282 282 282 280 278 278 276 277 278 278 277 279 280 282 282 286 288
288 288 287 286 287 284 287 287 285 279 277 280 280 281 281 279 280 280 274 271 271 274 276 276 276 278 279 279 282 281 279 276 276 275 277 275 278 277 277 279 282 284 284

GFSMA_sfc_thetae_063.txt.gz
Theta_e
319 318 316 314 312 311 309 307 305 304 303 303 302 301 300 299 299 300 299 309 318 318 316 317 316 315 314 313 313 313 314 314 314 315 314 314 314 314 314 315 315 315 317
318 315 313 312 310 308 306 304 302 301 299 299 299 299 298 298 298 297 298 298 310 319 317 314 313 312 312 311 312 311 312 312 311 311 311 310 311 311 311 311 312 313 314
315 312 310 308 307 306 304 302 300 299 298 299 296 296 297 297 297 297 297 301 305 313 316 312 310 310 309 309 309 309 310 308 308 309 309 309 309 308 308 309 309 310 311
311 309 308 308 307 304 303 301 299 297 297 296 294 294 294 295 295 296 295 295 299 303 304 309 310 308 306 306 308 307 307 306 306 306 306 307 306 306 306 306 307 308 308
310 308 307 306 305 304 303 301 298 297 295 294 295 294 293 292 294 296 295 295 295 296 296 303 306 308 306 306 305 305 305 306 305 305 304 303 304 304 304 304 305 305 306
310 307 306 305 304 302 300 298 296 296 295 294 297 294 292 292 292 292 293 295 294 294 294 295 295 300 306 304 305 306 306 306 305 304 303 303 302 302 303 303 303 304 304
310 307 304 302 301 300 298 297 296 294 293 293 291 291 291 291 291 291 292 292 293 294 294 293 293 293 294 302 304 304 304 305 306 305 304 304 302 302 302 302 303 303 303
307 305 303 301 300 299 297 296 295 294 293 293 291 288 287 289 290 292 291 292 290 292 293 293 292 292 290 290 295 301 302 305 305 304 303 302 302 302 302 301 302 302 302
306 305 303 300 298 298 296 295 294 293 292 292 292 291 286 284 286 289 290 290 290 290 290 290 292 290 290 289 291 293 298 300 302 302 302 302 301 301 301 301 301 301 301
306 304 301 300 298 298 296 296 296 294 293 291 291 293 290 289 286 284 288 289 290 291 289 289 289 289 289 288 291 295 299 300 301 302 302 301 301 301 300 301 301 300 301
303 302 300 298 298 297 296 295 294 293 293 291 290 290 289 288 287 285 282 285 288 290 289 289 288 287 288 288 287 291 299 299 301 299 299 299 299 300 300 300 300 300 301
300 300 300 297 297 298 295 293 292 292 291 291 291 290 290 288 287 285 283 284 284 287 288 288 287 287 286 286 290 294 297 295 296 296 297 297 298 298 299 299 299 300 300
299 299 299 299 296 293 292 292 291 289 289 289 289 290 290 290 290 289 287 285 288 289 287 285 285 285 286 284 286 292 293 293 294 294 294 294 294 295 296 297 297 298 299
298 299 299 296 294 292 291 290 289 289 290 289 288 288 289 290 290 290 288 285 284 286 280 282 283 283 283 284 286 290 286 290 291 292 293 292 292 293 293 294 294 295 296
301 298 295 293 292 291 291 290 289 289 288 289 288 287 287 289 289 289 290 289 287 282 278 280 280 283 283 283 284 283 283 287 289 290 289 290 290 291 291 292 292 293 294
297 295 293 292 292 291 291 292 290 289 288 287 288 287 286 287 287 286 286 286 285 284 281 282 281 281 281 283 283 281 281 287 287 287 287 288 289 290 290 290 291 291 292
295 294 293 291 291 291 292 290 289 289 288 287 287 286 286 287 286 287 288 287 286 282 279 278 279 279 278 278 279 279 281 280 281 286 286 287 288 289 289 289 289 290 290
294 292 292 292 292 292 291 289 288 289 287 286 286 286 286 289 285 283 281 280 279 278 277 275 276 277 277 277 277 277 280 282 281 284 286 287 287 287 287 287 288 289 290
292 291 291 291 291 291 291 289 288 288 288 287 286 285 286 285 283 281 280 279 278 280 277 276 275 276 276 276 277 278 278 279 281 285 284 284 285 285 286 286 287 288 289
291 292 291 292 291 291 291 290 290 288 287 286 286 286 285 284 283 283 280 279 278 277 276 275 275 275 275 277 276 276 276 278 278 281 282 282 283 284 285 285 286 286 287
291 291 291 291 291 290 290 289 288 287 286 284 284 285 285 286 287 284 280 278 277 276 275 275 274 273 274 274 274 277 275 275 276 278 277 278 278 280 280 283 284 286 286
291 290 289 289 289 290 290 290 288 285 284 284 283 284 286 286 285 287 285 283 279 276 274 273 273 272 273 274 273 274 274 273 273 277 276 277 279 278 280 281 284 285 287
289 288 287 287 287 287 289 290 289 284 283 283 282 282 282 282 283 282 284 283 282 281 279 275 272 273 271 274 275 274 275 275 275 278 277 276 278 277 280 281 284 286 286
287 286 286 286 285 286 289 290 289 284 282 282 284 282 280 280 280 280 278 277 277 278 278 277 275 275 276 276 276 277 277 277 277 277 277 274 277 276 279 280 284 285 286
286 285 285 285 284 284 287 288 287 282 281 281 282 282 281 280 282 284 279 277 277 277 279 280 281 281 281 281 280 273 273 273 272 274 277 275 275 276 278 279 280 284 286
285 283 283 283 285 283 286 287 287 282 282 281 280 282 284 282 282 283 276 274 273 276 275 276 276 277 278 278 279 276 273 272 273 272 276 274 276 277 275 277 278 279 280

GFSMA_sfc_thetae_066.txt.gz
Theta_e
316 316 313 311 309 307 305 303 302 302 301 300 300 299 299 298 298 298 299 309 313 319 315 317 316 315 314 313 313 313 313 313 313 313 312 312 312 312 312 312 312 312 314
315 313 311 309 307 305 303 301 300 298 297 298 297 298 297 297 297 297 298 302 316 317 317 315 313 312 312 311 311 311 311 311 310 311 310 310 310 309 308 308 309 310 311
314 310 308 306 304 305 303 301 299 298 297 297 295 296 296 296 296 296 296 301 305 309 312 313 310 309 308 308 309 308 308 307 307 308 308 308 307 307 306 306 307 308 308
310 309 309 307 307 305 303 301 298 296 295 295 294 293 294 295 296 296 296 296 298 298 303 311 310 309 306 307 308 307 307 306 306 305 305 305 305 305 305 306 306 306 307
309 311 308 305 305 304 303 302 299 296 294 294 295 294 293 293 295 296 295 295 296 296 296 303 307 308 307 307 306 307 307 306 306 305 305 304 304 305 305 304 304 305 305
308 307 306 304 304 302 298 297 296 295 295 294 296 294 292 292 293 293 294 295 295 295 295 296 295 296 303 305 306 307 307 307 308 307 306 304 303 303 303 303 304 304 304
307 306 303 301 301 299 297 296 295 294 294 293 292 292 291 292 292 292 293 293 294 295 295 295 294 294 293 299 300 304 306 307 308 308 307 307 305 302 302 302 303 303 304
307 304 302 300 299 297 297 296 295 294 293 293 291 289 288 290 291 292 292 293 292 293 294 294 293 293 292 291 295 299 300 302 304 305 305 304 304 303 302 302 302 302 302
306 303 301 299 298 297 296 295 294 294 292 292 292 291 287 285 287 290 291 291 292 292 292 292 292 292 291 291 291 293 298 300 302 302 303 303 303 302 302 302 302 302 303
304 303 301 298 298 297 297 296 298 294 293 292 292 293 291 289 287 285 289 290 291 291 291 291 291 291 290 290 291 294 297 299 299 300 301 301 302 302 302 302 302 302 302
302 301 299 298 300 297 297 296 294 293 293 291 290 290 289 288 287 286 283 287 289 291 292 290 290 290 289 289 288 291 297 297 295 298 299 300 300 301 301 301 302 301 302
299 299 301 300 296 298 297 293 292 291 291 291 291 290 289 288 287 286 283 284 285 288 290 290 289 288 287 287 290 293 293 293 294 295 295 295 297 297 298 299 299 300 300
297 298 299 299 297 296 294 291 290 289 289 289 289 289 290 290 290 289 287 286 285 286 287 287 287 286 286 286 287 290 290 290 291 292 294 295 295 295 296 296 297 297 298
299 300 301 299 296 294 291 292 290 289 289 289 289 289 289 290 290 290 288 288 286 286 286 285 285 284 284 285 286 288 285 286 288 289 291 292 293 293 293 294 294 295 295
301 301 299 296 294 293 293 290 289 289 289 288 288 289 288 288 289 289 290 290 289 283 282 282 282 285 285 284 284 285 283 285 287 288 288 289 290 290 291 292 292 292 293
300 299 296 294 293 293 292 290 289 289 289 288 288 287 287 287 288 287 287 287 287 284 282 283 283 283 282 283 283 283 281 285 285 286 286 287 288 288 289 290 290 291 292
299 296 294 293 293 290 292 291 290 290 288 288 287 287 287 287 287 286 286 286 285 286 282 281 281 281 280 280 281 281 281 281 282 284 285 286 287 288 288 288 288 289 290
296 292 293 293 292 291 291 290 289 289 288 287 287 286 286 288 285 285 284 283 283 282 279 277 278 278 278 279 279 278 280 282 282 283 285 286 286 286 286 286 286 287 287
292 292 293 293 291 291 291 290 289 288 287 287 287 286 285 284 283 283 282 281 280 280 279 277 277 278 278 278 278 279 279 280 281 283 283 283 284 285 285 285 286 286 287
292 292 292 292 291 291 290 290 289 287 287 287 286 285 285 284 283 283 283 281 280 278 278 277 276 276 276 277 278 276 277 279 278 280 281 282 283 284 284 285 285 286 287
292 292 290 290 290 290 290 288 288 287 286 285 285 284 284 285 287 284 282 281 279 277 277 276 275 275 275 274 274 277 276 276 277 278 279 279 280 281 282 283 284 285 285
291 289 288 288 288 289 290 290 289 285 285 284 283 284 284 287 286 287 287 285 280 278 276 275 275 274 274 274 276 275 275 274 273 279 278 278 280 280 281 282 283 284 286
290 288 288 287 286 286 289 290 289 286 284 283 282 283 283 284 284 282 283 285 283 282 279 277 275 275 273 275 276 275 275 275 275 278 278 276 279 278 281 282 283 284 285
288 287 286 285 284 285 288 289 289 285 283 283 282 282 282 281 281 281 281 280 279 279 279 279 277 276 276 278 277 277 277 276 277 278 279 273 278 278 280 281 283 285 286
286 285 284 283 283 283 287 287 287 283 283 282 283 282 282 281 282 284 281 278 278 278 281 282 282 281 281 281 281 277 274 273 272 274 278 275 277 277 279 280 282 284 286
283 283 283 283 284 283 285 287 286 281 284 283 283 282 284 282 283 284 280 277 274 277 277 277 276 278 280 279 280 278 275 272 272 272 277 275 275 277 275 281 281 283 284

GFSMA_sfc_thetae_069.txt.gz
Theta_e
324 322 320 319 317 315 313 312 311 309 309 308 308 307 306 307 308 309 311 317 319 319 316 319 317 315 314 313 313 312 313 312 312 312 312 312 311 310 309 310 310 311 312
323 321 318 316 314 313 312 311 309 307 306 307 306 306 305 305 306 309 313 315 314 315 316 316 314 313 312 311 310 311 310 310 309 310 310 309 309 308 308 308 308 309 310
322 320 317 314 313 312 311 309 308 308 306 305 305 305 305 305 305 306 308 312 312 311 313 313 313 310 309 309 309 309 309 307 307 307 307 307 306 307 307 306 307 307 308
321 318 315 314 314 312 309 309 308 306 305 305 305 304 305 305 305 305 305 305 306 306 308 310 311 311 309 309 309 309 309 308 307 307 306 305 305 305 306 305 306 306 306
319 318 315 315 314 311 311 308 307 307 305 305 304 305 305 304 305 303 303 304 305 304 305 302 304 305 307 309 309 310 309 307 308 308 307 306 305 305 305 305 305 305 305
317 316 315 314 313 310 308 307 307 306 306 306 303 303 304 303 305 305 304 304 304 305 304 304 303 303 301 303 305 308 309 309 309 310 310 309 307 306 305 304 304 304 304
315 317 314 312 311 309 308 308 307 306 305 306 304 304 302 302 302 303 304 304 303 304 304 303 302 302 302 299 300 302 304 307 308 309 309 308 308 307 304 303 304 303 303
315 314 312 310 310 308 308 308 307 305 306 305 303 301 298 299 300 302 302 302 303 303 302 302 302 301 301 300 299 299 300 302 304 304 304 305 306 305 304 305 303 303 303
314 313 311 310 309 309 307 307 306 305 303 304 303 300 295 293 296 302 301 301 302 302 302 301 301 300 300 299 298 297 297 298 300 301 302 302 303 304 304 304 304 305 303
313 311 310 310 309 308 307 307 306 305 304 302 303 302 302 300 293 291 300 300 301 300 301 301 300 300 300 298 296 294 296 297 297 299 300 301 301 302 303 303 303 303 304
312 310 310 309 308 307 306 306 305 304 305 301 299 300 299 299 299 295 291 294 298 300 300 300 299 299 298 296 296 296 294 294 294 296 297 298 299 300 301 302 302 303 302
310 309 308 307 306 305 302 302 302 301 301 301 300 299 297 295 295 295 293 293 293 296 298 299 298 297 297 296 292 292 292 291 292 293 295 296 298 298 299 299 300 300 300
307 307 307 304 305 299 298 298 300 300 300 299 299 298 300 299 298 296 294 292 292 294 295 297 297 296 293 295 293 290 290 288 289 290 291 293 294 296 297 297 298 298 298
308 306 306 303 300 299 298 298 298 300 300 300 300 300 299 298 297 296 293 292 290 291 291 292 295 294 293 293 291 289 291 288 287 288 289 290 291 292 293 294 295 295 296
305 306 306 300 299 298 299 300 300 299 300 300 299 299 297 297 296 295 295 295 291 287 287 290 290 293 294 294 291 291 290 288 287 287 287 287 288 289 290 291 292 292 293
306 306 301 299 298 299 300 299 299 299 298 299 297 297 296 296 295 295 294 294 294 290 286 290 291 292 293 290 289 289 288 286 286 285 286 286 287 288 289 289 290 290 291
302 301 300 300 299 299 299 298 298 298 297 297 296 295 295 295 294 294 294 293 292 292 287 289 291 291 289 288 288 288 287 286 286 285 285 286 286 287 288 288 288 288 289
304 300 299 299 298 298 298 298 297 297 296 295 295 295 294 293 293 294 293 292 292 292 289 287 290 287 286 288 287 286 285 285 286 285 285 285 285 285 285 286 286 286 287
302 300 299 297 298 298 297 297 297 296 296 295 295 295 294 294 293 293 292 291 291 290 289 287 286 287 286 286 285 285 284 284 285 284 284 284 284 284 285 285 286 286 286
297 296 297 298 297 297 296 296 296 296 295 295 295 294 294 293 292 292 291 291 289 287 288 286 285 285 285 285 284 282 281 283 283 283 284 283 283 284 285 285 285 285 286
297 296 296 296 296 296 295 296 295 295 295 294 295 294 293 293 291 290 289 289 289 287 286 284 283 283 283 283 282 282 280 281 282 284 283 284 284 284 285 285 285 285 285
295 295 295 295 294 293 290 290 291 294 294 293 293 293 293 290 290 289 289 288 288 288 285 284 283 282 283 283 282 280 280 279 278 284 282 282 284 283 284 285 284 284 285
295 295 294 294 293 294 289 289 289 292 293 293 293 292 291 290 289 290 287 285 286 284 283 285 283 283 283 283 281 280 280 279 279 282 281 279 283 282 285 285 285 285 285
294 294 294 293 293 292 288 288 288 292 292 292 292 291 290 290 290 288 287 286 286 286 286 284 285 285 284 283 282 281 281 281 281 282 282 277 282 281 284 285 285 285 286
293 293 292 292 291 291 288 287 288 291 290 290 290 291 290 289 288 286 285 284 285 285 285 284 283 283 282 281 282 282 279 279 278 279 282 280 281 280 282 284 287 285 285
291 292 291 291 290 290 289 287 288 290 289 288 289 289 286 286 286 284 285 285 283 284 284 283 283 283 282 283 282 282 281 278 278 277 282 278 278 279 278 283 285 286 287

GFSMA_sfc_thetae_075.txt.gz
Theta_e
335 334 333 329 328 327 325 325 324 321 317 315 314 312 311 312 312 313 317 317 319 320 319 320 318 317 315 314 312 312 312 311 311 311 311 310 309 309 309 309 309 309 309
335 335 330 328 326 327 326 325 321 316 314 314 312 311 311 311 311 312 313 315 317 317 317 317 315 314 313 311 311 310 311 311 310 309 309 308 308 308 308 307 307 307 308
334 332 329 328 327 327 325 321 316 315 313 312 311 311 311 311 310 309 310 312 313 315 314 314 314 314 313 312 311 311 312 310 311 310 309 309 308 307 307 306 306 306 306
333 332 330 328 326 323 320 317 315 313 313 314 313 313 311 310 310 309 309 309 308 307 311 310 307 306 307 308 311 312 312 311 312 311 311 311 310 309 308 307 306 305 306
333 331 329 326 325 321 319 316 315 316 313 313 312 312 313 310 310 308 308 308 309 308 306 307 305 305 304 303 304 307 308 309 310 311 311 312 312 312 311 309 308 307 306
332 330 328 325 323 319 317 316 316 315 315 314 312 312 313 312 310 309 308 308 308 308 307 307 307 306 305 303 302 303 305 307 309 309 310 310 309 308 308 309 310 309 307
331 330 327 324 322 319 317 317 316 315 314 315 311 312 312 311 310 309 309 308 307 307 308 306 306 305 305 304 305 302 302 304 306 307 306 306 306 306 306 306 307 309 308
326 329 326 323 320 317 317 317 316 314 315 314 310 308 305 307 308 308 308 307 308 307 307 306 306 305 305 304 304 300 301 300 302 303 303 303 303 304 304 305 306 307 307
328 327 325 322 320 318 315 317 316 315 312 313 311 307 302 300 301 305 306 306 307 306 307 306 306 305 305 304 304 304 299 298 299 300 301 301 301 302 303 303 304 305 306
322 323 323 321 320 318 317 316 316 316 314 310 311 308 307 305 299 297 303 304 305 305 306 305 305 305 305 303 304 300 297 296 295 297 298 299 300 301 302 302 303 303 303
321 322 321 320 320 317 317 317 315 313 311 307 303 305 304 303 302 298 296 299 303 303 302 302 303 303 304 303 302 298 294 293 292 293 295 297 298 299 300 300 301 302 303
319 322 319 320 319 318 316 314 313 311 305 306 306 304 301 299 298 298 297 298 297 298 300 301 302 302 302 302 300 296 293 291 291 292 293 294 295 296 297 298 299 300 301
318 320 320 319 318 316 314 311 307 305 306 307 305 303 302 302 302 300 298 296 295 297 297 301 301 301 300 301 300 295 296 293 292 291 291 292 292 293 293 294 295 296 297
322 322 320 319 317 314 310 307 305 303 306 307 305 304 302 302 302 301 298 295 293 293 295 296 300 300 301 300 297 295 296 297 294 290 290 291 290 291 291 292 293 294 295
320 320 320 317 314 310 306 303 301 304 306 306 305 304 303 303 302 301 300 298 295 290 291 295 295 300 300 300 299 298 297 297 292 292 291 290 289 289 290 291 291 292 292
321 319 317 313 308 303 302 302 304 306 305 305 304 303 303 302 301 301 300 299 297 294 291 294 295 298 299 297 298 297 296 296 294 293 292 290 289 289 289 289 289 290 290
316 313 307 304 303 304 306 304 305 305 304 303 303 302 302 302 300 300 299 299 297 296 293 295 297 298 297 297 297 297 296 294 295 293 292 289 288 288 287 287 287 288 288
309 305 305 306 308 307 305 304 304 303 302 301 302 302 300 299 300 300 299 298 297 297 295 293 295 295 296 296 296 295 293 293 293 292 292 288 288 288 287 287 286 286 287
305 307 305 303 302 303 304 304 303 303 302 302 301 300 299 299 299 299 299 298 298 295 296 294 293 295 295 295 294 293 292 293 292 292 291 290 290 289 287 287 287 287 287
302 301 302 302 302 303 302 302 302 302 300 300 299 299 298 298 297 298 297 298 296 295 295 293 292 291 291 292 292 290 289 291 289 290 290 289 290 290 290 289 288 288 287
300 302 300 300 302 302 302 302 301 299 297 297 297 297 298 297 296 295 296 296 295 293 292 291 290 289 289 289 288 290 288 289 289 289 288 289 289 289 289 290 290 290 288
299 299 301 302 302 302 292 292 291 295 295 295 294 295 296 295 294 291 291 290 291 292 290 289 289 288 288 289 290 288 287 286 283 290 287 287 288 287 288 289 289 287 286
299 301 302 303 301 300 293 292 290 294 293 293 294 294 294 294 294 296 292 289 289 288 286 290 288 288 288 289 289 287 286 285 284 286 286 284 287 286 288 288 289 288 288
302 303 301 300 299 297 293 291 289 294 293 294 294 295 295 296 296 294 294 294 294 293 291 290 290 289 290 290 289 288 287 285 285 286 286 282 286 285 288 288 288 289 289
300 299 298 297 296 296 290 289 289 294 293 293 294 294 294 294 292 290 291 291 291 291 292 289 289 289 287 285 284 286 284 283 282 282 286 284 285 284 285 286 288 287 286
297 296 295 296 293 295 289 289 289 290 289 289 290 290 288 288 286 287 289 289 287 288 288 289 290 288 287 287 284 285 285 282 281 281 285 283 283 283 280 285 286 287 288

GFSMA_sfc_thetae_081.txt.gz
Theta_e
323 322 320 320 319 318 318 316 316 313 308 307 306 305 305 304 309 309 311 321 323 326 323 321 320 318 316 314 313 312 312 311 311 310 310 310 309 308 308 308 308 308 308
324 324 321 321 320 320 319 317 316 309 307 306 304 305 304 303 305 307 309 313 320 322 321 318 318 316 314 313 312 310 311 313 311 311 309 310 310 309 308 307 307 307 308
326 325 322 319 319 319 319 317 312 308 306 306 304 304 304 303 302 303 308 310 313 318 319 318 317 316 314 314 313 312 312 313 313 312 311 311 313 313 311 311 310 308 308
327 323 322 319 320 317 313 309 307 305 303 303 302 301 303 302 302 301 304 307 306 309 315 317 315 312 310 308 306 306 307 307 308 309 310 311 311 311 310 309 310 311 311
327 324 322 321 318 315 312 310 308 306 305 304 304 303 302 302 301 303 301 301 301 305 304 314 313 312 308 305 303 304 306 306 307 308 309 309 310 309 309 308 307 308 309
326 326 324 319 319 314 311 309 306 307 305 305 308 305 302 302 302 300 300 302 300 301 301 301 301 302 310 307 305 305 304 304 305 305 306 307 307 306 306 306 306 307 307
326 325 321 319 316 312 309 309 306 305 304 305 303 303 304 304 301 300 301 300 301 301 300 299 298 298 303 309 307 307 305 305 305 304 304 304 304 304 304 304 305 305 305
325 324 319 318 317 312 309 308 307 306 306 305 302 300 297 299 301 302 301 301 299 300 300 300 299 299 297 299 300 306 306 304 302 302 301 302 302 302 302 303 303 303 304
324 324 321 318 316 312 308 307 307 307 304 305 304 301 296 293 294 298 300 299 299 298 298 300 301 300 299 297 301 305 306 304 302 300 300 300 300 300 301 301 302 302 302
322 322 322 319 316 312 310 309 310 307 305 303 303 305 301 298 293 291 295 295 297 298 297 297 298 299 299 297 299 301 303 302 301 301 300 298 298 298 299 300 300 301 301
320 321 320 317 315 311 310 311 309 307 305 301 299 299 300 298 296 292 290 292 295 296 296 296 296 295 298 297 295 299 301 299 300 300 299 298 297 297 298 298 298 299 299
316 318 319 317 314 313 311 311 308 305 303 302 301 300 299 294 295 291 289 290 290 292 293 292 292 292 294 295 298 300 301 299 299 299 298 298 297 297 297 297 297 297 297
315 316 317 315 315 314 311 310 308 304 302 300 300 300 300 298 296 294 292 291 290 290 290 291 292 292 295 293 295 300 301 298 298 297 297 297 296 296 296 296 295 294 295
316 315 315 314 314 312 310 308 306 303 303 301 300 300 300 300 299 297 294 291 287 288 288 289 291 292 292 292 294 301 296 297 297 297 297 296 296 295 295 294 293 293 293
316 314 315 314 310 308 308 305 304 302 302 302 301 301 301 300 299 298 297 293 290 284 284 287 288 292 292 292 293 295 291 297 297 297 296 296 296 295 295 294 293 292 292
317 315 312 308 306 304 303 302 301 302 302 301 303 302 300 299 299 298 296 294 291 289 287 288 289 290 291 294 294 293 291 296 297 296 295 295 295 295 295 293 292 291 291
314 311 306 304 304 305 304 303 302 302 302 301 302 301 299 298 297 296 294 293 292 290 287 289 289 290 288 289 291 291 291 291 292 296 294 294 295 295 295 293 292 291 290
308 306 306 306 306 304 304 303 302 303 302 300 300 299 298 298 295 294 293 292 291 291 289 289 288 287 288 290 290 288 292 293 291 293 295 295 295 294 293 292 291 291 290
307 307 306 305 305 305 305 304 303 302 301 300 299 296 296 294 292 291 291 290 290 292 289 286 285 286 286 286 285 286 286 287 291 294 294 293 294 294 293 292 291 291 291
306 306 306 305 305 305 304 303 302 300 299 297 296 294 293 292 291 290 290 289 290 288 286 284 284 283 283 284 283 282 282 283 284 290 291 290 290 292 293 292 292 292 291
306 305 304 303 304 303 303 301 301 296 291 290 291 292 291 292 294 291 289 287 286 284 283 283 285 281 281 281 281 282 282 282 282 284 285 287 283 282 283 287 289 292 291
303 303 303 303 301 302 296 294 292 290 290 289 288 288 289 291 290 290 290 289 287 283 282 281 283 283 284 282 283 282 281 281 278 283 282 280 281 280 281 282 287 289 290
301 301 301 300 299 298 291 291 290 289 288 287 286 286 288 291 289 288 287 286 285 287 285 283 283 284 284 283 284 285 282 282 280 281 280 277 279 278 281 284 288 289 289
299 299 298 298 297 293 291 290 289 288 287 288 288 287 285 285 285 286 284 281 281 283 284 285 284 285 285 287 287 286 285 282 280 280 280 274 277 278 279 280 286 289 289
297 297 298 295 291 289 288 288 288 286 286 284 286 286 285 283 285 287 283 281 282 282 287 288 288 288 289 289 289 287 283 281 274 277 279 277 278 277 278 279 281 286 287
298 294 292 290 288 285 287 287 286 283 282 281 282 283 284 284 285 285 282 281 279 281 281 282 283 284 285 285 287 287 285 281 278 274 279 278 277 277 274 278 279 279 279

GFSMA_sfc_thetae_084.txt.gz
Theta_e
320 319 318 316 315 316 315 315 312 308 306 305 304 303 304 306 306 309 311 322 326 325 322 321 320 318 316 314 313 313 312 312 312 311 310 311 310 309 309 309 308 309 309
320 319 317 316 316 317 316 315 311 306 305 303 303 303 303 306 306 307 309 314 322 323 322 319 319 317 315 314 312 312 313 313 312 312 310 311 312 312 310 310 309 308 309
322 319 318 317 317 317 316 314 309 307 304 304 303 302 302 303 306 306 308 310 314 318 320 319 317 316 315 314 312 309 307 309 310 310 310 311 312 312 312 310 310 311 312
324 320 319 317 318 317 316 312 307 304 304 302 301 301 301 301 300 305 306 307 306 311 316 319 316 312 311 309 305 306 307 306 306 308 309 310 311 310 310 309 308 308 308
324 321 319 317 317 314 312 308 305 304 301 301 301 300 300 299 299 304 305 304 304 306 306 316 315 313 310 307 304 304 305 306 306 306 307 307 308 307 307 306 306 307 307
324 321 320 318 315 311 308 306 305 304 303 302 305 303 300 300 299 298 300 301 300 303 302 303 303 303 311 308 306 305 305 304 304 304 305 305 304 304 304 304 305 305 305
322 322 321 317 315 312 309 307 304 304 302 303 302 302 302 302 299 298 298 298 299 300 300 299 297 297 302 311 309 309 308 306 305 304 303 302 302 302 302 302 303 303 304
323 324 320 319 316 312 308 307 305 304 303 303 301 299 297 299 300 300 299 299 297 299 299 299 297 298 298 300 302 310 309 309 306 305 304 302 301 300 300 300 301 302 302
323 324 320 319 316 313 309 307 305 305 303 303 302 300 294 293 293 296 298 298 298 298 298 298 299 299 297 296 302 306 309 308 307 306 305 303 302 300 299 299 300 301 301
323 324 322 318 316 312 308 307 308 305 304 302 302 303 299 296 292 291 294 295 296 297 296 296 297 298 298 296 299 302 305 306 307 306 305 304 302 300 299 299 299 299 300
322 322 321 318 315 312 309 308 307 307 305 303 301 300 298 297 295 292 290 292 294 294 293 295 293 293 295 296 295 298 304 303 304 305 305 304 302 300 299 298 298 299 299
320 319 321 317 315 312 311 311 309 306 304 302 300 300 297 295 293 292 292 291 291 293 292 292 292 291 292 292 297 301 302 301 301 303 303 303 302 301 300 299 299 298 298
317 318 318 315 313 313 310 311 310 306 304 301 300 300 298 297 297 295 293 290 289 290 291 292 293 292 293 291 292 300 302 301 300 301 302 301 301 300 299 299 299 298 297
319 320 318 315 313 312 311 309 305 304 303 303 301 301 300 299 299 298 295 291 286 286 287 290 290 292 292 292 293 299 296 300 299 299 300 300 300 299 298 298 297 296 296
320 316 317 314 311 309 307 306 304 303 303 302 301 302 301 302 301 299 297 293 289 284 284 287 288 292 292 292 293 292 294 297 299 298 298 299 300 298 298 297 296 296 295
317 315 315 311 306 305 305 304 303 302 303 302 302 301 302 301 300 300 296 294 291 288 285 288 289 290 291 293 293 293 292 297 297 297 296 297 298 298 298 297 296 296 294
316 315 312 308 306 306 306 306 304 303 302 301 302 302 301 301 300 296 294 293 291 289 287 289 289 289 288 288 290 291 291 290 290 295 296 296 296 296 296 296 296 296 293
314 311 309 307 306 306 306 304 303 302 301 301 302 301 301 301 297 295 292 291 290 289 287 286 287 287 287 288 288 288 291 292 290 294 296 296 296 295 295 294 294 294 293
310 309 308 307 306 305 305 304 304 303 302 302 301 300 299 297 293 290 290 289 289 291 288 285 285 285 285 285 285 285 285 285 288 293 294 294 295 295 295 294 293 292 292
309 308 309 307 306 306 305 305 304 302 302 301 299 297 295 292 290 288 288 287 288 285 285 283 282 282 282 283 282 282 282 282 283 288 291 290 291 292 294 293 293 292 292
308 308 306 306 306 306 305 304 303 301 298 295 293 291 290 291 293 290 287 284 283 282 281 280 280 280 280 280 280 282 281 282 281 283 284 285 285 285 287 291 291 292 292
306 305 304 304 303 304 296 297 297 296 293 290 288 287 289 290 290 289 288 288 285 281 280 279 279 280 281 281 281 282 284 283 283 282 284 282 281 280 282 281 286 288 289
303 303 303 302 301 300 294 293 290 290 289 287 285 287 288 288 286 285 285 285 284 286 283 281 279 280 281 281 281 282 284 284 283 283 281 278 278 278 281 283 287 289 289
301 301 300 300 299 295 290 290 289 286 287 288 287 285 284 282 283 284 283 282 282 283 284 284 283 283 282 282 282 284 284 285 286 282 282 279 277 277 279 279 285 287 288
300 299 299 296 292 290 289 289 288 287 285 284 284 284 283 282 285 286 282 281 281 281 285 287 287 287 287 287 287 285 283 281 280 280 281 281 277 277 278 278 280 286 287
296 294 291 290 288 287 288 287 286 283 281 281 282 283 283 282 283 284 281 280 279 280 281 282 283 284 286 285 285 284 284 280 280 280 281 280 279 276 273 278 278 279 278

GFSMA_sfc_thetae_087.txt.gz
Theta_e
325 324 318 316 316 314 314 309 307 306 304 303 304 304 304 305 306 309 312 324 325 324 321 321 320 318 316 315 314 313 314 313 312 311 311 311 311 310 310 310 309 309 309
322 321 315 314 314 313 313 310 306 304 303 303 302 304 305 304 305 308 312 318 323 324 323 321 320 318 316 314 312 313 312 313 312 311 311 311 314 313 313 311 310 310 311
321 319 315 315 314 314 313 309 305 303 302 302 301 302 304 304 305 306 309 312 314 318 319 320 317 315 313 314 312 306 307 307 308 308 309 313 312 311 310 309 309 308 308
319 318 316 314 315 314 313 309 305 303 301 300 300 300 300 302 303 304 307 308 308 311 317 319 317 313 312 311 307 306 307 307 307 309 309 309 309 308 308 307 307 306 307
321 319 317 315 315 314 312 309 304 303 300 299 299 298 298 297 300 306 305 305 304 307 307 317 316 314 312 309 307 306 307 307 307 306 306 305 305 305 304 304 305 305 305
323 319 316 315 314 312 309 306 303 302 301 300 303 300 298 298 297 299 302 304 302 304 303 306 306 306 312 310 308 307 307 306 305 306 305 304 303 302 301 302 302 302 303
323 319 317 315 313 312 310 305 303 302 301 301 300 299 300 300 298 297 298 298 299 301 300 300 300 297 302 312 310 309 309 308 308 306 305 304 303 301 300 300 300 301 302
321 321 318 316 313 310 307 305 304 302 302 302 299 298 296 298 299 299 296 297 296 298 299 299 297 297 297 300 303 311 310 311 310 308 306 305 304 302 301 300 300 300 301
320 322 321 319 316 313 309 306 304 304 302 301 301 300 294 294 294 295 297 297 297 296 297 297 298 297 297 296 302 307 311 311 310 309 308 307 305 304 301 300 300 300 299
319 321 321 319 315 312 308 307 306 304 303 301 301 301 298 296 293 292 294 294 295 297 296 296 296 297 297 296 299 301 303 307 309 309 309 308 306 305 303 301 300 299 300
321 321 321 318 316 313 311 308 306 306 307 304 302 301 298 295 293 291 289 292 292 294 293 295 295 294 295 295 294 297 303 303 305 308 308 307 307 306 304 302 301 301 301
318 319 320 317 317 314 310 309 309 309 308 306 303 302 300 298 295 293 291 292 291 293 292 292 291 291 292 292 296 300 301 302 303 305 306 306 306 306 305 304 303 302 302
315 317 317 316 315 314 312 311 310 308 307 304 302 299 300 298 298 297 295 292 290 292 292 294 292 291 293 291 292 299 302 301 302 303 304 305 305 305 304 304 303 302 301
318 318 317 318 316 313 311 308 307 306 305 304 302 302 301 301 300 299 296 293 290 290 290 292 291 291 291 291 292 297 295 300 301 301 302 303 304 304 303 302 301 301 300
319 318 318 317 314 312 310 307 305 305 304 304 303 302 301 301 301 300 298 296 293 288 287 289 288 291 291 291 293 291 291 297 299 300 299 300 302 302 302 300 300 299 298
319 317 315 315 312 309 308 307 306 305 304 303 303 301 302 302 301 301 298 297 294 292 285 288 288 289 290 292 293 292 291 296 297 298 298 298 299 299 300 300 299 298 298
316 315 314 314 310 308 307 307 305 305 304 303 302 302 301 302 301 300 299 296 293 290 286 287 288 288 287 288 290 289 290 290 290 295 296 297 297 297 297 297 297 297 297
316 315 313 311 310 308 307 307 304 304 304 302 302 301 301 302 299 299 296 294 292 289 287 285 286 286 286 287 287 287 289 290 289 293 295 295 296 296 296 295 295 295 295
315 313 313 311 309 308 307 307 306 305 304 303 302 301 301 300 298 295 294 292 289 290 287 284 283 284 284 285 284 285 285 285 287 292 293 294 295 296 296 295 295 294 294
316 314 312 310 309 308 307 305 305 303 303 302 302 301 300 297 296 293 290 287 287 285 283 282 281 281 282 283 282 281 281 282 283 287 290 290 291 293 294 294 294 294 292
317 313 311 309 309 307 306 305 305 303 302 300 298 297 296 294 292 290 287 284 283 282 281 280 279 279 279 280 280 281 280 283 281 283 284 284 285 286 286 290 291 292 292
309 310 309 307 305 306 297 297 300 300 298 295 291 290 290 291 290 289 288 287 284 281 280 278 278 278 278 279 280 279 279 279 278 282 280 282 283 284 284 282 287 289 290
306 306 305 305 304 304 298 296 293 295 293 290 288 288 288 287 286 285 285 285 284 285 283 281 278 278 278 280 280 279 278 280 281 283 282 282 280 281 283 283 287 288 289
303 303 302 303 300 299 293 292 290 290 288 288 287 287 285 284 285 285 283 282 282 283 283 283 281 280 280 281 282 282 282 283 284 284 285 280 280 280 280 281 286 287 288
300 300 300 297 295 291 289 288 289 287 286 285 285 285 284 282 284 284 281 280 280 281 284 285 286 286 286 287 287 285 282 281 280 280 282 281 281 278 278 279 280 286 287
297 294 291 291 289 288 288 288 287 285 283 282 282 282 282 281 282 282 281 280 279 281 281 282 282 283 285 285 286 285 283 280 280 279 281 279 280 279 278 278 279 280 280

GFSMA_sfc_thetae_090.txt.gz
Theta_e
325 322 318 316 316 313 311 306 305 305 304 305 304 304 305 307 310 312 316 323 323 323 322 321 320 318 317 315 314 315 315 313 314 313 312 314 313 313 313 312 311 310 312
324 320 317 316 315 314 309 307 305 303 302 304 303 304 305 305 308 313 316 321 323 324 323 321 320 318 316 314 314 313 313 313 312 312 311 314 313 311 310 310 309 308 309
322 318 316 315 315 314 309 306 303 302 301 302 303 305 304 304 307 311 315 316 318 321 322 323 320 317 316 315 312 308 308 309 309 309 313 312 312 311 309 308 307 307 307
321 316 315 315 315 313 309 305 303 301 301 301 300 302 304 304 305 308 311 311 310 312 318 320 319 315 314 314 309 309 308 308 309 310 309 309 308 308 307 306 305 305 305
319 317 315 315 316 313 309 306 303 302 300 300 300 300 300 301 303 306 306 308 307 309 310 318 317 316 314 311 309 309 309 309 309 308 307 306 306 304 303 303 302 303 303
320 318 315 315 315 312 309 306 303 302 301 300 301 300 298 298 299 303 304 305 304 306 307 309 310 309 314 312 309 309 309 309 307 307 307 306 304 303 302 301 301 301 301
320 318 316 315 313 313 310 306 303 303 301 301 300 300 300 299 298 297 301 302 302 303 303 303 304 303 306 314 311 310 311 310 309 308 308 306 305 303 302 301 300 300 300
322 319 317 315 313 311 308 306 304 302 302 302 299 298 297 299 300 300 297 299 299 299 301 301 301 300 299 302 306 312 312 312 312 311 309 307 306 304 303 302 301 301 300
321 321 318 316 314 312 310 306 305 304 301 301 301 300 294 295 296 297 298 297 297 297 298 299 299 299 298 298 303 307 311 313 311 310 309 309 308 307 305 304 303 302 301
318 320 319 317 315 312 309 308 307 306 304 301 301 302 299 298 295 294 295 296 298 298 297 297 298 298 298 298 300 301 303 305 309 311 310 308 308 308 307 305 304 303 302
318 318 319 317 315 315 313 310 308 306 306 304 302 301 300 297 295 294 292 294 294 295 296 297 297 297 298 298 298 299 302 303 304 307 310 309 307 307 308 307 306 304 303
314 316 319 318 319 316 313 311 310 308 307 306 306 304 301 299 297 296 294 293 293 296 295 294 295 295 295 296 298 300 301 301 303 305 306 307 307 307 307 307 306 305 305
313 314 315 315 315 315 313 312 309 310 308 306 306 304 302 301 300 299 298 295 296 295 294 295 295 294 293 294 295 300 302 301 301 303 305 305 305 305 306 306 305 305 304
314 314 315 317 316 315 314 312 312 310 309 308 305 303 302 301 301 300 299 295 291 291 292 293 294 295 294 294 294 297 297 299 300 301 303 304 305 306 306 305 305 303 303
316 314 314 315 316 315 314 312 311 308 307 306 304 304 303 301 302 302 299 297 296 290 289 292 292 294 294 293 294 294 294 296 298 299 300 301 303 304 304 304 304 303 302
315 315 314 316 315 312 310 310 309 308 307 306 306 304 304 303 302 301 299 297 296 295 291 293 292 293 293 293 294 295 293 296 297 297 297 299 300 301 302 302 302 302 301
316 316 316 315 313 310 309 309 307 307 306 306 305 305 304 304 302 301 300 298 295 294 291 292 291 291 290 291 292 292 292 292 292 295 296 297 297 298 298 298 298 299 300
316 316 316 315 315 311 309 309 308 308 306 305 305 304 304 303 301 301 299 296 296 293 291 289 290 288 288 290 290 289 291 291 291 292 294 295 296 296 296 296 296 296 296
317 315 317 316 315 313 311 311 312 309 307 307 306 305 304 301 300 298 298 296 294 293 291 288 287 286 287 287 287 287 287 288 288 291 292 293 294 295 296 296 295 295 295
318 316 315 315 314 312 311 310 309 308 307 307 305 304 303 301 300 297 296 294 292 290 287 284 283 284 284 286 285 284 284 285 285 288 290 290 291 292 293 294 294 295 294
318 318 317 315 312 311 309 308 307 306 305 303 301 300 299 298 296 294 293 289 288 285 284 283 282 282 282 283 283 283 282 283 284 285 286 286 287 287 288 289 291 292 293
316 316 311 311 309 309 301 298 303 304 303 299 295 293 292 292 290 289 288 287 287 285 283 282 282 281 281 282 283 282 281 280 279 284 283 283 286 286 286 287 288 289 291
310 309 309 309 308 308 296 297 296 301 299 294 290 289 289 289 287 286 286 285 285 285 283 283 281 281 281 282 282 281 281 280 280 284 283 282 285 284 286 286 288 289 289
305 303 303 302 300 296 292 292 291 292 290 289 289 288 285 285 285 285 284 284 283 283 283 283 282 282 282 283 282 283 283 283 284 284 285 280 284 283 285 285 286 288 289
300 298 297 295 292 290 289 289 289 288 286 285 285 285 284 283 285 285 282 281 281 281 284 285 285 285 286 286 286 285 282 282 280 281 284 282 283 282 283 283 284 286 288
294 292 290 289 288 287 288 287 287 284 282 282 282 282 282 282 282 282 281 280 279 281 281 281 281 281 282 282 282 283 283 280 280 279 283 281 281 281 279 282 282 283 286

GFSMA_sfc_thetae_093.txt.gz
Theta_e
329 329 327 324 322 322 323 323 322 319 318 317 317 319 322 324 325 324 323 323 325 324 323 322 320 319 318 316 316 316 314 315 314 313 315 314 314 314 311 311 310 310 310
328 327 325 322 320 320 321 320 318 316 313 313 312 313 315 319 323 325 323 323 323 324 323 321 320 319 318 316 315 314 315 314 314 312 315 314 312 311 311 309 309 309 309
327 326 323 322 320 317 316 316 314 313 312 311 312 313 313 316 320 324 324 323 321 322 323 323 320 319 317 317 313 312 312 311 311 314 315 313 312 311 309 308 307 306 307
327 325 323 322 321 317 315 313 312 311 311 311 311 312 312 313 318 323 324 323 322 320 321 322 322 318 318 316 311 311 311 311 311 312 312 311 310 308 307 305 305 304 304
326 323 323 321 321 317 314 312 311 312 310 311 311 311 312 311 313 318 321 320 321 319 317 319 318 318 318 314 312 312 311 311 312 311 310 308 307 306 304 303 303 302 303
325 323 322 322 321 317 314 312 312 311 311 310 307 307 309 309 309 311 316 318 316 316 316 315 315 312 316 314 312 312 313 313 311 310 309 308 307 305 304 303 302 301 301
324 323 322 322 321 318 316 314 312 311 309 310 307 306 306 307 307 308 312 312 312 313 314 314 314 311 312 316 313 312 313 313 311 311 310 308 307 305 304 303 302 302 301
323 321 321 321 321 319 317 314 313 310 310 311 307 307 303 306 307 307 307 310 312 311 310 311 312 311 310 311 312 314 313 313 313 312 312 310 308 306 305 304 303 303 303
321 322 322 321 321 320 318 315 313 312 310 309 311 310 304 303 306 308 308 306 309 310 310 310 310 310 310 309 310 311 312 314 314 314 312 312 310 309 308 307 305 305 304
322 322 321 321 321 321 319 318 317 315 314 309 309 309 309 309 305 304 306 308 307 307 309 308 308 309 309 308 308 307 306 307 310 312 312 311 311 310 310 309 308 307 305
319 320 322 321 323 321 322 320 317 315 316 315 311 309 307 307 306 306 306 304 304 301 304 308 308 308 306 307 307 306 304 303 305 307 309 311 311 310 308 309 309 309 307
320 320 320 322 324 324 322 320 320 317 316 315 314 311 307 306 304 302 303 298 300 304 305 300 301 302 303 304 304 303 302 302 303 305 307 308 309 309 309 308 308 309 309
318 320 322 323 324 324 324 323 321 318 317 316 316 310 309 310 309 304 308 302 300 303 300 298 297 298 298 299 299 302 303 301 302 303 306 307 307 306 306 306 306 307 307
319 321 322 323 324 324 324 323 322 320 319 314 311 309 311 311 311 310 305 302 296 298 295 298 298 296 296 297 297 299 302 300 301 301 302 304 305 306 306 306 305 304 304
319 321 322 322 322 323 323 323 322 321 320 319 315 312 313 314 313 312 309 305 304 298 293 296 298 302 298 298 297 300 302 301 299 299 300 301 303 304 305 305 306 305 304
320 320 321 321 322 322 322 321 321 321 317 317 314 311 310 312 311 311 309 303 306 304 301 300 298 302 298 296 298 300 303 300 298 297 297 298 299 301 302 303 303 303 304
319 319 320 321 321 322 320 319 318 317 311 311 309 309 307 309 306 304 305 303 302 303 303 302 304 302 295 296 296 299 302 301 302 296 296 296 297 297 298 299 299 300 301
321 321 320 320 321 320 317 313 312 313 310 310 308 307 307 307 305 305 306 303 304 301 298 298 299 293 293 297 300 300 299 298 299 296 294 294 295 296 296 296 296 296 297
319 319 320 320 319 318 315 317 316 314 311 310 310 308 308 307 305 305 306 306 304 297 297 295 293 292 293 295 296 296 296 296 295 294 292 293 293 294 294 294 295 295 295
318 320 321 320 320 320 318 317 314 313 312 313 314 310 308 308 305 306 304 300 298 294 292 291 289 289 292 294 293 293 291 293 293 292 291 290 291 291 292 293 293 293 295
321 322 322 321 320 319 316 314 313 313 312 310 309 308 306 306 302 302 300 296 293 290 288 287 286 287 290 288 289 291 290 291 290 290 289 289 290 290 291 291 291 291 292
322 321 319 318 317 315 304 299 305 309 309 307 303 295 296 295 293 290 291 290 291 288 286 286 288 286 287 287 289 288 287 285 283 290 288 288 289 287 288 290 290 290 290
320 318 317 315 312 308 298 297 294 302 299 295 292 291 290 289 288 287 286 286 286 286 285 288 287 285 286 287 286 285 285 284 284 288 287 285 288 287 289 289 289 289 289
306 304 301 300 296 292 291 292 291 292 290 289 289 288 287 286 286 285 285 284 284 285 286 285 286 285 286 286 287 286 286 286 287 287 288 282 287 286 289 290 289 288 288
297 295 294 292 290 288 288 289 289 287 284 284 285 285 285 284 284 285 283 282 282 283 285 285 285 285 284 284 285 285 283 283 282 284 287 285 285 285 287 287 289 289 288
290 289 287 287 287 287 287 287 286 284 282 281 282 281 282 282 282 282 282 282 281 282 282 282 282 282 281 282 281 282 282 280 281 281 286 284 284 284 282 286 288 289 289

GFSMA_sfc_thetae_096.txt.gz
Theta_e
331 332 332 333 333 333 332 331 330 328 327 325 325 325 325 325 326 325 325 324 325 325 323 323 321 320 319 318 317 316 316 315 315 315 315 315 315 312 312 311 310 311 310
330 329 330 329 332 333 332 331 329 325 323 322 323 323 323 324 325 326 325 324 323 325 323 322 321 320 319 317 317 316 316 316 314 316 316 315 312 312 311 309 309 309 309
328 328 329 327 327 330 330 329 326 323 319 318 317 318 320 323 324 325 324 324 324 322 323 323 321 319 318 317 315 316 315 315 314 315 315 313 312 311 309 308 307 307 307
327 330 327 326 326 327 326 324 322 319 318 317 316 317 317 318 322 324 324 323 323 322 322 323 322 320 318 318 314 313 314 313 312 316 314 313 311 310 308 306 305 305 305
327 328 327 326 326 323 322 321 320 320 318 317 316 316 317 316 319 321 323 324 323 321 321 322 322 321 321 318 314 314 314 313 313 313 313 311 309 307 306 304 304 303 303
327 327 326 326 324 322 321 321 320 321 320 318 314 314 316 316 316 319 321 322 321 320 319 320 319 316 318 319 314 315 314 314 314 313 311 310 308 307 305 304 304 303 302
326 328 325 325 325 322 322 321 320 319 318 317 313 313 313 313 314 314 316 319 319 319 317 317 316 314 314 318 316 314 316 316 315 313 312 310 309 307 306 305 305 304 303
327 326 325 325 325 323 322 321 320 317 317 315 311 311 306 309 311 312 314 315 317 316 314 315 316 316 315 313 314 315 315 316 316 314 313 312 310 309 308 307 306 305 304
327 327 325 325 326 325 322 322 319 319 315 313 315 312 309 308 312 313 312 313 315 315 315 315 315 316 315 314 314 314 314 316 316 316 314 314 313 311 310 309 308 307 306
323 325 326 326 326 325 324 322 320 320 319 314 314 314 317 316 310 308 313 313 313 312 316 315 314 314 314 314 313 311 309 309 313 316 315 315 314 313 312 311 311 310 309
324 322 323 322 324 325 324 325 322 322 321 319 316 315 314 314 314 309 309 310 312 313 314 315 313 310 313 313 311 311 306 305 307 311 314 314 313 313 313 312 313 312 311
326 324 323 323 324 325 325 326 327 325 323 322 322 320 317 315 313 312 306 306 309 311 310 306 309 311 312 308 309 307 306 303 304 307 309 310 311 311 312 312 311 310 310
320 321 323 323 323 325 326 327 327 326 326 323 322 321 317 317 317 314 309 307 304 307 307 308 308 312 308 307 306 306 305 302 302 305 307 308 309 310 310 310 309 309 308
321 324 324 323 323 322 327 328 328 327 327 326 325 324 322 322 315 310 308 305 303 305 309 302 308 305 306 307 304 303 305 301 301 302 304 305 307 307 307 307 306 306 305
322 324 325 325 325 325 326 327 326 326 327 326 326 325 321 317 315 317 312 309 306 302 303 308 305 306 306 306 305 307 307 302 301 300 301 302 304 305 305 305 306 306 306
322 322 323 324 324 324 325 325 325 325 324 326 325 324 323 321 320 319 314 310 309 306 302 309 307 310 311 307 306 305 305 303 300 299 298 299 300 302 303 303 303 304 305
322 322 322 323 323 323 324 325 324 324 323 324 325 323 321 320 317 313 311 310 306 306 303 307 311 314 311 308 305 304 305 304 302 297 297 297 297 298 298 299 299 301 302
323 322 323 322 322 322 324 325 323 322 322 321 319 316 314 313 312 311 308 307 306 306 305 303 308 300 307 300 299 302 299 300 302 300 297 296 296 296 296 296 296 296 297
322 322 322 322 322 323 323 324 323 320 318 319 320 316 314 311 309 309 308 306 308 307 305 303 304 299 297 295 295 297 298 300 301 298 294 293 294 294 295 294 294 294 294
321 321 322 322 322 322 322 322 321 321 323 323 321 314 313 312 309 309 308 306 306 304 303 299 295 290 291 293 293 293 293 296 298 297 295 292 293 293 293 293 292 293 293
322 321 322 322 323 324 324 324 322 320 317 315 314 312 313 309 302 303 306 305 303 297 292 291 289 288 289 288 288 292 291 293 294 295 294 293 292 292 293 292 291 292 293
323 323 323 324 323 321 304 300 306 315 311 308 307 297 295 294 291 290 289 288 291 291 288 288 287 286 286 286 287 288 288 289 287 294 290 289 292 290 291 292 291 291 291
322 320 318 315 303 296 292 297 294 301 296 293 292 291 290 289 289 287 287 286 286 286 285 288 286 286 286 287 288 288 287 286 284 289 289 287 291 290 292 291 291 291 290
306 301 297 295 292 290 290 291 290 290 288 287 287 287 285 285 286 286 286 284 284 284 285 286 286 287 287 288 287 286 286 286 288 288 289 285 289 289 291 291 291 291 290
292 290 290 289 288 287 287 288 288 285 284 283 284 284 284 283 284 286 284 283 283 283 285 286 285 285 284 284 284 286 285 284 284 285 289 286 287 287 289 290 292 291 290
288 287 286 287 287 287 287 287 286 285 283 282 282 282 282 282 282 283 283 283 282 283 284 284 284 283 282 284 281 283 283 281 281 281 286 284 285 286 284 288 290 291 291

GFSMA_sfc_thetae_099.txt.gz
Theta_e
336 334 335 335 334 334 330 330 327 329 328 326 326 326 325 326 326 324 324 325 326 325 324 323 322 321 320 319 318 318 317 317 317 316 315 315 315 313 312 311 311 311 310
336 330 334 335 334 334 332 331 330 328 327 325 325 325 324 325 326 326 324 323 324 325 325 323 321 321 320 319 317 317 317 315 316 317 316 316 313 312 311 310 309 309 309
334 331 331 334 332 334 336 333 331 328 324 323 322 323 323 325 325 325 324 324 323 323 323 325 323 321 319 319 318 316 318 316 315 317 316 314 313 312 310 308 308 307 307
333 332 329 327 333 332 333 330 328 323 321 319 318 319 320 323 324 325 324 324 322 321 321 323 323 322 319 319 317 318 317 316 316 317 316 314 313 312 310 307 307 306 306
326 325 325 326 333 332 331 329 326 324 320 319 317 318 319 319 322 323 324 324 323 322 321 321 322 321 321 320 318 317 317 316 315 318 316 315 313 310 308 307 306 305 305
326 324 324 326 329 328 328 326 325 323 322 320 317 316 318 319 320 321 322 322 322 323 322 323 321 319 320 321 320 317 317 317 315 317 315 313 311 309 308 306 306 305 304
325 325 322 327 327 324 323 324 325 325 321 323 317 316 317 317 318 318 321 322 321 321 322 320 322 319 318 321 320 317 318 318 317 316 315 313 311 310 308 307 306 306 305
324 324 324 326 325 323 324 325 326 321 321 321 315 314 309 311 314 315 316 319 323 320 319 319 320 320 317 315 316 318 317 319 318 317 315 313 312 311 309 308 308 307 306
322 322 324 325 325 325 323 325 326 323 318 318 322 315 309 308 312 314 315 315 317 319 319 318 318 319 319 317 315 314 314 316 319 318 316 315 314 313 312 311 310 309 308
322 323 324 325 326 327 324 324 324 324 323 316 316 317 320 317 313 310 313 314 314 316 319 319 317 318 319 319 317 313 309 310 314 319 319 317 316 315 314 313 312 311 310
323 324 325 327 328 326 328 327 326 324 323 322 317 316 316 316 318 312 310 311 315 316 316 319 317 319 318 318 317 312 309 307 308 314 317 319 319 319 317 315 314 313 312
322 323 323 326 327 328 327 326 326 324 324 325 323 322 317 315 313 313 311 312 310 313 313 312 313 318 319 315 313 311 308 306 307 310 313 316 317 318 317 315 315 315 315
320 320 321 322 324 327 326 327 325 326 326 324 324 323 324 322 322 318 312 309 310 312 309 311 313 313 315 316 314 310 308 304 304 307 309 311 312 314 315 315 314 314 314
324 322 320 320 321 324 323 326 328 325 326 327 327 327 325 324 324 321 317 310 307 311 312 310 313 312 312 315 314 307 309 303 303 303 305 306 307 309 310 311 312 313 313
324 325 325 323 323 323 324 322 324 324 326 327 328 328 326 326 326 326 323 316 310 305 307 312 312 312 310 309 308 310 309 306 302 302 302 303 305 307 307 308 308 307 307
324 324 325 324 324 324 324 325 325 326 325 326 326 326 325 326 324 324 321 317 314 310 306 312 309 312 309 307 306 306 307 306 302 300 300 300 301 303 304 304 304 305 305
325 324 324 324 325 325 326 326 326 325 324 325 326 325 325 326 325 324 319 317 314 311 307 311 312 312 307 305 307 307 307 307 306 299 298 298 299 299 300 300 301 301 302
326 325 324 322 323 324 325 325 325 324 324 324 325 325 324 322 318 318 320 315 313 312 307 305 309 309 309 309 310 307 306 305 306 300 298 297 297 297 297 297 297 297 298
324 324 324 324 324 325 325 325 325 325 325 325 325 324 321 317 316 317 316 312 311 310 308 305 305 307 307 300 302 299 300 298 300 299 297 296 296 296 296 295 295 295 295
324 323 325 325 326 323 323 324 323 324 324 324 324 320 319 318 316 314 313 310 309 307 305 303 302 296 292 292 293 292 292 295 295 300 298 295 294 294 294 294 294 294 294
324 324 323 323 323 323 322 323 322 320 320 319 319 309 295 294 291 292 299 303 304 303 300 297 289 288 288 288 288 290 289 289 292 294 294 294 295 294 293 293 293 293 292
323 323 322 322 322 309 292 295 303 311 302 299 296 292 291 290 288 288 287 287 286 289 289 289 287 287 286 286 287 286 286 285 286 292 291 290 292 290 291 292 292 292 292
321 307 301 298 294 293 291 292 292 292 290 289 288 288 287 288 288 288 286 286 285 286 284 287 285 284 285 285 287 286 286 287 287 289 288 286 290 288 291 291 292 292 292
295 293 291 290 288 289 289 288 288 287 286 285 285 285 285 285 286 286 286 285 284 284 285 286 286 286 287 288 287 287 287 286 287 288 288 283 288 287 290 291 293 292 292
289 288 289 288 287 287 287 287 286 285 283 283 284 285 284 283 284 286 285 284 284 284 285 285 285 285 284 285 285 285 284 284 283 284 287 285 287 287 288 290 292 292 291
287 286 286 286 286 286 287 287 286 285 283 282 283 283 283 282 282 283 284 284 284 284 285 285 286 285 284 285 282 283 282 280 280 280 285 282 284 284 283 289 290 290 291

GFSMA_sfc_thetae_102.txt.gz
Theta_e
334 334 332 331 324 325 323 320 320 323 322 320 322 321 322 323 321 321 320 324 325 326 324 324 323 321 321 320 319 318 318 318 318 317 316 316 315 313 313 312 312 311 311
334 332 331 330 327 326 325 322 321 325 323 321 321 321 321 321 321 320 320 321 324 325 325 323 323 322 321 320 319 319 318 318 318 317 316 316 314 313 312 311 311 310 310
333 330 329 330 328 327 326 325 325 324 321 320 320 321 320 320 322 320 320 319 319 323 323 325 323 321 321 321 319 319 318 317 316 318 317 316 314 312 311 310 309 309 309
331 328 328 328 329 328 328 326 325 321 319 317 316 317 318 318 320 320 319 319 318 319 321 323 324 324 322 321 320 319 319 318 316 318 317 316 314 313 311 310 309 308 308
327 327 327 328 330 328 327 327 323 320 316 314 314 314 315 316 318 319 319 319 318 318 317 321 322 322 323 321 320 320 320 319 318 317 318 316 315 314 312 309 308 308 307
326 324 325 327 327 327 326 324 321 320 316 314 313 314 313 313 315 317 317 320 319 318 317 317 318 318 320 322 321 320 321 320 318 318 319 317 316 314 312 309 308 307 307
325 322 322 323 323 324 323 324 321 317 317 319 313 311 311 313 313 314 316 316 317 318 317 317 316 316 316 321 321 321 320 320 320 318 319 318 316 314 311 309 308 307 307
324 320 321 321 321 321 322 321 318 317 318 318 312 309 304 307 310 312 311 315 316 316 316 317 317 316 315 316 317 322 320 320 320 319 318 319 316 313 312 310 309 309 308
323 322 322 322 320 320 320 319 320 318 315 315 314 311 306 303 305 308 309 310 312 315 315 315 315 315 315 313 315 317 316 317 321 321 320 320 318 314 313 312 311 310 310
322 322 323 322 321 321 319 320 321 319 317 312 313 315 313 312 307 302 307 308 309 311 313 314 314 314 314 314 313 312 311 311 314 320 322 321 320 317 315 314 313 313 312
320 320 321 322 321 321 321 320 319 319 319 315 313 312 311 311 312 307 305 304 308 310 313 314 314 312 313 313 314 313 309 308 309 315 319 321 321 320 318 317 315 314 314
319 319 319 321 321 321 321 321 321 319 319 318 316 314 312 309 307 307 306 306 306 309 311 311 312 314 314 313 314 312 309 307 307 310 314 317 320 320 320 320 320 317 316
317 318 319 320 320 320 321 322 321 320 319 319 319 317 316 314 315 312 309 307 307 308 307 309 309 310 312 313 314 311 310 305 306 308 310 312 314 317 318 319 319 319 319
318 320 320 321 321 321 321 321 321 322 321 320 319 318 318 318 317 316 312 308 306 308 307 307 311 313 312 312 312 309 311 305 304 305 307 308 310 311 313 315 316 317 317
321 321 320 320 320 320 320 320 320 320 320 319 318 319 318 320 319 318 317 315 311 306 306 309 310 314 313 314 313 312 311 309 303 303 303 305 307 309 309 310 311 312 313
321 320 319 319 318 318 319 319 319 318 318 318 319 318 319 320 320 320 320 319 316 312 308 312 312 315 314 312 312 311 311 308 304 302 302 302 303 305 306 306 307 307 309
321 321 321 320 319 319 319 318 317 317 317 318 319 319 318 320 319 319 320 319 316 313 309 312 314 314 313 310 310 308 308 308 308 302 301 301 301 301 302 302 303 304 305
321 320 321 320 320 319 319 318 318 319 319 318 318 318 318 319 317 319 318 317 316 315 312 310 312 311 310 309 308 307 307 308 307 305 301 301 300 299 299 298 298 298 299
321 320 321 319 319 320 319 319 319 319 318 319 318 317 317 316 316 314 314 315 316 315 312 309 308 309 306 300 301 300 298 300 301 299 296 296 297 297 297 296 296 296 296
321 320 320 320 320 320 320 320 319 319 319 319 316 302 296 294 294 296 302 302 305 307 308 306 305 302 293 293 293 292 293 294 295 300 298 295 295 294 294 294 294 294 294
321 321 321 321 321 320 312 307 316 317 309 299 295 293 291 291 290 289 290 289 292 294 295 293 290 288 288 288 287 289 289 288 290 293 293 293 293 293 294 294 294 293 293
322 321 318 308 300 297 292 294 301 297 295 294 290 289 289 290 288 288 287 287 286 287 286 287 286 285 285 285 286 285 285 285 285 289 288 286 291 289 290 290 292 292 292
303 297 295 293 290 290 290 290 291 290 288 288 287 287 287 287 288 287 286 286 286 286 284 286 284 283 284 284 285 285 285 285 285 288 286 284 287 287 290 292 292 292 292
292 290 289 289 288 287 288 288 287 286 285 285 285 285 284 284 285 286 286 285 284 284 284 285 284 284 284 285 285 285 284 284 285 286 287 281 284 285 287 289 291 292 292
288 287 287 287 286 286 287 287 286 284 283 282 283 284 283 282 284 286 284 283 283 284 286 285 285 285 285 285 284 282 281 279 278 281 284 281 284 283 285 286 288 291 291
286 285 285 285 286 285 287 287 286 284 283 282 283 282 283 282 283 284 282 280 278 279 282 282 283 284 285 285 284 282 281 277 277 278 281 277 278 279 277 282 282 284 285

GFSMA_sfc_thetae_105.txt.gz
Theta_e
332 330 326 324 322 321 319 315 315 316 314 315 317 318 319 319 319 320 320 324 325 326 325 325 324 323 321 321 320 320 319 319 318 318 317 316 316 316 314 313 313 312 312
332 329 324 321 320 320 318 316 317 317 315 315 318 318 319 318 318 319 319 321 323 325 325 324 323 323 322 321 319 319 319 319 318 318 317 316 314 313 312 312 311 311 310
332 329 325 321 321 321 318 317 317 318 317 318 316 317 319 318 318 318 318 318 320 322 324 325 324 323 322 321 320 319 319 318 318 318 317 317 314 313 312 311 311 310 310
331 329 327 322 324 322 319 319 318 319 315 315 314 315 315 318 318 317 318 318 317 318 321 324 325 324 322 322 321 320 320 319 318 318 318 318 315 314 312 311 310 310 309
328 328 328 326 326 322 323 321 320 319 314 313 314 312 312 314 317 318 317 317 316 316 316 321 322 323 324 323 322 321 320 320 320 318 320 318 317 315 314 312 310 310 310
328 326 327 326 327 323 325 322 319 317 314 313 315 312 310 312 314 315 316 317 316 316 316 316 318 318 321 323 322 322 322 322 322 320 319 320 318 316 315 313 311 310 310
327 326 326 325 327 324 324 322 319 314 311 310 308 307 308 309 311 312 314 316 315 315 314 315 315 315 317 322 323 322 323 323 323 321 320 319 319 317 316 314 312 310 310
325 323 324 323 325 324 322 320 317 314 312 313 308 307 302 305 306 308 310 312 313 315 315 314 315 314 314 316 317 322 322 323 323 322 321 321 321 320 317 315 313 311 310
325 322 322 321 324 323 320 318 317 314 312 312 312 309 303 302 302 305 307 307 310 312 313 315 315 315 315 314 316 317 317 319 323 323 324 322 321 321 320 316 314 312 311
324 320 322 321 321 323 320 318 318 316 313 310 311 313 311 310 302 299 304 305 307 309 311 312 313 314 316 315 315 314 312 313 317 321 323 324 322 322 321 319 315 314 313
323 320 322 321 320 320 319 318 318 318 315 313 311 310 308 308 307 304 300 301 304 307 309 312 313 312 314 313 313 312 310 310 312 316 319 322 323 322 321 320 319 316 314
321 320 321 320 320 320 319 319 318 318 317 315 313 312 308 307 305 304 302 302 302 304 308 309 311 313 312 311 313 311 309 308 309 312 315 317 320 322 322 321 320 319 318
318 319 320 320 320 320 320 319 318 318 318 317 313 312 313 311 310 307 306 304 304 306 306 307 309 311 312 312 312 310 311 306 306 308 311 313 315 317 320 321 321 321 320
318 318 318 319 320 320 319 319 318 318 318 318 316 317 316 315 315 313 310 305 302 303 305 306 308 310 310 311 312 309 311 306 305 305 307 309 310 312 313 316 318 319 319
319 317 316 317 319 320 319 318 318 317 318 318 318 318 317 317 317 317 316 313 311 306 307 307 308 313 314 312 311 311 312 309 306 304 304 306 308 309 310 311 313 314 316
318 317 316 316 318 319 319 319 318 318 317 318 318 317 317 317 316 316 315 315 314 312 309 312 311 311 312 313 313 312 313 309 306 303 302 303 304 306 307 308 308 309 311
318 318 317 317 318 318 319 318 318 317 316 316 316 316 316 317 316 316 316 317 315 315 311 314 315 316 310 311 312 313 312 312 311 303 301 301 301 302 302 303 304 305 306
319 319 319 318 318 317 317 316 315 317 315 314 314 315 315 317 315 316 316 315 316 316 314 312 315 314 310 311 310 311 310 309 308 305 301 301 301 300 300 300 300 300 301
318 320 319 318 317 318 317 316 316 316 315 315 316 315 310 307 310 304 307 308 309 310 310 307 305 307 304 298 299 299 298 298 301 301 297 296 297 298 298 298 298 298 298
318 317 319 319 319 318 318 317 318 317 317 307 301 297 294 294 293 296 296 294 297 299 299 298 298 293 292 293 292 291 291 294 294 298 298 296 295 295 295 295 295 295 295
318 318 317 319 318 314 307 310 314 311 300 295 293 292 291 291 290 289 291 289 291 291 290 290 286 288 286 286 285 287 287 288 289 290 291 292 293 294 294 295 294 294 294
317 312 301 300 297 294 291 295 299 295 293 291 289 289 289 289 288 287 287 287 286 286 285 285 284 284 283 284 285 285 285 284 283 290 287 286 289 288 290 291 292 292 292
298 295 292 291 289 289 290 290 290 290 288 288 287 286 286 286 286 286 285 285 285 285 284 284 282 282 282 282 282 282 281 281 281 284 285 283 282 283 287 289 291 292 292
291 289 288 288 287 287 288 288 288 286 285 284 284 284 283 284 285 285 285 284 284 284 284 284 282 282 281 283 281 281 280 280 280 282 280 277 282 280 282 284 288 290 289
287 287 287 286 286 286 287 286 285 284 283 282 283 283 283 283 284 285 282 280 280 281 285 286 286 286 285 284 282 278 275 274 273 276 278 275 277 276 277 278 281 283 283
285 285 285 286 286 286 287 286 285 284 282 281 282 283 284 283 283 282 280 279 278 278 279 279 280 280 280 280 280 278 276 273 273 271 275 273 274 273 271 276 276 277 278

GFSMA_sfc_thetae_108.txt.gz
Theta_e
330 330 328 327 324 320 317 314 314 313 313 315 318 317 317 317 318 320 320 324 326 326 326 325 325 324 322 322 321 320 320 319 319 318 318 317 317 317 315 314 314 313 312
330 328 326 322 320 319 315 313 313 311 312 314 316 317 317 317 318 318 319 320 324 326 326 325 324 324 323 322 320 320 319 319 319 318 317 317 317 316 314 313 312 312 312
329 326 323 319 319 316 312 312 314 313 314 315 315 316 317 316 317 318 317 317 320 323 324 325 325 323 323 322 320 320 320 319 319 318 317 317 316 314 313 312 312 311 311
330 325 320 318 319 317 313 314 314 315 314 314 313 315 315 316 316 317 317 317 316 318 321 324 325 325 323 322 322 321 320 320 319 319 318 318 317 315 314 312 312 311 311
329 324 320 318 318 317 314 316 316 317 314 312 313 311 314 314 315 317 316 316 315 315 315 322 323 323 324 324 323 322 322 321 320 319 319 319 318 317 315 314 312 312 311
329 325 320 320 319 319 314 318 317 316 315 312 315 312 313 315 316 315 315 316 315 314 314 315 318 318 321 324 323 323 323 323 323 322 320 320 320 319 317 316 314 313 312
329 327 322 322 320 320 315 319 319 315 310 311 309 307 308 311 313 314 315 314 313 314 313 313 315 314 317 322 324 323 324 325 324 324 323 321 321 321 320 317 316 314 313
328 328 325 323 321 319 320 319 317 312 311 310 307 305 302 305 307 309 312 314 312 314 313 313 313 314 314 315 317 323 323 324 325 324 325 324 323 322 322 319 317 316 314
327 327 326 324 324 322 321 320 317 315 312 310 310 306 301 300 302 306 306 309 311 310 312 313 313 314 314 313 316 318 318 319 324 326 326 325 324 322 322 322 320 317 316
325 326 326 326 326 324 322 321 318 315 313 310 309 311 309 307 304 301 304 306 306 310 311 312 313 314 314 313 314 313 312 313 317 322 325 325 325 324 322 323 322 321 318
325 323 323 324 325 324 322 319 317 317 314 312 310 309 308 308 307 302 300 302 303 306 307 311 312 313 314 314 313 313 310 309 311 316 320 322 324 324 324 323 323 322 321
323 321 321 322 324 323 320 319 318 317 316 315 314 311 310 308 307 306 301 302 301 304 305 306 308 311 312 313 315 313 310 308 309 312 316 319 321 322 323 324 323 323 322
321 319 320 320 320 322 321 320 319 317 317 316 314 313 312 310 310 308 306 303 302 304 305 306 308 310 311 312 312 311 311 306 307 309 312 314 316 318 319 320 322 323 323
321 320 320 320 320 320 320 320 318 317 317 316 315 314 314 311 312 311 308 306 303 304 304 306 307 309 309 311 312 309 311 306 305 305 307 309 311 312 313 315 316 318 320
321 320 320 319 320 319 319 318 317 316 316 316 316 317 316 316 315 315 314 312 309 305 305 306 306 310 312 311 310 311 311 308 305 304 304 305 307 309 310 311 312 313 315
319 318 319 319 319 319 319 318 316 317 316 317 317 316 316 317 316 316 316 315 313 311 307 311 310 310 311 312 312 311 311 308 306 304 303 303 304 306 307 307 308 309 310
318 317 317 317 317 318 319 318 317 317 316 315 315 314 315 316 316 316 316 315 314 313 310 312 314 316 308 310 311 312 312 313 312 302 299 300 300 301 301 302 303 304 305
317 317 316 316 316 317 317 317 316 317 316 315 315 315 314 316 315 316 314 312 313 314 313 311 315 313 309 305 301 301 300 301 301 300 299 298 298 298 298 298 298 299 299
316 317 316 315 315 316 316 316 316 315 314 315 314 313 311 306 309 302 303 302 302 304 304 302 302 297 297 294 293 295 295 296 296 297 297 297 296 296 296 295 295 296 296
317 316 316 316 316 316 316 315 315 314 314 305 298 295 293 292 293 296 293 293 295 296 295 294 292 291 290 291 289 287 287 288 288 292 292 292 292 293 294 294 295 295 295
317 318 317 316 316 316 313 315 315 313 298 293 292 291 290 290 289 289 289 288 290 289 290 287 286 285 284 284 283 285 285 284 285 288 285 286 287 288 289 290 291 292 293
315 310 306 300 296 296 292 295 299 295 293 290 288 288 288 288 287 287 286 286 285 286 285 284 283 282 281 282 282 281 280 279 279 284 282 282 283 284 284 284 286 288 289
297 294 293 292 290 290 291 291 291 290 288 287 286 286 286 286 286 285 285 285 285 285 283 283 281 280 280 281 281 279 278 278 276 279 277 276 279 277 278 281 283 286 285
291 289 288 288 287 287 288 288 287 286 284 284 284 284 284 284 285 285 283 282 283 283 284 283 282 281 280 279 278 277 275 275 276 277 276 271 276 274 276 277 281 282 282
288 287 287 286 285 285 286 286 285 284 283 283 283 282 282 281 283 284 282 280 279 279 283 283 282 281 280 280 278 274 272 271 270 273 275 271 273 273 273 274 276 279 280
286 286 285 286 286 285 286 285 284 283 281 281 282 282 283 282 282 282 280 277 276 276 277 275 275 275 276 276 276 274 272 268 269 267 272 269 270 270 268 273 273 274 275

GFSMA_sfc_thetae_111.txt.gz
Theta_e
328 330 331 330 325 320 320 316 313 315 314 316 316 317 316 316 317 318 318 325 326 327 326 326 325 324 323 322 321 321 320 319 319 319 319 318 317 317 317 315 315 314 313
329 330 329 327 322 321 316 316 314 313 313 315 315 316 315 316 316 316 317 320 324 326 326 326 325 324 323 322 321 320 320 319 319 319 318 317 317 317 315 314 314 313 313
329 329 328 323 320 316 312 311 311 310 312 315 314 315 316 316 316 316 316 317 320 323 324 326 325 324 323 322 321 320 320 319 319 319 318 317 317 317 315 313 313 312 312
330 327 324 321 318 313 312 312 312 311 310 314 313 314 314 315 315 315 315 315 315 317 321 324 325 325 323 322 322 321 321 320 319 319 319 318 318 316 315 314 313 313 312
327 325 322 318 316 313 312 311 311 312 311 313 314 313 312 312 314 317 315 314 315 315 315 322 323 323 324 323 323 323 322 321 321 320 320 319 319 318 317 315 314 313 313
327 324 320 317 316 312 310 312 313 312 311 313 315 312 311 312 313 314 315 316 314 314 314 315 317 317 321 324 323 324 324 324 323 322 321 321 321 320 319 317 316 314 313
326 322 319 317 315 311 310 313 313 312 309 311 309 308 307 311 312 312 312 313 313 313 313 313 313 313 315 323 324 324 325 325 325 324 324 323 322 323 322 321 318 317 316
326 323 319 317 315 312 311 314 315 310 310 311 308 306 301 304 309 311 312 313 311 312 312 312 312 313 312 313 317 323 324 325 326 326 327 326 325 323 323 323 321 319 318
327 325 320 319 316 315 312 316 316 315 311 308 311 306 301 300 303 305 309 311 311 310 312 312 312 313 313 313 315 317 318 320 325 325 327 326 326 325 324 323 323 322 321
328 327 322 320 317 317 314 316 318 316 312 309 308 309 308 306 302 300 304 306 311 311 310 310 312 312 313 313 314 313 312 313 317 322 325 326 326 326 326 325 324 324 323
327 327 325 322 320 319 319 317 318 314 314 312 310 308 308 308 306 303 300 302 304 307 311 312 312 312 313 313 313 312 310 309 310 316 320 323 324 325 325 325 325 325 324
325 326 326 324 323 322 321 320 318 315 314 312 312 310 309 308 306 305 303 302 303 305 307 309 309 311 312 313 314 312 310 308 309 312 315 318 321 323 324 324 325 325 325
323 324 324 324 324 324 321 318 317 316 315 313 313 312 311 310 310 309 308 306 304 306 306 306 308 309 311 311 312 311 312 307 307 309 312 314 316 317 319 321 322 323 324
323 322 322 323 324 321 319 319 318 317 317 316 315 314 314 313 312 310 308 307 303 304 306 306 308 308 308 309 310 308 311 306 305 306 308 309 311 312 313 314 316 317 319
322 321 321 321 322 321 320 319 318 317 317 317 317 315 315 315 314 313 312 310 308 304 306 308 306 310 309 309 308 311 311 308 305 304 303 304 306 308 309 309 310 311 313
321 320 320 320 321 320 320 320 318 317 316 316 316 315 315 316 316 315 315 314 312 310 307 311 309 309 311 311 311 309 311 309 303 299 299 300 301 302 302 302 303 305 306
320 319 319 319 319 318 319 318 317 317 315 315 315 315 315 316 315 315 315 315 314 313 309 312 311 311 307 306 303 303 302 301 301 297 298 298 297 297 297 297 297 298 298
318 318 318 318 318 317 317 316 315 316 315 314 314 314 313 314 313 314 313 312 312 312 312 310 311 301 296 296 297 295 296 295 295 296 295 293 293 293 295 295 295 295 295
317 317 317 316 316 317 317 317 316 315 315 315 314 313 306 305 306 303 303 302 301 302 301 302 298 295 293 290 291 290 291 290 291 294 290 291 290 291 291 291 291 291 291
316 316 316 316 316 317 317 316 316 314 310 301 297 294 293 293 295 296 294 294 295 295 294 293 291 288 287 287 287 284 284 285 285 288 287 288 287 289 289 287 287 287 289
315 315 315 315 315 315 313 313 313 309 297 292 291 290 290 290 290 289 289 288 290 289 288 287 285 284 282 282 280 281 281 281 284 282 281 281 283 283 282 282 283 284 286
314 313 309 305 301 299 293 298 301 297 293 290 288 288 288 288 287 287 286 286 285 285 283 282 281 280 279 280 281 279 278 276 275 281 277 276 280 278 277 278 281 282 284
301 297 295 294 291 292 292 293 292 291 289 288 287 286 286 286 286 285 285 285 285 284 283 282 278 278 275 276 277 275 274 274 273 276 274 273 276 275 276 277 279 282 282
293 291 289 289 288 289 289 289 287 286 285 285 285 285 285 284 284 283 282 281 282 281 281 280 278 277 277 276 275 274 273 273 273 275 273 267 273 272 273 274 278 280 280
289 287 287 287 286 286 287 287 286 284 282 281 282 282 283 283 284 284 280 279 278 278 280 280 279 278 277 277 275 271 269 268 267 270 272 268 270 270 271 272 274 277 277
286 286 285 285 286 285 286 286 285 283 281 280 281 282 283 281 281 281 279 277 274 273 274 274 273 273 273 273 274 272 270 266 266 264 270 267 269 268 266 272 271 272 271

GFSMA_sfc_thetae_114.txt.gz
Theta_e
327 330 330 330 329 329 327 319 315 315 315 316 318 318 317 318 318 319 321 325 327 328 327 327 326 325 324 323 322 321 320 320 320 319 319 318 318 318 317 316 316 315 314
328 328 328 328 326 326 324 318 314 313 315 316 315 316 316 317 317 317 319 322 324 326 327 326 326 325 324 323 322 321 320 320 320 319 318 318 318 317 316 315 315 314 314
328 328 329 327 324 322 319 315 311 311 314 314 314 314 315 316 317 317 318 319 321 323 325 327 326 324 324 323 322 321 320 320 319 319 318 318 317 317 316 315 315 314 313
329 328 328 325 322 319 317 315 312 310 312 313 312 313 314 315 316 316 316 317 317 319 322 324 325 325 324 323 322 322 321 320 320 319 319 318 318 317 317 316 315 314 314
329 328 328 324 318 316 316 314 311 312 312 312 313 312 312 314 315 316 315 316 316 317 317 322 323 323 324 323 323 323 322 321 320 320 320 320 319 319 318 316 316 315 315
327 328 325 319 318 314 313 314 311 311 311 313 314 311 311 312 313 314 315 316 316 316 316 317 319 319 322 325 324 323 324 323 322 322 321 321 321 320 320 319 318 317 316
326 325 320 318 316 313 312 312 312 311 309 311 309 308 308 312 311 312 313 314 315 315 314 315 316 316 317 323 325 324 325 325 325 325 324 323 323 323 323 323 321 319 318
324 322 320 318 315 312 310 311 312 309 309 312 308 306 304 307 310 311 312 313 313 314 314 314 314 315 315 315 318 323 324 325 326 326 327 327 326 325 324 323 324 323 321
323 321 319 317 315 311 310 311 312 312 309 308 313 308 302 303 305 306 309 312 312 312 314 314 314 314 314 314 315 317 317 320 323 324 327 327 327 327 326 326 325 325 324
324 321 319 318 315 311 310 311 313 313 311 308 308 308 308 306 304 301 306 309 311 311 312 312 314 314 314 315 314 313 311 312 316 322 324 326 326 326 327 327 326 326 325
325 322 320 318 315 314 311 312 314 314 312 312 309 308 308 308 306 303 301 304 305 310 313 313 313 313 314 314 314 313 310 309 310 316 320 323 325 325 325 326 326 326 326
326 325 321 319 317 315 313 313 316 314 313 314 311 309 308 307 307 305 303 303 304 306 308 311 312 313 313 313 314 312 310 308 308 312 315 318 320 322 324 325 325 325 325
324 324 324 321 319 317 318 315 317 315 313 312 311 310 311 310 310 309 308 305 305 308 308 309 308 310 312 312 313 311 311 307 307 309 311 313 315 316 318 318 319 320 320
324 325 325 323 321 319 320 318 317 316 314 313 313 313 313 312 312 310 309 307 305 305 306 308 310 309 309 310 311 308 311 305 304 304 306 307 309 309 310 310 311 312 313
322 324 325 325 323 322 320 319 317 316 315 314 314 315 314 314 314 314 312 310 307 303 305 309 309 311 311 310 309 310 310 300 300 300 300 301 302 302 302 302 302 303 304
322 322 322 324 324 322 320 319 317 317 316 315 316 315 315 315 315 314 313 313 311 309 307 311 312 311 308 309 303 303 302 299 297 296 296 296 296 297 297 297 298 298 299
321 321 321 322 321 320 320 319 318 318 316 316 316 315 315 316 315 315 315 314 313 313 309 312 313 304 298 299 296 298 296 296 295 293 292 292 292 293 293 293 292 292 293
319 320 320 320 320 320 320 319 317 317 316 315 315 315 314 314 314 314 313 313 313 313 312 309 303 296 291 294 292 292 292 291 294 291 291 289 290 291 290 290 289 288 290
317 318 318 318 318 319 319 318 318 317 316 315 315 314 313 313 311 307 307 307 304 302 301 302 293 292 290 288 289 288 287 287 291 289 288 286 288 289 287 286 286 285 285
316 316 317 317 317 317 317 317 316 315 309 302 299 298 297 300 300 299 297 296 297 294 294 293 289 287 286 286 285 282 283 284 285 284 284 283 285 285 283 282 282 283 283
316 316 316 316 316 316 316 316 313 303 295 292 291 291 291 292 291 292 291 291 291 289 288 286 284 283 281 281 279 280 279 280 282 280 279 280 281 281 280 279 280 281 283
315 314 311 309 305 303 297 299 301 297 293 290 288 287 288 288 287 287 286 286 287 286 283 282 281 277 276 277 278 276 275 275 274 280 276 276 279 277 277 276 279 280 282
303 300 298 298 295 296 294 294 293 293 290 288 287 286 285 286 285 285 284 283 283 282 281 280 277 276 274 275 276 274 273 273 273 275 273 273 275 273 275 275 277 280 280
294 292 290 290 289 290 291 290 289 288 287 286 286 285 284 283 284 283 281 279 278 278 279 279 277 276 275 274 274 273 272 271 273 275 272 268 272 271 273 274 277 279 278
289 288 288 287 286 286 288 287 286 284 283 283 284 284 283 282 284 284 279 277 276 277 279 279 278 277 276 275 274 272 269 268 267 270 271 269 270 270 271 273 275 276 276
287 286 285 286 286 285 287 286 285 284 282 281 281 281 282 281 281 280 278 276 274 274 274 273 273 273 273 273 273 271 270 267 266 265 270 268 268 268 266 271 272 272 272

GFSMA_sfc_thetae_117.txt.gz
Theta_e
335 331 332 334 335 333 334 331 329 327 329 328 327 327 326 327 326 326 328 326 327 329 328 328 327 325 324 324 323 322 322 321 321 320 319 319 319 319 318 317 317 315 315
334 332 330 331 332 331 332 328 326 324 326 327 326 326 326 326 326 327 326 326 325 327 328 327 326 325 325 324 323 322 321 321 321 320 320 319 318 318 317 316 316 314 314
330 331 329 329 330 329 326 325 324 324 325 326 326 325 324 325 325 327 327 327 325 323 325 327 327 325 325 324 322 321 321 321 320 320 319 319 318 318 317 316 315 315 314
330 329 329 328 327 325 324 321 324 322 323 324 323 323 323 324 325 326 326 326 326 325 323 325 326 327 325 324 323 322 322 321 320 320 320 319 318 318 318 317 315 315 315
331 330 328 327 324 322 322 323 323 323 322 322 322 322 323 323 324 324 325 326 326 325 325 323 323 324 325 325 323 323 323 322 321 321 320 320 320 319 319 318 317 316 316
330 329 328 325 323 321 321 322 322 322 322 322 319 320 322 323 323 324 324 324 325 325 325 325 324 322 322 325 324 324 324 324 323 323 322 322 321 321 320 320 320 319 318
328 328 328 323 322 319 322 324 322 320 320 322 319 318 319 321 322 322 324 323 323 323 324 324 324 323 323 324 325 325 325 325 325 325 325 324 325 324 324 324 323 322 321
326 327 326 322 321 319 319 320 321 319 320 321 318 317 312 315 319 320 321 322 323 323 322 323 323 324 323 323 323 324 325 326 326 326 328 327 327 327 325 325 324 324 324
326 324 323 322 319 317 316 320 321 320 316 319 322 318 312 312 314 318 319 321 322 321 322 320 321 322 323 323 322 321 318 321 324 325 326 327 327 328 328 327 327 326 326
322 322 322 319 317 317 316 320 319 319 318 317 319 318 321 318 313 309 315 319 321 320 320 319 321 321 322 321 320 316 312 312 317 322 323 325 326 327 327 327 327 327 327
322 321 320 318 315 315 318 318 320 321 322 320 318 316 316 316 317 314 311 313 317 319 319 320 322 321 319 318 319 319 311 309 310 315 319 322 324 325 326 326 327 327 326
323 322 319 317 315 315 316 317 318 320 321 322 322 319 316 314 313 313 312 314 315 316 319 319 320 320 321 321 319 313 310 307 308 311 314 316 318 319 320 321 321 322 322
325 322 321 318 317 317 316 317 318 319 320 320 321 319 319 318 317 317 315 311 311 315 315 315 316 318 318 318 320 312 310 305 305 308 310 311 312 313 314 314 315 316 317
324 325 323 323 319 318 315 317 319 319 320 321 321 320 319 317 318 317 314 313 310 313 314 315 314 315 315 317 310 309 302 301 301 302 303 304 304 304 304 305 306 306 307
326 325 324 323 323 318 319 319 320 319 321 320 319 319 318 318 319 318 317 315 312 307 309 315 313 314 314 308 308 302 301 298 297 297 297 298 299 299 300 300 300 300 300
324 324 325 324 322 320 319 318 318 320 318 318 317 317 317 318 318 316 315 315 313 311 307 315 313 307 306 302 301 300 298 296 294 293 293 294 294 295 294 293 293 294 295
325 324 324 324 322 320 319 318 318 317 315 315 315 314 315 316 315 314 315 314 313 312 309 313 312 301 297 296 296 296 296 294 292 290 290 292 292 290 290 289 289 289 290
323 323 322 322 322 322 320 318 316 316 315 314 315 315 315 315 315 315 314 314 314 315 312 310 302 293 292 292 292 289 290 293 291 288 287 289 289 287 286 286 285 285 285
320 320 320 320 320 322 320 319 317 316 316 315 315 315 315 315 314 314 314 314 313 308 307 307 292 292 287 289 288 288 286 288 288 287 285 284 286 285 284 283 283 283 283
317 318 318 318 319 319 319 319 318 317 316 316 315 314 313 314 313 310 306 303 300 299 298 294 289 286 286 285 284 282 282 284 283 283 282 282 284 283 282 281 281 282 283
318 318 317 316 317 317 317 317 313 303 298 294 293 293 293 293 292 293 296 295 295 292 290 287 284 282 281 279 278 279 279 280 281 280 279 281 284 282 282 281 280 281 282
316 315 313 311 308 305 296 296 300 297 293 290 288 287 288 288 286 286 285 285 287 287 284 282 279 277 276 277 277 276 276 276 276 282 279 279 281 280 280 280 279 280 281
306 302 300 300 296 296 294 293 292 292 289 288 286 286 285 285 284 283 282 282 281 281 280 279 276 275 273 275 276 275 275 276 277 279 277 277 279 277 278 278 279 279 280
298 295 292 292 291 291 291 290 289 288 286 286 285 285 284 283 282 281 279 278 277 278 278 278 276 275 275 275 276 275 275 276 279 278 276 273 277 275 277 278 278 278 278
291 289 289 288 287 287 288 288 287 285 284 283 284 284 283 282 282 282 278 276 276 276 279 278 278 277 276 275 275 275 274 274 273 274 275 273 275 274 275 276 278 277 277
287 286 286 286 286 286 287 287 286 285 282 281 281 282 282 281 281 280 278 276 273 273 273 273 273 273 274 274 274 273 273 270 270 272 274 270 272 272 271 275 276 276 277

GFSMA_sfc_thetae_123.txt.gz
Theta_e
343 343 342 337 337 341 337 337 336 336 334 331 330 331 331 330 329 328 327 328 329 331 330 330 328 328 327 326 326 325 324 323 322 321 321 321 321 320 319 317 317 316 315
345 341 341 342 339 340 338 334 336 330 331 331 331 330 330 329 327 328 327 328 327 329 330 330 328 327 326 324 324 323 323 322 322 321 321 320 320 319 318 317 316 315 314
345 342 339 340 338 335 333 332 336 330 328 330 330 330 329 328 326 327 327 328 326 325 327 329 329 327 326 325 324 323 323 323 322 321 320 320 319 319 318 317 316 316 316
345 343 339 338 337 333 331 329 329 328 328 329 330 327 327 326 325 327 326 326 326 326 325 327 328 328 327 325 324 324 323 322 322 322 321 320 320 319 319 319 318 317 317
344 341 338 335 336 335 330 328 327 327 328 327 329 327 328 325 325 324 325 326 327 325 325 325 325 325 327 327 324 324 324 323 322 322 322 321 321 320 320 320 320 320 319
342 340 336 334 336 331 328 326 325 327 329 329 326 324 325 326 326 326 324 324 325 327 325 325 324 323 324 327 326 325 325 325 323 322 322 321 322 322 322 322 321 321 321
341 336 335 332 330 327 326 326 324 323 326 328 325 321 324 326 327 325 324 323 324 324 326 325 324 323 323 325 327 325 326 326 326 325 325 324 325 325 324 325 324 324 324
336 336 334 329 330 327 324 324 323 321 322 328 323 318 314 318 322 324 324 324 327 322 323 324 324 324 324 323 323 326 326 327 327 327 328 328 327 327 326 326 326 326 326
336 336 333 329 327 327 323 323 323 321 319 324 326 321 314 313 317 321 324 324 326 323 324 323 324 324 324 324 323 322 320 323 327 327 329 328 328 328 327 328 328 328 328
334 334 334 330 326 326 324 323 324 323 321 320 325 326 326 322 316 313 320 322 324 323 326 324 323 324 325 326 325 317 315 314 319 324 325 325 325 326 326 326 326 326 327
334 335 334 331 326 325 324 324 323 322 323 323 324 323 324 325 324 318 314 317 320 323 324 325 326 326 326 325 328 317 311 309 311 316 318 319 320 321 321 321 321 322 322
333 333 332 329 328 324 323 323 324 322 322 324 325 326 324 321 319 321 318 319 318 322 324 325 326 325 326 328 318 307 306 306 307 311 313 313 314 315 315 316 317 317 317
326 327 327 324 324 323 322 322 322 321 321 322 322 325 326 324 326 324 321 319 318 320 320 327 325 326 325 319 311 307 303 303 306 308 309 309 310 310 309 309 309 309 309
326 326 323 322 321 320 321 322 322 322 322 322 322 326 327 325 326 324 322 319 316 318 321 320 321 319 319 311 303 302 299 299 300 301 302 302 301 300 300 301 301 303 301
329 325 323 320 319 318 319 320 320 321 322 323 323 326 324 325 326 325 325 324 320 313 313 316 314 312 310 306 303 299 297 296 297 297 296 296 296 295 294 294 293 293 293
329 325 324 320 317 317 317 318 319 320 321 322 323 324 325 326 325 326 326 325 324 318 312 317 309 305 302 300 297 295 294 294 294 292 291 291 290 290 289 289 288 289 289
330 328 323 321 317 315 316 317 317 319 319 320 323 324 324 325 325 327 328 327 323 321 316 311 304 299 297 296 295 293 291 289 289 290 289 288 287 286 286 285 286 286 287
330 327 324 322 319 317 316 316 315 317 317 319 321 322 323 323 324 325 324 320 320 321 317 310 297 294 292 292 291 292 290 289 287 286 287 287 286 285 284 284 284 284 285
327 327 326 325 322 319 317 317 317 317 316 318 319 322 323 323 323 321 319 318 319 314 314 308 294 290 289 289 286 287 287 287 286 285 283 285 284 284 283 283 283 283 283
326 326 326 327 326 322 320 319 318 318 317 317 317 318 320 321 320 318 315 314 312 310 307 296 289 286 285 284 285 283 282 284 282 282 282 282 284 284 283 283 283 282 282
324 324 323 322 322 322 322 320 319 318 317 317 312 310 310 309 300 301 311 311 310 299 295 291 286 284 281 281 280 280 280 282 280 280 281 283 284 285 285 285 283 282 282
322 321 320 316 310 305 295 299 309 311 306 296 291 290 292 291 289 288 287 286 293 295 290 287 283 281 278 278 279 278 280 281 279 280 279 282 284 283 283 283 282 281 281
316 308 304 303 299 296 292 293 293 293 291 289 288 287 286 286 286 284 283 282 282 283 284 284 280 278 277 278 279 279 280 281 278 277 278 280 282 281 281 281 281 281 281
303 298 295 295 293 291 290 290 289 288 286 285 285 285 285 284 284 282 280 277 277 277 278 278 278 277 278 279 279 279 280 280 280 278 279 277 280 279 281 282 281 281 282
296 293 292 291 290 289 289 288 288 286 284 283 284 284 284 282 283 284 279 277 276 277 280 280 280 280 280 280 280 280 279 280 278 279 278 278 279 278 280 281 282 282 282
291 290 289 289 289 288 288 288 288 285 282 281 281 281 282 281 281 281 278 276 274 275 275 275 276 277 277 278 279 280 280 278 278 278 276 276 277 277 276 280 280 281 282

GFSMA_sfc_thetae_126.txt.gz
Theta_e
340 339 338 337 336 336 335 333 333 332 332 333 331 326 327 327 326 325 326 328 330 331 330 330 329 330 329 327 327 325 324 323 323 323 323 323 322 321 319 319 318 317 316
341 339 338 337 335 335 335 334 332 331 330 330 326 326 326 325 325 324 325 325 327 329 330 330 329 328 328 327 326 324 324 323 322 323 322 321 321 320 319 318 317 316 314
343 339 338 336 335 334 334 333 330 330 328 329 327 326 326 325 323 324 324 324 324 326 328 330 330 328 327 325 324 324 324 323 323 322 321 321 320 319 318 317 316 316 315
343 340 337 336 336 333 331 329 328 326 326 326 326 324 326 323 322 323 324 324 323 324 325 327 328 328 328 325 325 324 324 323 323 322 322 321 320 319 319 318 318 317 317
343 340 337 336 335 332 329 327 327 326 324 325 326 325 323 320 320 324 323 322 322 322 323 325 325 325 326 327 325 325 324 324 323 322 322 321 320 320 320 320 320 320 320
343 340 337 336 334 330 328 327 326 326 325 325 326 323 321 320 319 319 321 322 321 322 322 322 321 320 323 327 326 325 325 324 323 323 322 322 321 322 323 322 321 321 322
340 340 336 334 333 330 328 327 326 324 323 325 322 319 321 321 321 319 322 320 320 321 322 321 320 319 321 325 327 326 326 326 325 324 323 323 324 325 325 325 324 324 324
339 338 334 332 332 329 327 326 325 322 322 323 319 317 311 316 320 320 318 318 318 320 321 321 320 319 319 320 320 326 326 327 326 326 327 327 327 326 326 326 326 326 326
337 336 335 331 330 328 326 325 324 322 318 321 323 316 310 308 314 318 316 317 317 315 320 321 320 320 319 319 320 321 320 323 328 328 329 329 328 328 327 327 327 327 327
333 334 333 330 329 328 325 325 325 323 320 318 322 321 318 316 311 309 316 316 320 317 317 317 318 319 319 320 319 319 315 315 319 325 326 325 325 324 324 323 324 323 324
331 332 332 330 328 328 325 325 324 323 322 319 320 319 318 318 316 312 310 313 318 316 318 317 318 318 321 321 320 313 313 310 312 315 317 318 318 319 318 319 320 320 321
330 330 330 331 328 327 325 324 324 324 322 321 321 321 319 316 314 313 311 312 311 315 316 318 320 320 320 310 310 308 307 307 309 312 314 315 315 315 315 317 316 315 314
329 329 330 330 327 326 325 324 324 324 322 320 321 321 321 319 319 317 315 313 312 313 314 318 320 320 314 307 305 305 305 304 306 308 310 309 309 309 309 309 310 308 306
327 326 326 326 326 325 324 324 323 323 322 321 322 321 321 320 321 320 317 315 311 312 315 315 314 309 306 302 301 301 300 301 301 302 302 302 301 301 301 300 299 298 298
326 326 323 322 322 322 322 322 322 322 321 321 322 322 321 322 322 321 320 319 314 309 310 312 308 307 305 301 299 297 297 298 297 297 297 296 296 295 294 293 293 293 293
327 325 322 321 320 320 320 320 321 321 320 319 321 321 321 322 321 320 319 319 318 315 309 311 303 302 299 297 296 295 295 294 293 292 292 291 291 290 289 289 289 290 291
327 325 321 319 318 317 318 318 319 320 320 318 321 321 320 320 319 320 320 319 318 317 308 302 300 298 296 293 292 291 290 290 290 290 289 288 287 287 286 287 287 287 288
328 325 323 320 318 317 317 317 317 319 319 319 319 319 319 320 320 320 319 318 316 316 310 300 296 293 292 293 291 289 289 287 287 288 288 287 286 285 285 285 285 285 286
327 326 324 320 318 317 316 316 317 318 318 319 319 319 318 319 318 318 317 316 315 314 310 300 293 291 289 289 288 287 286 285 286 285 285 285 285 284 284 284 284 284 284
324 326 325 323 320 318 316 316 316 317 317 318 319 320 319 319 318 318 316 315 313 310 304 296 290 286 285 286 286 284 282 283 281 283 283 283 285 285 284 284 284 283 283
322 323 323 323 323 319 317 316 316 316 315 315 315 315 313 313 308 313 316 312 310 304 299 292 286 284 282 282 282 282 282 280 280 281 281 283 284 285 285 284 283 283 282
321 320 320 317 311 308 294 301 311 315 314 313 312 300 299 296 293 292 291 291 299 299 293 291 285 284 281 280 281 281 281 280 278 280 280 281 282 282 282 282 282 282 282
314 308 305 302 298 296 293 294 294 295 293 293 295 293 288 289 289 286 286 285 285 286 286 288 286 282 279 279 280 280 280 281 277 277 280 280 280 279 281 281 282 281 282
304 299 296 295 292 291 291 290 289 288 287 286 287 287 287 285 285 285 283 281 280 280 282 282 281 280 280 281 281 281 281 278 278 278 280 278 279 278 280 280 283 282 283
296 293 292 291 289 288 289 289 288 287 285 285 285 285 286 285 286 287 282 279 278 279 282 283 282 282 282 282 282 280 278 278 278 277 277 277 278 276 277 277 279 282 283
291 290 289 289 288 287 289 289 288 286 282 281 282 282 284 283 284 284 281 279 276 276 277 278 278 279 280 281 281 281 281 279 278 275 275 275 275 275 275 278 278 279 279

GFSMA_sfc_thetae_129.txt.gz
Theta_e
338 336 334 335 335 334 333 330 329 330 332 331 330 328 326 324 323 326 326 327 330 332 332 332 330 330 329 328 327 326 325 325 325 325 324 323 322 320 320 319 318 317 317
337 336 333 333 333 333 333 332 331 330 330 330 330 328 323 324 324 324 325 326 327 329 330 330 330 330 329 328 326 326 325 324 324 324 323 322 321 320 319 318 317 316 316
337 335 334 332 332 332 331 331 330 330 328 329 328 328 322 324 324 324 323 323 324 325 327 329 330 329 328 328 326 325 324 325 323 323 322 321 321 320 319 318 317 316 315
339 335 334 333 332 331 331 329 327 325 326 326 326 325 322 322 322 322 323 323 321 323 325 327 328 329 329 327 325 326 324 324 323 323 322 321 320 320 319 318 317 316 316
339 336 334 332 331 331 329 327 325 325 323 324 325 326 324 321 321 323 321 321 320 321 322 325 325 325 327 327 325 326 325 324 323 323 322 321 320 320 319 319 319 319 320
338 336 333 333 331 328 328 327 325 325 324 324 326 324 323 320 322 321 320 322 320 321 321 321 321 321 324 327 327 325 325 325 324 324 323 322 321 321 321 321 321 321 322
339 335 333 333 330 328 327 326 325 324 323 324 322 320 321 319 318 321 320 320 319 320 320 320 320 318 320 325 327 326 326 326 325 324 323 323 323 324 324 323 323 323 324
338 336 334 333 332 328 327 325 324 323 321 324 320 318 313 316 316 318 319 319 318 320 320 320 319 318 318 320 320 326 327 327 326 325 324 326 326 326 325 326 325 325 325
337 337 334 333 331 330 327 326 325 323 320 322 322 316 310 309 313 316 316 318 318 317 319 319 319 318 317 318 320 321 320 322 327 327 329 328 327 327 327 326 325 325 324
335 336 334 332 331 329 327 326 326 323 323 319 322 322 317 316 311 310 314 315 318 317 317 317 317 317 317 317 318 317 315 315 320 325 325 324 323 323 322 321 321 321 322
334 334 333 330 330 329 328 327 325 324 322 321 321 320 317 316 315 312 308 312 317 316 317 317 317 315 317 317 316 316 313 311 313 318 320 320 320 319 319 319 320 320 319
330 332 331 329 328 327 326 326 325 324 323 321 322 322 318 314 313 312 310 310 311 314 316 315 315 314 310 310 312 310 309 308 310 314 316 317 317 317 319 319 317 316 314
327 328 329 329 327 326 326 326 325 324 323 321 321 321 321 319 318 316 313 310 310 310 313 314 316 312 308 306 307 308 307 306 307 310 312 312 312 312 313 312 310 308 308
327 329 328 329 328 326 326 325 325 324 325 323 321 322 321 320 319 318 315 311 309 309 312 310 305 304 303 303 303 304 303 302 303 303 304 304 304 303 302 301 300 300 300
327 327 327 327 327 326 325 325 323 323 323 323 321 322 321 321 321 320 318 315 312 306 308 309 304 302 300 299 299 299 298 299 299 298 298 298 297 296 295 294 295 295 297
326 324 321 322 321 322 323 323 322 323 322 322 321 321 321 321 320 320 319 317 315 313 308 306 302 299 297 297 297 295 295 295 294 293 293 292 292 292 291 291 292 293 293
326 324 322 319 319 319 319 320 320 320 320 320 321 321 320 321 320 318 320 319 316 315 306 298 298 295 294 293 292 292 291 290 290 290 289 289 288 288 288 288 289 290 290
326 323 321 318 319 318 318 318 318 319 319 318 319 320 320 320 319 320 318 318 317 314 308 297 294 293 291 290 289 288 288 289 288 289 288 287 287 287 286 286 286 287 286
325 324 321 318 318 317 317 317 318 318 319 319 319 319 319 319 317 319 316 316 316 312 306 298 294 291 290 289 287 286 285 285 286 288 287 286 286 286 286 285 285 285 285
325 323 322 320 319 317 317 316 317 317 318 318 318 319 319 319 319 318 315 313 312 307 303 297 291 288 287 287 286 283 281 283 282 284 285 285 285 285 285 285 284 284 284
324 324 323 322 319 318 317 316 316 316 316 316 316 318 318 315 309 312 315 312 308 301 297 293 288 284 283 283 283 284 281 280 280 281 282 283 284 285 285 284 284 283 282
321 320 321 321 320 316 302 301 309 314 314 313 312 310 313 307 305 300 300 301 305 301 296 294 291 288 284 285 283 283 279 278 277 281 281 281 282 282 282 282 283 282 282
318 313 310 308 303 301 294 297 298 308 308 307 308 297 291 294 294 291 289 288 288 290 293 292 291 288 284 284 284 282 282 281 278 278 281 279 280 279 281 282 283 282 283
310 304 299 297 294 291 291 292 290 290 288 287 287 288 289 287 289 288 289 285 284 285 285 286 287 284 283 284 285 284 280 277 277 278 281 278 279 278 279 280 283 283 283
302 296 294 291 290 288 289 289 289 287 285 285 285 286 285 286 288 291 286 284 283 282 285 285 285 285 285 284 283 280 277 278 276 276 277 279 278 276 277 276 278 283 283
294 291 289 289 288 288 289 289 288 286 283 282 283 285 286 285 285 287 285 283 279 279 280 280 281 282 282 282 282 282 281 278 276 274 276 277 276 275 273 277 276 277 277

GFSMA_sfc_thetae_132.txt.gz
Theta_e
337 333 331 331 332 334 331 331 329 327 327 328 329 326 324 325 325 327 327 329 331 335 335 333 332 332 330 329 328 327 326 326 326 326 325 323 322 321 320 319 319 318 318
339 333 331 331 332 333 332 331 328 328 329 330 328 327 325 324 325 323 323 327 328 331 333 332 332 330 330 329 327 326 326 326 326 325 324 322 321 320 319 318 317 316 316
337 335 332 332 332 332 331 328 327 328 329 329 328 328 324 323 323 323 323 324 325 326 328 330 331 330 329 328 327 326 325 326 325 325 324 322 321 320 319 318 317 316 316
337 334 332 331 331 331 330 329 327 326 326 325 325 325 324 323 323 323 323 322 322 324 325 327 329 330 329 328 327 326 325 324 324 324 323 322 321 320 319 318 317 316 316
337 335 334 332 330 330 329 329 325 326 324 324 324 322 323 321 321 322 321 320 319 320 321 325 325 326 328 328 327 326 326 325 324 323 322 321 321 320 320 320 319 320 319
338 336 334 332 331 329 329 327 324 325 324 324 325 322 323 320 321 321 320 321 319 321 320 321 322 322 324 327 327 326 326 325 324 323 322 322 321 321 320 320 321 321 321
339 336 333 331 331 329 328 326 323 321 321 323 322 322 321 321 319 319 320 319 319 320 319 320 318 318 322 325 327 327 326 326 324 323 322 323 322 322 322 322 322 322 323
337 334 332 330 330 329 327 326 324 322 320 324 319 319 314 316 317 319 319 319 317 320 320 320 319 317 317 320 320 326 326 325 324 324 324 325 325 325 324 324 324 325 325
336 334 332 331 329 329 326 326 325 323 320 323 322 316 311 310 313 316 317 317 316 317 318 319 318 317 317 318 320 321 319 323 326 326 326 326 326 326 326 325 325 324 323
332 334 333 332 331 329 327 326 326 325 323 319 322 321 315 315 309 308 314 316 316 316 317 317 317 317 317 317 318 316 314 314 321 326 328 327 326 325 324 322 321 320 322
334 334 333 332 331 330 329 327 326 324 324 321 321 320 318 314 316 311 309 310 314 316 317 317 317 316 316 316 316 316 313 311 313 321 324 324 323 322 321 321 321 321 319
332 334 333 333 332 330 328 327 326 325 323 322 322 322 319 315 313 312 311 311 311 313 316 316 315 314 314 313 315 313 312 309 311 316 319 320 320 319 320 321 319 318 316
327 330 332 330 330 329 328 327 326 325 324 322 321 321 322 319 318 316 313 312 311 309 311 310 312 308 309 306 307 309 308 307 308 311 314 316 317 317 316 314 313 312 311
327 330 330 330 329 328 327 326 326 325 325 322 322 322 323 321 320 317 315 312 309 307 309 307 303 304 305 306 306 306 305 304 305 306 307 308 308 307 306 305 305 305 304
327 328 329 329 328 326 326 325 325 324 324 324 323 321 322 323 321 319 318 316 311 307 306 306 301 301 301 302 302 302 301 301 301 300 300 301 300 300 299 298 299 299 298
327 326 327 327 327 326 325 324 324 324 323 324 324 322 321 322 321 319 319 317 315 312 307 306 301 298 299 297 298 297 297 297 297 296 296 296 295 295 295 295 296 295 294
326 325 325 325 324 324 324 323 323 323 322 322 323 321 321 322 321 319 318 316 315 313 307 297 296 296 295 294 293 292 292 291 292 292 292 292 291 291 291 292 293 291 290
326 325 323 322 321 320 320 320 320 320 320 320 320 320 320 321 320 320 318 316 315 314 306 296 293 292 291 291 290 289 289 289 289 290 289 289 289 288 288 289 289 287 287
325 325 323 321 319 318 318 318 318 318 318 319 319 319 319 320 319 319 319 317 317 312 306 295 293 292 289 288 286 286 286 286 288 289 288 287 288 287 287 287 287 286 285
323 324 322 321 319 317 317 317 318 318 317 318 319 319 319 319 318 319 317 317 316 309 303 299 293 290 288 287 286 283 282 284 284 286 286 286 286 287 286 286 285 285 284
320 324 323 321 319 317 316 316 316 316 316 316 316 317 318 316 309 312 318 314 311 306 302 295 291 287 285 284 283 284 281 280 281 282 282 283 284 285 284 285 285 284 283
311 323 322 320 318 316 304 301 310 315 314 314 313 313 313 306 305 301 301 301 306 303 298 296 293 288 286 287 285 283 280 278 277 281 281 281 283 283 284 282 284 283 283
303 315 319 320 317 314 299 299 299 312 311 311 311 305 300 299 302 295 296 296 295 296 297 298 292 291 287 288 286 282 282 283 279 279 281 278 281 279 281 282 284 283 283
300 311 311 308 305 296 294 296 295 296 292 289 289 289 292 288 291 292 288 289 289 289 291 294 296 292 290 289 289 287 284 278 279 280 282 277 280 278 280 281 283 283 283
296 302 301 298 296 290 290 290 292 289 286 285 286 286 286 287 290 293 288 286 285 284 288 288 288 288 289 288 285 282 279 278 275 276 278 279 278 277 278 277 279 283 283
296 293 290 293 291 288 289 290 290 287 285 284 285 285 286 286 287 288 288 287 284 284 284 284 284 284 285 285 284 285 282 279 275 274 277 276 276 277 274 277 276 277 277

GFSMA_sfc_thetae_135.txt.gz
Theta_e
334 330 328 329 329 330 329 331 330 326 326 326 326 325 326 327 327 327 330 329 330 336 336 334 334 333 331 330 330 329 327 326 326 325 323 322 322 321 321 320 319 318 318
337 333 328 328 329 332 330 329 328 324 326 328 326 326 325 325 326 325 327 328 328 332 334 334 332 332 331 330 328 326 325 325 326 326 324 323 322 320 320 319 318 317 317
338 334 331 329 329 331 330 329 325 324 326 328 325 325 324 324 325 323 324 325 327 327 329 331 333 331 330 329 327 327 326 327 326 325 323 322 320 319 318 317 316 316 316
338 335 332 331 331 331 330 328 325 323 323 324 324 325 323 323 324 324 322 322 322 324 325 327 330 330 329 329 328 327 327 327 326 325 323 322 320 320 319 318 317 317 316
337 336 333 332 331 331 330 329 326 324 322 322 324 323 322 322 323 324 321 320 320 320 321 324 325 326 328 329 327 327 327 327 326 325 323 322 321 320 319 318 318 318 318
337 336 334 331 330 330 329 329 326 323 324 324 325 321 322 321 322 322 321 321 319 319 320 320 322 323 325 328 327 327 327 326 326 325 323 322 321 321 320 320 320 320 321
337 336 335 332 331 330 329 328 325 323 319 324 320 319 320 319 319 320 320 320 318 320 319 319 318 320 323 325 326 327 326 327 326 324 323 322 321 321 321 321 321 322 323
337 337 335 333 331 329 329 327 325 322 320 323 319 317 311 314 318 319 319 320 317 319 319 319 318 317 319 320 320 326 327 326 325 323 322 323 323 322 322 323 323 324 324
335 337 335 333 331 330 327 327 326 324 320 322 321 318 312 310 314 316 317 318 318 318 319 319 318 317 318 317 320 321 319 322 325 325 324 326 325 324 324 324 325 325 324
332 335 333 332 331 330 327 327 327 325 324 320 321 321 316 315 312 308 316 317 318 317 317 318 317 316 317 318 318 316 314 314 320 325 326 327 326 325 326 326 324 322 323
331 332 332 331 330 330 329 327 326 325 324 322 321 320 317 314 314 311 309 312 315 317 317 317 317 316 316 317 317 316 312 310 313 321 325 327 327 326 325 323 322 322 322
328 331 332 331 331 330 329 327 327 326 325 324 323 321 319 315 312 309 309 312 312 314 316 316 315 316 316 316 317 314 311 309 310 317 322 323 324 323 322 322 323 321 318
325 327 330 329 330 330 330 328 327 326 325 323 322 321 321 320 318 316 314 312 311 311 311 308 311 312 312 312 314 313 312 307 309 313 316 317 319 320 321 319 318 316 314
324 326 327 329 331 330 329 328 327 326 325 324 322 321 321 321 321 318 315 312 310 309 309 307 304 306 307 307 307 308 308 306 307 308 310 311 312 312 312 312 311 310 307
325 325 329 329 329 329 328 327 326 325 325 324 323 322 321 322 321 319 319 316 313 307 307 303 301 303 304 306 306 306 307 304 304 303 304 304 305 305 305 305 304 303 301
323 324 326 327 328 327 327 326 325 325 324 324 323 322 321 323 323 321 319 317 317 313 308 306 300 299 300 300 301 301 301 301 300 299 299 299 300 300 301 300 299 297 296
322 323 325 325 326 326 325 324 324 324 323 323 323 323 321 322 322 321 319 318 316 315 310 296 297 297 296 296 295 295 295 294 295 295 296 296 295 296 296 296 294 293 292
318 323 325 325 325 325 324 324 323 323 322 321 322 322 321 322 321 321 319 317 316 316 307 295 294 293 293 292 291 290 290 291 291 293 293 292 292 292 292 291 290 289 288
310 318 323 322 322 323 323 323 323 322 321 322 321 320 320 319 319 319 319 317 317 315 307 295 293 293 289 289 287 287 287 287 289 291 290 289 289 289 289 288 287 287 286
304 310 318 323 322 321 321 320 321 320 319 319 319 319 319 319 319 319 318 316 315 311 303 299 294 291 288 287 287 284 283 286 285 286 287 287 287 288 287 287 286 286 285
301 306 310 322 321 320 319 318 318 317 317 316 316 317 318 315 309 313 318 317 315 308 301 297 292 288 286 285 285 286 284 283 282 284 283 284 284 285 285 286 286 286 284
297 299 304 310 320 318 305 302 311 315 315 314 314 314 315 306 306 301 301 301 309 306 301 296 293 289 287 286 286 284 281 280 279 282 282 281 284 283 284 284 285 284 284
294 296 299 304 317 318 301 301 301 314 313 313 312 309 305 304 304 305 297 297 297 297 299 301 294 293 287 288 287 284 284 284 281 281 282 279 282 282 284 283 285 284 284
293 294 296 302 310 312 298 298 298 308 306 300 297 296 300 293 291 295 291 290 291 298 297 299 299 296 294 291 290 289 286 281 281 282 282 277 280 279 281 282 284 284 284
292 294 296 296 298 302 293 295 298 295 290 287 286 286 287 287 290 293 290 288 286 285 289 294 296 294 292 291 290 285 282 281 277 278 280 279 279 277 279 279 281 284 284
291 293 292 291 290 292 291 292 296 292 287 286 285 285 287 287 289 289 290 288 286 284 286 287 288 289 289 287 287 289 287 285 277 275 278 277 277 277 274 278 278 279 279

GFSMA_sfc_thetae_138.txt.gz
Theta_e
333 327 325 326 326 327 330 329 328 327 325 326 326 325 326 328 329 329 329 329 332 336 337 336 335 334 333 331 331 329 328 328 326 325 323 322 321 322 321 321 320 319 320
335 331 325 325 326 328 327 326 328 326 324 325 325 326 326 327 328 328 329 329 328 332 335 335 335 334 332 329 330 328 327 326 325 325 322 322 322 321 320 320 319 319 318
337 334 329 326 327 327 325 325 325 324 324 325 324 324 324 326 326 325 326 327 326 325 330 333 334 334 332 330 329 328 326 325 326 325 323 323 321 320 319 319 318 317 317
338 335 332 330 328 329 328 327 326 322 323 323 321 321 322 324 325 324 324 325 326 327 327 329 331 332 332 329 329 328 327 326 326 326 324 322 321 320 318 318 317 316 316
337 335 333 332 331 329 328 326 325 324 324 321 321 321 321 322 324 325 323 323 324 324 324 326 326 327 329 330 328 327 327 327 327 326 324 322 321 320 319 318 317 317 317
336 336 334 333 332 329 328 327 325 325 323 322 323 321 320 321 322 322 322 323 322 322 322 322 324 323 325 328 329 328 329 329 328 326 324 322 321 320 319 319 319 320 321
336 335 334 332 331 329 329 328 327 324 322 324 320 319 320 319 321 321 322 321 320 320 320 321 320 321 324 326 327 329 329 328 327 326 325 323 322 321 321 320 320 321 322
336 335 334 332 331 330 330 328 325 323 322 324 319 317 312 315 318 320 321 320 318 320 319 320 319 319 321 323 323 327 329 328 327 326 324 323 322 321 321 321 322 322 323
336 336 335 334 332 332 329 328 325 324 321 322 322 316 311 309 312 317 318 319 318 318 319 319 319 319 319 320 321 321 320 323 326 325 324 324 323 323 323 323 323 324 325
335 336 336 334 332 331 329 328 327 326 324 320 322 321 318 315 309 309 316 317 319 318 319 319 319 318 319 319 319 317 314 315 320 325 325 325 324 324 324 324 325 325 323
332 335 333 334 332 330 330 328 326 326 325 323 321 319 316 315 314 310 309 313 317 319 319 319 319 318 318 319 319 317 312 310 313 321 324 326 326 326 326 326 325 322 324
328 331 331 332 332 330 329 328 327 326 325 325 323 322 320 314 312 312 309 312 312 316 318 318 318 318 317 318 318 314 311 309 311 315 320 324 326 326 326 324 323 323 321
325 325 328 329 329 329 329 329 327 326 325 324 323 322 322 321 317 316 315 312 312 312 314 316 317 317 317 317 317 313 312 308 309 312 317 320 321 322 323 323 323 321 318
323 323 326 328 329 329 329 328 327 326 326 325 324 324 323 322 321 318 315 312 310 310 309 309 308 313 314 316 315 309 315 307 307 309 312 314 315 316 317 318 317 315 313
322 321 322 325 327 328 329 328 327 326 326 325 324 323 323 323 322 319 318 317 314 307 308 305 303 305 308 309 309 312 311 306 306 306 307 309 310 311 311 311 310 308 306
320 320 321 323 325 327 328 327 326 326 325 325 324 323 322 323 322 321 319 318 317 315 309 306 302 301 304 304 306 308 308 306 304 303 302 303 305 306 305 304 303 301 300
312 317 320 322 325 325 326 326 326 326 324 324 324 322 322 323 321 321 320 319 316 316 312 297 298 299 298 299 300 301 301 301 301 299 299 300 300 300 300 299 298 297 295
306 310 315 321 324 325 325 324 324 324 324 322 322 322 321 321 320 322 321 319 317 317 314 296 295 294 295 296 295 294 293 295 295 297 297 297 297 296 295 294 293 292 291
301 303 310 314 321 323 323 324 324 323 323 323 323 322 322 320 320 320 320 319 318 317 316 300 294 293 290 291 289 289 289 290 292 294 293 294 295 293 292 291 290 289 288
299 301 303 309 312 321 322 323 322 323 322 322 322 322 322 321 320 320 319 318 317 315 308 300 298 294 290 290 290 286 286 288 287 289 290 290 291 291 290 289 288 287 286
297 298 299 303 307 312 321 321 321 321 320 319 319 320 320 317 309 312 317 317 317 315 302 299 293 289 287 286 287 288 286 284 284 285 285 285 287 286 287 287 287 287 286
295 296 296 298 300 306 304 302 311 319 318 317 315 315 316 306 306 300 300 301 310 306 302 298 294 291 289 288 288 287 284 282 280 284 283 283 285 284 284 285 286 286 285
293 293 295 297 298 302 298 300 299 317 316 316 314 312 308 307 305 309 298 296 297 297 300 302 296 294 290 289 289 286 285 285 282 283 283 280 283 282 284 285 285 285 284
290 291 293 295 297 298 295 295 297 310 313 311 308 304 306 296 298 301 297 293 291 298 299 299 302 299 296 293 291 291 288 284 283 283 283 278 282 281 283 283 285 285 284
287 289 292 294 294 294 292 291 292 305 299 293 290 290 293 293 294 296 293 291 288 287 290 295 295 296 294 292 293 288 284 285 279 280 281 280 280 279 280 281 283 284 284
286 288 290 291 290 290 290 291 292 300 294 291 288 287 289 289 289 290 293 291 289 287 287 288 288 290 291 291 290 293 289 287 279 278 280 278 278 277 275 280 280 282 283